[[{"header":{"parameterUnit":"m.s-1","parameterCategory":1,"la1":31.0,"la2":29.5877,"lo1":-88.7671,"lo2":-86.6584,"dy":0.0162,"dx":0.0185,"nx":115,"ny":88,"refTime":"2024-09-15T18:00:00:Z","depth":0,"parameterNumber":2,"parameterNumberName":"U-component_of_WINDS"},"data":[0.0,0.0,0.0,0.0,0.0,0.0,0.0,0.0,0.0,0.0,0.0,0.0,0.0,0.0,0.0,0.0,0.0,0.0,0.0,0.0,0.0,0.0,0.0,0.0,0.0,0.0,0.0,0.0,0.0,0.0,0.0,0.0,0.0,0.0,0.0,0.0,0.0,0.0,0.0,0.0,0.0,0.0,0.0,0.0,0.0,0.0,0.0,0.0,0.0,0.0,0.0,0.0,0.0,0.0,0.0,0.0,0.0,0.0,0.0,0.0,0.0,0.0,0.0,0.0,0.0,0.0,0.0,0.0,0.0,0.0,0.0,0.0,0.0,0.0,0.0,0.0,0.0,0.0,0.0,0.0,0.0,0.0,0.0,0.0,0.0,0.0,0.0,0.0,0.0,0.0,0.0,0.0,0.0,0.0,0.0,0.0,0.0,0.0,0.0,0.0,0.0,0.0,0.0,0.0,0.0,0.0,0.0,0.0,0.0,0.0,0.0,0.0,0.0,0.0,0.0,0.0,0.0,0.0,0.0,0.0,0.0,0.0,0.0,0.0,0.0,0.0,0.0,0.0,0.0,0.0,0.0,0.0,0.0,0.0,0.0,0.0,0.0,0.0,0.0,0.0,0.0,0.0,0.0,0.0,0.0,0.0,0.0,0.0,0.0,0.0,0.0,0.0,0.0,0.0,0.0,0.0,0.0,0.0,0.0,0.0,0.0,0.0,0.0,0.0,0.0,0.0,0.0,0.0,0.0,0.0,0.0,0.0,0.0,0.0,0.0,0.0,0.0,0.0,0.0,0.0,0.0,0.0,0.0,0.0,0.0,0.0,0.0,0.0,0.0,0.0,0.0,0.0,0.0,0.0,0.0,0.0,0.0,0.0,0.0,0.0,0.0,0.0,0.0,0.0,0.0,0.0,0.0,0.0,0.0,0.0,0.0,0.0,0.0,0.0,0.0,0.0,0.0,0.0,0.0,0.0,0.0,0.0,0.0,0.0,0.0,0.0,0.0,0.0,0.0,0.0,0.0,0.0,0.0,0.0,0.0,0.0,0.0,0.0,0.0,0.0,0.0,0.0,0.0,0.0,0.0,0.0,0.0,0.0,0.0,0.0,0.0,0.0,0.0,0.0,0.0,0.0,0.0,0.0,0.0,0.0,0.0,0.0,0.0,0.0,0.0,0.0,0.0,0.0,0.0,0.0,0.0,0.0,0.0,0.0,0.0,0.0,0.0,0.0,0.0,0.0,0.0,0.0,0.0,0.0,0.0,0.0,0.0,0.0,0.0,0.0,0.0,0.0,0.0,0.0,0.0,0.0,0.0,0.0,0.0,0.0,0.0,0.0,0.0,0.0,0.0,0.0,0.0,0.0,0.0,0.0,0.0,0.0,0.0,0.0,0.0,0.0,0.0,0.0,0.0,0.0,0.0,0.0,0.0,0.0,0.0,0.0,0.0,0.0,0.0,0.0,0.0,0.0,0.0,0.0,0.0,0.0,0.0,0.0,0.0,0.0,0.0,0.0,0.0,0.0,0.0,0.0,0.0,0.0,0.0,0.0,0.0,0.0,0.0,0.0,0.0,0.0,0.0,0.0,0.0,0.0,0.0,0.0,0.0,0.0,0.0,0.0,0.0,0.0,0.0,0.0,0.0,0.0,0.0,0.0,0.0,0.0,0.0,0.0,0.0,0.0,0.0,0.0,0.0,0.0,0.0,0.0,0.0,0.0,0.0,0.0,0.0,0.0,0.0,0.0,0.0,0.0,0.0,0.0,0.0,0.0,0.0,0.0,0.0,0.0,0.0,0.0,0.0,0.0,0.0,0.0,0.0,0.0,0.0,0.0,0.0,0.0,0.0,0.0,0.0,0.0,0.0,0.0,0.0,0.0,0.0,0.0,0.0,0.0,0.0,0.0,0.0,0.0,0.0,0.0,0.0,0.0,0.0,0.0,0.0,0.0,0.0,0.0,0.0,0.0,0.0,0.0,0.0,0.0,0.0,0.0,0.0,0.0,0.0,0.0,0.0,0.0,0.0,0.0,0.0,0.0,0.0,0.0,0.0,0.0,0.0,0.0,0.0,0.0,0.0,0.0,0.0,0.0,0.0,0.0,0.0,0.0,0.0,0.0,0.0,0.0,0.0,0.0,0.0,0.0,0.0,0.0,0.0,0.0,0.0,0.0,0.0,0.0,0.0,0.0,0.0,0.0,0.0,0.0,0.0,0.0,0.0,0.0,0.0,0.0,0.0,0.0,0.0,0.0,0.0,0.0,0.0,0.0,0.0,0.0,0.0,0.0,0.0,0.0,0.0,0.0,0.0,0.0,0.0,0.0,0.0,0.0,0.0,0.0,0.0,0.0,0.0,0.0,0.0,0.0,0.0,0.0,0.0,0.0,0.0,0.0,0.0,0.0,0.0,0.0,0.0,0.0,0.0,0.0,0.0,0.0,0.0,0.0,0.0,0.0,0.0,0.0,0.0,0.0,0.0,0.0,0.0,0.0,0.0,0.0,0.0,0.0,0.0,0.0,0.0,0.0,0.0,0.0,0.0,0.0,0.0,0.0,0.0,0.0,0.0,0.0,0.0,0.0,0.0,0.0,0.0,0.0,0.0,0.0,0.0,0.0,0.0,0.0,0.0,0.0,0.0,0.0,0.0,0.0,0.0,0.0,0.0,0.0,0.0,0.0,0.0,0.0,0.0,0.0,0.0,0.0,0.0,0.0,0.0,0.0,0.0,0.0,0.0,0.0,0.0,0.0,0.0,0.0,0.0,0.0,0.0,0.0,0.0,0.0,0.0,0.0,0.0,0.0,0.0,0.0,0.0,0.0,0.0,0.0,0.0,0.0,0.0,0.0,0.0,0.0,0.0,0.0,0.0,0.0,0.0,0.0,0.0,0.0,0.0,0.0,0.0,0.0,0.0,0.0,0.0,0.0,0.0,0.0,0.0,0.0,0.0,0.0,0.0,0.0,0.0,0.0,0.0,0.0,0.0,0.0,0.0,0.0,0.0,0.0,0.0,0.0,0.0,0.0,0.0,0.0,0.0,0.0,0.0,0.0,0.0,0.0,0.0,0.0,0.0,0.0,0.0,0.0,0.0,0.0,0.0,0.0,0.0,0.0,0.0,0.0,0.0,0.0,0.0,0.0,0.0,0.0,0.0,0.0,0.0,0.0,0.0,0.0,0.0,0.0,0.0,0.0,0.0,0.0,0.0,0.0,0.0,0.0,0.0,0.0,0.0,0.0,0.0,0.0,0.0,0.0,0.0,0.0,0.0,0.0,0.0,0.0,0.0,0.0,0.0,0.0,0.0,0.0,0.0,0.0,0.0,0.0,0.0,0.0,0.0,0.0,0.0,0.0,0.0,0.0,0.0,0.0,0.0,0.0,0.0,0.0,0.0,0.0,0.0,0.0,0.0,0.0,0.0,0.0,0.0,0.0,0.0,0.0,0.0,0.0,0.0,0.0,0.0,0.0,0.0,0.0,0.0,0.0,0.0,0.0,0.0,0.0,0.0,0.0,0.0,0.0,0.0,0.0,0.0,0.0,0.0,0.0,0.0,0.0,0.0,0.0,0.0,0.0,0.0,0.0,0.0,0.0,0.0,0.0,0.0,0.0,0.0,0.0,0.0,0.0,0.0,0.0,0.0,0.0,0.0,0.0,0.0,0.0,0.0,0.0,0.0,0.0,0.0,0.0,0.0,0.0,0.0,0.0,0.0,0.0,0.0,0.0,0.0,0.0,0.0,0.0,0.0,0.0,0.0,0.0,0.0,0.0,0.0,0.0,0.0,0.0,0.0,0.0,0.0,0.0,0.0,0.0,0.0,0.0,0.0,0.0,0.0,0.0,0.0,0.0,0.0,0.0,0.0,0.0,0.0,0.0,0.0,0.0,0.0,0.0,0.0,0.0,0.0,0.0,0.0,0.0,0.0,0.0,0.0,0.0,0.0,0.0,0.0,0.0,0.0,0.0,0.0,0.0,0.0,0.0,0.0,0.0,0.0,0.0,0.0,0.0,0.0,0.0,0.0,0.0,0.0,0.0,0.0,0.0,0.0,0.0,0.0,0.0,0.0,0.0,0.0,0.0,0.0,0.0,0.0,0.0,0.0,0.0,0.0,0.0,0.0,0.0,0.0,0.0,0.0,0.0,0.0,0.0,0.0,0.0,0.0,0.0,0.0,0.0,0.0,0.0,0.0,0.0,0.0,0.0,0.0,0.0,0.0,0.0,0.0,0.0,0.0,0.0,0.0,0.0,0.0,0.0,0.0,0.0,0.0,0.0,0.0,0.0,-0.6972,0.0,0.0,0.0,0.0,0.0,0.0,0.0,0.0,0.0,0.0,0.0,0.0,0.0,0.0,0.0,0.0,0.0,0.0,0.0,0.0,0.0,0.0,0.0,0.0,0.0,0.0,0.0,0.0,0.0,0.0,0.0,0.0,0.0,0.0,0.0,0.0,0.0,0.0,0.0,0.0,0.0,0.0,0.0,0.0,0.0,0.0,0.0,0.0,0.0,0.0,0.0,0.0,0.0,0.0,0.0,0.0,0.0,0.0,0.0,0.0,0.0,0.0,0.0,0.0,0.0,0.0,0.0,0.0,0.0,0.0,0.0,0.0,0.0,0.0,0.0,0.0,0.0,0.0,0.0,0.0,0.0,0.0,0.0,0.0,0.0,0.0,0.0,0.0,0.0,0.0,0.0,0.0,0.0,0.0,0.0,0.0,0.0,0.0,0.0,0.0,0.0,0.0,0.0,0.0,0.0,0.0,0.0,0.0,0.0,0.0,-0.6972,-0.6972,-0.6972,-0.6947,-0.6794,0.0,0.0,0.0,0.0,0.0,0.0,0.0,0.0,0.0,0.0,0.0,0.0,0.0,0.0,0.0,0.0,0.0,0.0,0.0,0.0,0.0,0.0,0.0,0.0,0.0,0.0,0.0,0.0,0.0,0.0,0.0,0.0,0.0,0.0,0.0,0.0,0.0,0.0,0.0,0.0,0.0,0.0,0.0,0.0,0.0,0.0,0.0,0.0,0.0,0.0,0.0,0.0,0.0,0.0,0.0,0.0,0.0,0.0,0.0,0.0,0.0,0.0,0.0,0.0,0.0,0.0,0.0,0.0,0.0,0.0,0.0,0.0,0.0,0.0,0.0,0.0,0.0,0.0,0.0,0.0,0.0,0.0,0.0,0.0,0.0,0.0,0.0,0.0,0.0,0.0,0.0,0.0,0.0,0.0,0.0,0.0,0.0,0.0,0.0,0.0,0.0,0.0,0.0,0.0,0.0,0.0,0.0,0.0,0.0,0.0,0.0,0.0,-0.7376,-0.7113,-0.6693,0.0,0.0,0.0,0.0,0.0,0.0,0.0,0.0,0.0,0.0,0.0,0.0,0.0,0.0,0.0,0.0,0.0,0.0,0.0,0.0,0.0,0.0,0.0,0.0,0.0,0.0,0.0,0.0,0.0,0.0,0.0,0.0,0.0,0.0,0.0,0.0,0.0,0.0,0.0,0.0,0.0,0.0,0.0,0.0,0.0,0.0,0.0,0.0,0.0,0.0,0.0,0.0,0.0,0.0,0.0,0.0,0.0,0.0,0.0,0.0,0.0,0.0,0.0,0.0,0.0,0.0,0.0,0.0,0.0,0.0,0.0,0.0,0.0,0.0,0.0,0.0,0.0,0.0,0.0,0.0,0.0,0.0,0.0,0.0,0.0,0.0,0.0,0.0,0.0,0.0,0.0,0.0,0.0,0.0,0.0,0.0,0.0,0.0,0.0,0.0,0.0,0.0,0.0,0.0,0.0,0.0,0.0,0.0,0.0,0.0,-0.8728,-0.9044,-0.8507,0.0,-0.7043,0.0,0.0,0.0,0.0,0.0,0.0,0.0,0.0,0.0,0.0,0.0,0.0,0.0,0.0,0.0,0.0,0.0,0.0,0.0,0.0,0.0,0.0,0.0,0.0,0.0,0.0,0.0,0.0,0.0,0.0,0.0,0.0,0.0,0.0,0.0,0.0,0.0,0.0,0.0,0.0,0.0,0.0,0.0,0.0,0.0,0.0,0.0,0.0,0.0,0.0,0.0,0.0,0.0,0.0,0.0,0.0,0.0,0.0,0.0,0.0,0.0,0.0,0.0,0.0,0.0,0.0,0.0,0.0,0.0,0.0,0.0,0.0,0.0,0.0,0.0,0.0,0.0,0.0,0.0,0.0,0.0,0.0,0.0,0.0,0.0,0.0,0.0,0.0,0.0,0.0,0.0,0.0,0.0,0.0,0.0,0.0,0.0,0.0,0.0,0.0,0.0,0.0,0.0,0.0,0.0,0.0,0.0,0.0,0.0,0.0,-1.0744,-0.9867,-0.8904,-0.8063,0.0,0.0,0.0,0.0,0.0,0.0,0.0,0.0,0.0,0.0,0.0,0.0,0.0,0.0,0.0,0.0,0.0,0.0,0.0,0.0,0.0,0.0,0.0,0.0,0.0,0.0,0.0,0.0,0.0,0.0,0.0,0.0,0.0,0.0,0.0,0.0,0.0,0.0,0.0,0.0,0.0,0.0,0.0,0.0,0.0,0.0,0.0,0.0,0.0,0.0,0.0,0.0,0.0,0.0,0.0,0.0,0.0,0.0,0.0,0.0,0.0,0.0,0.0,0.0,0.0,0.0,0.0,0.0,0.0,0.0,0.0,0.0,0.0,0.0,0.0,0.0,0.0,0.0,0.0,0.0,0.0,0.0,0.0,0.0,0.0,0.0,0.0,0.0,0.0,0.0,0.0,0.0,0.0,0.0,0.0,0.0,0.0,0.0,0.0,0.0,0.0,0.0,0.0,0.0,0.0,0.0,0.0,0.0,0.0,0.0,-1.125,-1.1823,-1.0339,-0.9444,-0.8472,-0.7436,0.0,0.0,0.0,0.0,0.0,0.0,0.0,0.0,0.0,0.0,0.0,0.0,0.0,0.0,0.0,0.0,0.0,0.0,0.0,0.0,0.0,0.0,0.0,0.0,0.0,0.0,0.0,0.0,0.0,0.0,0.0,0.0,0.0,0.0,0.0,0.0,0.0,0.0,0.0,0.0,0.0,0.0,0.0,0.0,0.0,0.0,0.0,0.0,0.0,0.0,0.0,0.0,0.0,0.0,0.0,0.0,0.0,0.0,0.0,0.0,0.0,0.0,0.0,0.0,0.0,0.0,0.0,0.0,0.0,0.0,0.0,0.0,0.0,0.0,0.0,0.0,0.0,0.0,0.0,0.0,0.0,0.0,0.0,0.0,0.0,0.0,0.0,0.0,0.0,0.0,0.0,0.0,0.0,0.0,0.0,0.0,0.0,0.0,0.0,0.0,0.0,0.0,0.0,0.0,0.0,0.0,0.0,0.0,0.0,-1.135,-1.1274,-1.0571,-1.0335,-0.9176,0.0,0.0,0.0,0.0,0.0,0.0,0.0,0.0,0.0,0.0,0.0,0.0,0.0,0.0,0.0,0.0,0.0,0.0,0.0,0.0,0.0,0.0,0.0,0.0,0.0,0.0,0.0,0.0,0.0,0.0,0.0,0.0,0.0,0.0,0.0,0.0,0.0,0.0,0.0,0.0,0.0,0.0,0.0,0.0,0.0,0.0,0.0,0.0,0.0,0.0,0.0,0.0,0.0,0.0,0.0,0.0,0.0,0.0,0.0,0.0,0.0,0.0,0.0,0.0,0.0,0.0,0.0,0.0,0.0,0.0,0.0,0.0,0.0,0.0,0.0,0.0,0.0,0.0,0.0,0.0,0.0,0.0,0.0,0.0,0.0,0.0,0.0,0.0,0.0,0.0,0.0,0.0,0.0,0.0,0.0,0.0,0.0,0.0,0.0,0.0,0.0,0.0,0.0,0.0,0.0,0.0,0.0,0.0,0.0,-0.9283,-1.0631,-1.1609,-1.2091,-1.0833,-0.9639,0.0,0.0,0.0,0.0,0.0,0.0,0.0,0.0,0.0,0.0,0.0,0.0,0.0,0.0,0.0,0.0,0.0,0.0,0.0,0.0,0.0,0.0,0.0,0.0,0.0,0.0,0.0,0.0,0.0,0.0,0.0,0.0,0.0,0.0,0.0,0.0,0.0,0.0,0.0,0.0,0.0,0.0,0.0,0.0,0.0,0.0,0.0,0.0,0.0,0.0,0.0,0.0,0.0,0.0,0.0,0.0,0.0,0.0,0.0,0.0,0.0,0.0,0.0,0.0,0.0,0.0,0.0,0.0,0.0,0.0,0.0,0.0,0.0,0.0,0.0,0.0,0.0,0.0,0.0,0.0,0.0,0.0,0.0,0.0,0.0,0.0,0.0,0.0,0.0,0.0,0.0,0.0,0.0,0.0,0.0,0.0,0.0,0.0,0.0,0.0,0.0,0.0,0.0,0.0,0.0,0.0,0.0,0.0,0.0,-0.9028,0.0,-1.1973,0.0,-1.0972,-0.977,0.0,0.0,0.0,0.0,0.0,0.0,0.0,0.0,0.0,0.0,0.0,0.0,0.0,0.0,0.0,0.0,0.0,0.0,0.0,0.0,0.0,0.0,0.0,0.0,0.0,0.0,0.0,0.0,0.0,0.0,0.0,0.0,0.0,0.0,0.0,0.0,0.0,0.0,0.0,0.0,0.0,0.0,0.0,0.0,0.0,0.0,0.0,0.0,0.0,0.0,0.0,0.0,0.0,0.0,0.0,0.0,0.0,0.0,0.0,0.0,0.0,0.0,0.0,0.0,0.0,0.0,0.0,0.0,0.0,0.0,0.0,0.0,0.0,0.0,0.0,0.0,0.0,0.0,0.0,0.0,0.0,0.0,0.0,0.0,0.0,0.0,0.0,0.0,0.0,0.0,0.0,0.0,0.0,0.0,0.0,0.0,0.0,0.0,0.0,0.0,0.0,0.0,0.0,0.0,0.0,0.0,0.0,0.0,-0.8577,-1.0302,-1.2013,-1.2245,-1.0922,-1.0745,-0.9612,0.0,0.0,0.0,0.0,0.0,0.0,0.0,0.0,0.0,0.0,0.0,0.0,0.0,0.0,0.0,0.0,0.0,0.0,0.0,0.0,0.0,0.0,0.0,0.0,0.0,0.0,0.0,0.0,0.0,0.0,0.0,0.0,0.0,0.0,0.0,0.0,0.0,0.0,0.0,0.0,0.0,0.0,0.0,0.0,0.0,0.0,0.0,0.0,0.0,0.0,0.0,0.0,0.0,0.0,0.0,0.0,0.0,0.0,0.0,0.0,0.0,0.0,0.0,0.0,0.0,0.0,0.0,0.0,0.0,0.0,0.0,0.0,0.0,0.0,0.0,0.0,0.0,0.0,0.0,0.0,0.0,0.0,0.0,0.0,0.0,0.0,0.0,0.0,0.0,0.0,0.0,0.0,0.0,0.0,0.0,0.0,0.0,0.0,0.0,0.0,0.0,0.0,0.0,0.0,0.0,0.0,0.0,0.0,0.0,-1.2002,-1.1735,-1.1814,-1.2288,-1.0785,-0.9748,0.0,0.0,0.0,0.0,0.0,0.0,0.0,0.0,0.0,0.0,0.0,0.0,0.0,0.0,0.0,0.0,0.0,0.0,0.0,0.0,0.0,0.0,0.0,0.0,0.0,0.0,0.0,0.0,0.0,0.0,0.0,0.0,0.0,0.0,0.0,0.0,0.0,0.0,0.0,0.0,0.0,0.0,0.0,0.0,0.0,0.0,0.0,0.0,0.0,0.0,0.0,0.0,0.0,0.0,0.0,0.0,0.0,0.0,0.0,0.0,0.0,0.0,0.0,0.0,0.0,0.0,0.0,0.0,0.0,0.0,0.0,0.0,0.0,0.0,0.0,0.0,0.0,0.0,0.0,0.0,0.0,0.0,0.0,0.0,0.0,0.0,0.0,0.0,0.0,0.0,0.0,0.0,0.0,0.0,0.0,0.0,0.0,0.0,0.0,0.0,0.0,0.0,0.0,0.0,0.0,0.0,0.0,0.0,0.0,-1.302,-1.2213,-1.1905,-1.2525,-1.0944,-0.9948,-0.9737,0.0,0.0,0.0,0.0,0.0,0.0,0.0,0.0,0.0,0.0,0.0,0.0,0.0,0.0,0.0,0.0,0.0,0.0,0.0,0.0,0.0,0.0,0.0,0.0,0.0,0.0,0.0,0.0,0.0,0.0,0.0,0.0,0.0,0.0,0.0,0.0,0.0,0.0,0.0,0.0,0.0,0.0,0.0,0.0,0.0,0.0,0.0,0.0,0.0,0.0,0.0,0.0,0.0,0.0,0.0,0.0,0.0,0.0,0.0,0.0,0.0,0.0,0.0,0.0,0.0,0.0,0.0,0.0,0.0,0.0,0.0,0.0,0.0,0.0,0.0,0.0,0.0,0.0,0.0,0.0,0.0,0.0,0.0,0.0,0.0,0.0,0.0,0.0,0.0,0.0,0.0,0.0,0.0,0.0,0.0,0.0,0.0,0.0,0.0,0.0,0.0,0.0,0.0,0.0,0.0,0.0,0.0,0.0,-1.3619,-1.3178,-1.2547,-1.1763,-1.1211,-1.0361,0.0,0.0,0.0,0.0,0.0,0.0,0.0,0.0,0.0,0.0,0.0,0.0,0.0,0.0,0.0,0.0,0.0,0.0,0.0,0.0,0.0,0.0,0.0,0.0,0.0,0.0,0.0,0.0,0.0,0.0,0.0,0.0,0.0,0.0,0.0,0.0,0.0,0.0,0.0,0.0,0.0,0.0,0.0,0.0,0.0,0.0,0.0,0.0,0.0,0.0,0.0,0.0,0.0,0.0,0.0,0.0,0.0,0.0,0.0,0.0,0.0,0.0,0.0,0.0,0.0,0.0,0.0,0.0,0.0,0.0,0.0,0.0,0.0,0.0,0.0,0.0,0.0,0.0,0.0,0.0,0.0,0.0,0.0,0.0,0.0,0.0,0.0,0.0,0.0,0.0,0.0,0.0,0.0,0.0,0.0,0.0,0.0,0.0,0.0,0.0,0.0,0.0,0.0,0.0,0.0,0.0,0.0,0.0,0.0,-1.3006,-1.3362,-1.3312,-1.3018,-1.1998,-1.0979,0.0,0.0,0.0,0.0,0.0,0.0,0.0,0.0,0.0,0.0,0.0,0.0,0.0,0.0,0.0,0.0,0.0,0.0,0.0,0.0,0.0,0.0,0.0,0.0,0.0,0.0,0.0,0.0,0.0,0.0,0.0,0.0,0.0,0.0,0.0,0.0,0.0,0.0,0.0,0.0,0.0,0.0,0.0,0.0,0.0,0.0,0.0,0.0,0.0,0.0,0.0,0.0,0.0,0.0,0.0,0.0,0.0,0.0,0.0,0.0,0.0,0.0,0.0,0.0,0.0,0.0,0.0,0.0,0.0,0.0,0.0,0.0,0.0,0.0,0.0,0.0,0.0,0.0,0.0,0.0,0.0,0.0,0.0,0.0,0.0,0.0,0.0,0.0,0.0,0.0,0.0,0.0,0.0,0.0,0.0,0.0,0.0,0.0,0.0,0.0,0.0,0.0,0.0,0.0,0.0,0.0,0.0,0.0,-1.1228,-1.3122,-1.353,-1.3661,-1.3506,-1.2422,-1.1357,0.0,0.0,0.0,0.0,0.0,0.0,0.0,0.0,0.0,0.0,0.0,0.0,0.0,0.0,0.0,0.0,0.0,0.0,0.0,0.0,0.0,0.0,0.0,0.0,0.0,0.0,0.0,0.0,0.0,0.0,0.0,0.0,0.0,0.0,0.0,0.0,0.0,0.0,0.0,0.0,0.0,0.0,0.0,0.0,0.0,0.0,0.0,0.0,0.0,0.0,0.0,0.0,0.0,0.0,0.0,0.0,0.0,0.0,0.0,0.0,0.0,0.0,0.0,0.0,0.0,0.0,0.0,0.0,0.0,0.0,0.0,0.0,0.0,0.0,0.0,0.0,0.0,0.0,0.0,0.0,0.0,0.0,0.0,0.0,0.0,0.0,0.0,0.0,0.0,0.0,0.0,0.0,0.0,0.0,0.0,0.0,0.0,0.0,0.0,0.0,0.0,0.0,0.0,0.0,0.0,0.0,0.0,0.0,-1.1442,-1.3398,-1.3578,-1.3598,-1.3486,-1.2763,-1.1768,0.0,0.0,0.0,0.0,0.0,0.0,0.0,0.0,0.0,0.0,0.0,0.0,0.0,0.0,0.0,0.0,0.0,0.0,0.0,0.0,0.0,0.0,0.0,0.0,0.0,0.0,0.0,0.0,0.0,0.0,0.0,0.0,0.0,0.0,0.0,0.0,0.0,0.0,0.0,0.0,0.0,0.0,0.0,0.0,0.0,0.0,0.0,0.0,0.0,0.0,0.0,0.0,0.0,0.0,0.0,0.0,0.0,0.0,0.0,0.0,0.0,0.0,0.0,0.0,0.0,0.0,0.0,0.0,0.0,0.0,0.0,0.0,0.0,0.0,0.0,0.0,0.0,0.0,0.0,0.0,0.0,0.0,0.0,0.0,0.0,0.0,0.0,0.0,0.0,0.0,0.0,0.0,0.0,0.0,0.0,0.0,0.0,0.0,0.0,0.0,0.0,0.0,0.0,0.0,0.0,0.0,0.0,0.0,-1.208,-1.2978,-1.3067,-1.3224,-1.3486,-1.3466,-1.2813,0.0,0.0,0.0,0.0,0.0,0.0,0.0,0.0,0.0,0.0,0.0,0.0,0.0,0.0,0.0,0.0,0.0,0.0,0.0,0.0,0.0,0.0,0.0,0.0,0.0,0.0,0.0,0.0,0.0,0.0,0.0,0.0,0.0,0.0,0.0,0.0,0.0,0.0,0.0,0.0,0.0,0.0,0.0,0.0,0.0,0.0,0.0,0.0,-0.0749,0.0,0.0,0.0,0.0,0.0,0.0,0.0,0.0,0.0,0.0,0.0,0.0,0.0,0.0,0.0,0.0,0.0,0.0,0.0,0.0,0.0,0.0,0.0,0.0,0.0,0.0,0.0,0.0,0.0,0.0,0.0,0.0,0.0,0.0,0.0,0.0,0.0,0.0,0.0,0.0,0.0,0.0,0.0,0.0,0.0,0.0,0.0,0.0,0.0,0.0,0.0,0.0,0.0,0.0,0.0,0.0,0.0,0.0,0.0,-1.3339,-1.3304,-1.3334,-1.331,-1.3243,-1.359,-1.3128,0.0,0.0,0.0,0.0,0.0,0.0,0.0,0.0,0.0,0.0,0.0,0.0,0.0,0.0,0.0,0.0,0.0,0.0,0.0,0.0,0.0,0.0,0.0,0.0,0.0,0.0,0.0,0.0,0.0,0.0,0.0,0.0,0.0,0.0,0.0,0.0,0.0,0.0,0.0,0.0,0.0,0.0,0.0,0.0,0.0,0.0,0.0,0.0,0.0,0.0,0.0,0.0,0.0,0.0,0.0,0.0,0.0,0.0,0.0,0.0,0.0,0.0,0.0,0.0,0.0,0.0,0.0,0.0,0.0,0.0,0.0,0.0,0.0,0.0,0.0,0.0,0.0,0.0,0.0,0.0,0.0,0.0,0.0,0.0,0.0,0.0,0.0,0.0,0.0,0.0,0.0,0.0,0.0,0.0,0.0,0.0,0.0,0.0,0.0,0.0,0.0,0.0,0.0,0.0,0.0,0.0,0.0,-1.4069,-1.4545,-1.41,-1.3909,-1.3494,-1.291,-1.3399,-1.2983,-1.1511,0.0,0.0,0.0,0.0,0.0,0.0,0.0,0.0,0.0,0.0,0.0,0.0,0.0,0.0,0.0,0.0,0.0,0.0,0.0,0.0,0.0,0.0,0.0,0.0,0.0,0.0,0.0,0.0,0.0,0.0,0.0,0.0,0.0,0.0,0.0,0.0,0.0,0.0,-0.4075,-0.4288,0.0,0.0,0.0,0.0,0.0,0.0,0.0,0.0,-0.2298,0.0,0.0,0.0,0.0,0.0,0.0,0.0,0.0,0.0,0.0,0.0,0.0,0.0,0.0,0.0,0.0,0.0,0.0,0.0,0.0,0.0,0.0,0.0,0.0,0.0,0.0,0.0,0.0,0.0,0.0,0.0,0.0,0.0,0.0,0.0,0.0,0.0,0.0,0.0,0.0,0.0,0.0,0.0,0.0,0.0,0.0,0.0,0.0,0.0,0.0,0.0,0.0,0.0,0.0,0.0,0.0,-1.4648,-1.4778,-1.4931,-1.5203,-1.4297,-1.3474,-1.2831,-1.2928,-1.2112,-1.0433,0.0,0.0,0.0,0.0,0.0,0.0,0.0,0.0,0.0,0.0,0.0,0.0,0.0,0.0,0.0,0.0,0.0,0.0,0.0,0.0,0.0,0.0,0.0,0.0,0.0,0.0,0.0,0.0,0.0,0.0,0.0,0.0,0.0,0.0,0.0,0.0,0.0,0.0,0.0,-0.5381,-0.5016,0.0,0.0,0.0,0.0,0.0,0.0,0.0,0.0,-0.2421,0.0,0.0,0.0,0.0,0.0,0.0,0.0,0.0,0.0,0.0,0.0,0.0,0.0,0.0,0.0,0.0,0.0,0.0,0.0,0.0,0.0,0.0,0.0,0.0,0.0,0.0,0.0,0.0,0.0,0.0,0.0,0.0,0.0,0.0,0.0,0.0,0.0,0.0,0.0,0.0,0.0,0.0,0.0,0.0,0.0,0.0,0.0,0.0,0.0,0.0,0.0,0.0,0.0,0.0,0.0,-1.5506,-1.6313,-1.6563,-1.6288,-1.526,-1.4079,-1.2802,-1.2223,-1.0938,0.0,0.0,0.0,0.0,0.0,0.0,0.0,0.0,0.0,0.0,0.0,0.0,0.0,0.0,0.0,0.0,0.0,0.0,0.0,0.0,0.0,0.0,0.0,0.0,0.0,0.0,0.0,0.0,0.0,0.0,0.0,0.0,0.0,0.0,0.0,0.0,0.0,0.0,0.0,0.0,-0.6202,-0.6019,-0.4798,0.0,0.0,0.0,0.0,0.0,0.0,-0.3736,-0.3602,0.0,0.0,0.0,0.0,0.0,0.0,0.0,0.0,0.0,0.0,0.0,0.0,0.0,0.0,0.0,0.0,0.0,0.0,0.0,0.0,0.0,0.0,0.0,0.0,0.0,0.0,0.0,0.0,0.0,0.0,0.0,0.0,0.0,0.0,0.0,0.0,0.0,0.0,0.0,0.0,0.0,0.0,0.0,0.0,0.0,0.0,0.0,0.0,0.0,0.0,0.0,0.0,0.0,0.0,0.0,-1.6035,-1.7548,-1.8135,-1.7785,-1.6622,-1.5101,-1.334,-1.1947,-1.0152,0.0,0.0,0.0,0.0,0.0,0.0,0.0,0.0,0.0,0.0,0.0,0.0,0.0,0.0,0.0,0.0,0.0,0.0,0.0,0.0,0.0,0.0,0.0,0.0,0.0,0.0,0.0,0.0,0.0,0.0,0.0,0.0,0.0,0.0,0.0,0.0,0.0,0.0,0.0,0.0,0.0,-0.7186,-0.6187,-0.6222,0.0,0.0,0.0,0.0,-0.5167,-0.53,0.0,0.0,0.0,0.0,0.0,0.0,0.0,0.0,0.0,0.0,0.0,0.0,0.0,0.0,0.0,0.0,0.0,0.0,0.0,0.0,0.0,0.0,0.0,0.0,0.0,0.0,0.0,0.0,0.0,0.0,0.0,0.0,0.0,0.0,0.0,0.0,0.0,0.0,0.0,0.0,0.0,0.0,0.0,0.0,0.0,0.0,0.0,0.0,0.0,0.0,0.0,0.0,0.0,0.0,0.0,0.0,-1.6215,-1.7378,-1.8722,-2.0111,-1.8481,-1.6686,-1.4868,-1.2981,-1.049,0.0,0.0,0.0,0.0,0.0,0.0,0.0,0.0,0.0,0.0,0.0,0.0,0.0,0.0,0.0,0.0,0.0,0.0,0.0,0.0,0.0,0.0,0.0,0.0,0.0,0.0,0.0,0.0,0.0,0.0,0.0,0.0,0.0,0.0,0.0,0.0,0.0,0.0,0.0,0.0,0.0,-0.8516,-0.7172,-0.7294,-0.7411,0.0,0.0,-0.7195,-0.7294,-0.7694,0.0,0.0,0.0,0.0,0.0,0.0,0.0,0.0,0.0,0.0,0.0,0.0,0.0,0.0,0.0,0.0,0.0,0.0,0.0,0.0,0.0,0.0,0.0,0.0,0.0,0.0,0.0,0.0,0.0,0.0,0.0,0.0,0.0,0.0,0.0,0.0,0.0,0.0,0.0,0.0,0.0,0.0,0.0,0.0,0.0,0.0,0.0,0.0,0.0,0.0,0.0,0.0,0.0,0.0,0.0,-1.4298,-1.621,-1.7755,-1.9234,-2.0545,-1.9572,-1.7942,-1.5828,-1.3459,-1.0723,0.0,0.0,0.0,0.0,0.0,0.0,0.0,0.0,0.0,0.0,0.0,0.0,0.0,0.0,0.0,0.0,0.0,0.0,0.0,0.0,0.0,0.0,0.0,0.0,0.0,0.0,0.0,0.0,0.0,0.0,0.0,0.0,0.0,0.0,0.0,0.0,0.0,0.0,0.0,0.0,0.0,0.0,-0.9234,-0.9653,0.0,0.0,0.0,-0.8403,-0.8117,0.0,0.0,0.0,0.0,0.0,0.0,0.0,0.0,0.0,0.0,0.0,0.0,0.0,0.0,0.0,0.0,0.0,0.0,0.0,0.0,0.0,0.0,0.0,0.0,0.0,0.0,0.0,0.0,0.0,0.0,0.0,0.0,0.0,0.0,0.0,0.0,0.0,0.0,0.0,0.0,0.0,0.0,0.0,0.0,0.0,0.0,0.0,0.0,0.0,0.0,0.0,0.0,0.0,0.0,0.0,0.0,0.0,-1.6125,-1.8272,-1.9859,-2.0773,-2.0561,-1.9233,-1.6804,-1.4373,0.0,0.0,0.0,0.0,0.0,0.0,0.0,0.0,0.0,0.0,0.0,0.0,0.0,0.0,0.0,0.0,0.0,0.0,0.0,0.0,0.0,0.0,0.0,0.0,0.0,0.0,0.0,-0.5911,0.0,0.0,0.0,0.0,0.0,0.0,0.0,0.0,0.0,0.0,0.0,0.0,0.0,0.0,-1.2458,-1.145,-1.1818,-1.1646,0.0,0.0,-0.9634,-0.9102,-0.8905,-0.8307,0.0,0.0,0.0,0.0,0.0,0.0,0.0,0.0,0.0,0.0,0.0,0.0,0.0,0.0,0.0,0.0,0.0,0.0,0.0,0.0,0.0,0.0,0.0,0.0,0.0,0.0,0.0,0.0,0.0,0.0,0.0,0.0,0.0,0.0,0.0,0.0,0.0,0.0,0.0,0.0,0.0,0.0,0.0,0.0,0.0,0.0,0.0,0.0,0.0,0.0,0.0,0.0,0.0,0.0,0.0,-1.5986,-1.8941,-2.0805,-2.1425,-2.164,-2.0551,-1.8053,-1.6218,-1.3514,0.0,0.0,0.0,0.0,0.0,0.0,0.0,0.0,0.0,0.0,0.0,0.0,0.0,0.0,0.0,0.0,0.0,0.0,0.0,0.0,0.0,0.0,0.0,0.0,0.0,0.0,0.0,0.0,0.0,0.0,0.0,0.0,0.0,0.0,0.0,0.0,0.0,0.0,0.0,0.0,0.0,-1.3408,-1.3559,-1.3152,-1.2781,0.0,0.0,-1.1141,-1.087,-1.1259,-1.0863,-0.8812,0.0,0.0,0.0,0.0,0.0,0.0,0.0,0.0,0.0,0.0,0.0,0.0,0.0,0.0,0.0,0.0,0.0,0.0,0.0,0.0,0.0,0.0,0.0,0.0,0.0,0.0,0.0,0.0,0.0,0.0,0.0,0.0,0.0,0.0,0.0,0.0,0.0,0.0,0.0,0.0,0.0,0.0,0.0,0.0,0.0,0.0,0.0,0.0,0.0,0.0,0.0,0.0,0.0,-1.5346,-1.6827,-1.8994,-2.0726,-2.1883,-2.088,-1.987,-1.8956,-1.7117,-1.4599,0.0,0.0,0.0,0.0,0.0,0.0,0.0,0.0,0.0,0.0,0.0,0.0,0.0,0.0,0.0,0.0,0.0,0.0,0.0,0.0,0.0,0.0,0.0,0.0,0.0,0.0,0.0,0.0,-0.8489,-0.8866,-0.9449,0.0,0.0,0.0,0.0,0.0,0.0,0.0,0.0,0.0,0.0,-1.5096,-1.5115,-1.4979,0.0,0.0,-1.3338,-1.2618,-1.269,-1.1784,-1.0666,-0.9357,-0.8375,0.0,0.0,0.0,0.0,0.0,0.0,0.0,0.0,0.0,0.0,0.0,0.0,0.0,0.0,0.0,0.0,0.0,0.0,0.0,0.0,0.0,0.0,0.0,0.0,0.0,0.0,0.0,0.0,0.0,0.0,0.0,0.0,0.0,0.0,0.0,0.0,0.0,0.0,0.0,0.0,0.0,0.0,0.0,0.0,0.0,0.0,0.0,0.0,0.0,0.0,0.0,0.0,-1.5695,-1.7462,-1.9598,-2.1236,-2.2357,-2.0455,-1.9535,-1.9628,-1.7917,-1.5679,0.0,0.0,0.0,0.0,0.0,0.0,0.0,0.0,0.0,0.0,0.0,0.0,0.0,0.0,0.0,0.0,0.0,0.0,0.0,0.0,0.0,0.0,0.0,0.0,0.0,0.0,0.0,0.0,-0.9524,-0.9719,-1.0059,0.0,0.0,0.0,0.0,0.0,0.0,0.0,0.0,0.0,0.0,-1.6374,-1.6513,-1.6355,-1.6106,-1.5685,-1.4509,-1.3716,-1.3776,-1.2617,-1.1347,-1.0552,0.0,0.0,0.0,0.0,0.0,0.0,0.0,0.0,0.0,0.0,0.0,0.0,0.0,0.0,0.0,0.0,0.0,0.0,0.0,0.0,0.0,0.0,0.0,0.0,0.0,0.0,0.0,0.0,0.0,0.0,-1.0189,0.0,0.0,0.0,0.0,0.0,0.0,0.0,0.0,0.0,0.0,0.0,0.0,0.0,0.0,0.0,0.0,0.0,0.0,0.0,0.0,0.0,0.0,-1.5936,-1.7619,-2.0958,-2.2668,-2.2588,-2.0778,-1.9948,-2.0046,-1.8774,-1.6931,-1.4472,0.0,0.0,0.0,0.0,0.0,0.0,0.0,0.0,0.0,0.0,0.0,0.0,0.0,0.0,0.0,0.0,0.0,0.0,0.0,0.0,0.0,0.0,0.0,0.0,0.0,0.0,-1.0256,-0.9908,-0.9648,0.0,0.0,0.0,0.0,0.0,0.0,0.0,0.0,0.0,0.0,-1.6101,-1.7021,-1.7794,-1.7189,-1.6609,-1.6567,-1.5411,-1.4375,-1.4214,-1.4016,-1.3702,0.0,0.0,0.0,0.0,0.0,0.0,0.0,0.0,0.0,0.0,0.0,0.0,0.0,0.0,0.0,0.0,0.0,0.0,0.0,0.0,0.0,0.0,0.0,0.0,0.0,0.0,0.0,-1.1699,-1.1384,0.0,0.0,0.0,0.0,0.0,0.0,0.0,0.0,0.0,0.0,0.0,-1.4547,-1.5491,0.0,0.0,0.0,0.0,0.0,0.0,0.0,0.0,0.0,0.0,0.0,0.0,-1.6528,-1.9335,-2.165,-2.3055,-2.3563,-2.329,-2.229,-2.0559,-1.9484,-1.7422,-1.4264,0.0,0.0,0.0,0.0,0.0,0.0,0.0,0.0,0.0,0.0,0.0,0.0,0.0,0.0,0.0,0.0,0.0,0.0,0.0,0.0,0.0,0.0,0.0,0.0,0.0,-1.008,0.0,0.0,0.0,0.0,0.0,0.0,0.0,0.0,0.0,0.0,0.0,-1.4834,-1.6123,-1.6797,-1.7373,-1.793,-1.7725,-1.751,0.0,0.0,0.0,0.0,0.0,0.0,0.0,0.0,0.0,0.0,0.0,0.0,0.0,0.0,-0.7927,-0.5004,-0.4409,-0.4021,-0.2875,0.0,0.0,0.0,0.0,0.0,0.0,0.0,0.0,0.0,0.0,0.0,0.0,0.0,0.0,-1.2264,0.0,-1.2421,0.0,0.0,0.0,0.0,0.0,0.0,0.0,0.0,-1.6472,-1.6924,-1.6554,-1.7508,-1.7524,0.0,-1.6836,-1.6221,0.0,0.0,0.0,0.0,0.0,0.0,0.0,0.0,-1.7617,-2.0656,-2.2084,-2.3347,-2.4466,-2.4817,-2.389,-2.1643,-2.0116,-1.7973,-1.5108,-1.3624,-1.2383,0.0,0.0,0.0,0.0,0.0,0.0,0.0,0.0,0.0,0.0,0.0,0.0,0.0,0.0,0.0,0.0,0.0,0.0,0.0,0.0,0.0,0.0,0.0,-1.1047,0.0,0.0,0.0,0.0,0.0,0.0,0.0,0.0,0.0,-1.4622,-1.5587,-1.6681,-1.7523,-1.7861,-1.8068,-1.8174,0.0,0.0,0.0,0.0,0.0,0.0,0.0,-1.5393,-1.5593,-1.4901,-1.4184,-1.378,-1.3729,-1.3089,-1.1286,0.0,0.0,-0.7232,-0.6529,-0.6099,-0.4963,-0.455,-0.4356,-0.4356,-0.4196,-0.3787,0.0,0.0,0.0,0.0,0.0,0.0,0.0,0.0,-1.1347,-1.1831,0.0,-1.2774,0.0,0.0,0.0,0.0,0.0,0.0,0.0,0.0,-1.9688,-2.0465,-1.9775,-2.0532,-2.06,-1.9898,-1.9978,-1.9653,-1.8815,-1.6576,0.0,0.0,0.0,0.0,0.0,0.0,-1.9173,-2.1578,-2.2417,-2.3605,-2.5216,-2.5288,-2.4613,-2.3126,-2.073,-1.8654,-1.6972,-1.5506,-1.3908,-1.205,-1.069,0.0,0.0,0.0,0.0,0.0,0.0,0.0,0.0,0.0,0.0,0.0,0.0,0.0,0.0,0.0,0.0,0.0,0.0,0.0,0.0,-1.1947,0.0,0.0,0.0,0.0,0.0,0.0,0.0,0.0,0.0,0.0,-1.6672,-1.8103,-1.9321,-1.9293,0.0,0.0,0.0,0.0,-1.8164,-1.8594,-1.8301,-1.8184,-1.8523,-1.8553,-1.8407,-1.8047,0.0,0.0,-1.4713,-1.4855,-1.4738,-1.3278,-1.3319,-1.2832,-0.9841,-0.8981,-0.8565,-0.8405,-0.7667,-0.7168,-0.7039,-0.6257,-0.5522,-1.2237,0.0,0.0,0.0,0.0,-1.0508,-1.1362,-1.2733,-1.3289,-1.337,-1.3167,-1.3811,0.0,0.0,0.0,0.0,0.0,0.0,-1.7278,-1.9289,-1.936,-1.96,-2.0067,-1.9845,-1.9629,-1.9439,-2.0299,-2.0614,-2.0427,-2.0403,-1.8545,-1.4911,0.0,0.0,0.0,0.0,-2.0088,-2.2497,-2.2763,-2.3642,-2.5332,-2.5329,-2.4436,-2.2667,-2.1009,-1.9344,-1.7674,-1.6722,-1.5271,-1.329,-1.2153,0.0,0.0,0.0,0.0,0.0,0.0,0.0,0.0,0.0,0.0,0.0,0.0,0.0,0.0,0.0,0.0,0.0,0.0,0.0,-1.1789,-1.2985,-1.3519,0.0,0.0,0.0,0.0,0.0,0.0,0.0,0.0,0.0,-2.0807,-2.0143,-1.9873,0.0,0.0,-1.9333,-1.9507,-1.8674,-1.8262,-1.8994,0.0,0.0,0.0,-1.8838,-1.8701,-1.8887,-1.8807,-1.8212,-1.6634,-1.6501,-1.6191,-1.48,-1.467,-1.4474,-1.3558,-1.1546,-0.9856,-0.8927,-0.8584,-0.8265,-0.7559,-0.7265,-0.6712,-1.3338,-1.2735,-1.164,-1.1387,-1.1668,-1.1719,-1.2512,-1.3708,-1.3795,-1.3875,-1.3956,-1.4319,-1.392,-1.3021,-1.3797,0.0,0.0,0.0,-1.877,-2.0873,-2.0269,-2.0321,-2.0867,-2.0497,-2.0192,-2.0076,-2.0822,-2.1423,-2.1915,-2.2224,-2.0937,-1.8178,0.0,0.0,-1.8702,-2.0039,-2.1671,-2.3491,-2.3833,-2.4424,-2.5367,-2.5252,-2.4535,-2.318,-2.1732,-2.0257,-1.8762,-1.7441,-1.601,-1.4515,-1.3398,-1.2171,0.0,0.0,0.0,0.0,0.0,0.0,0.0,0.0,0.0,0.0,0.0,-0.7898,-0.6738,0.0,0.0,0.0,-0.9852,-1.1344,-1.3534,-1.4349,0.0,0.0,0.0,0.0,0.0,0.0,0.0,-1.9597,-2.1572,-2.2918,-2.288,-2.2401,-2.1982,-2.178,-2.0937,-2.0446,-2.0698,0.0,-1.9042,-1.9818,-1.9479,-1.9228,-1.9492,-1.9463,-1.9443,-1.9512,-1.9531,-1.9228,-1.8234,-1.7884,-1.7314,-1.6297,-1.5831,-1.5649,-1.5226,-1.3622,-1.2094,-1.0985,-1.022,-0.9522,-0.8936,-0.8303,-0.7391,-1.3693,-1.4494,-1.3668,-1.3228,-1.3077,-1.3088,-1.3408,-1.3853,-1.3249,-1.3593,-1.4522,-1.4379,-1.4363,-1.4511,-1.5268,0.0,0.0,-1.9499,-2.0517,-2.2053,-2.196,-2.1942,-2.1965,-2.1877,-2.1661,-2.1213,-2.1442,-2.2115,-2.3143,-2.2645,-2.2463,-2.2658,-2.213,-2.1878,-2.194,-2.2767,-2.361,-2.4413,-2.5232,-2.5601,-2.5408,-2.5138,-2.4758,-2.419,-2.2694,-2.1223,-1.9923,-1.7824,-1.6383,-1.5664,-1.4457,-1.3353,-1.2358,0.0,0.0,0.0,0.0,0.0,0.0,0.0,0.0,0.0,0.0,0.0,0.0,0.0,0.0,0.0,-1.2622,0.0,-1.5555,-1.5768,0.0,0.0,0.0,-1.8329,-1.8442,-1.9862,-2.0794,-2.0844,0.0,0.0,-2.3572,0.0,-2.5013,-2.391,-2.2739,-2.2044,-2.2105,-2.0751,-2.0048,-2.0747,-2.0293,-1.9873,-1.9951,-2.0244,-2.0332,-2.0019,-1.9961,-1.9814,-1.9331,-1.8922,-1.8295,-1.7449,-1.6988,-1.6498,-1.5587,-1.5359,-1.5013,-1.406,-1.2391,-1.1001,-1.0622,-0.9352,-0.8161,-1.3933,-1.3384,-1.4071,-1.3845,-1.304,-1.304,-1.3107,-1.3219,-1.3043,-1.3454,-1.4149,-1.441,-1.5332,-1.6736,-1.7281,-1.8467,-2.0146,-2.0254,-2.1087,-2.2442,-2.173,-2.1497,-2.1673,-2.1086,-2.0703,-2.0673,-2.1472,-2.2162,-2.2698,-2.329,-2.3822,-2.4223,-2.4217,-2.37,-2.2789,-2.3578,-2.4464,-2.537,-2.5593,-2.5639,-2.5488,-2.5211,-2.4568,-2.3498,-2.2667,-2.1263,-1.9178,-1.8156,-1.7101,-1.6114,-1.5228,-1.4598,-1.4242,-1.2354,0.0,0.0,0.0,0.0,0.0,0.0,0.0,0.0,0.0,-1.1771,-0.9145,0.0,-1.296,0.0,-1.4187,-1.5279,-1.5668,-1.6459,0.0,0.0,-1.8668,-1.9334,-2.0564,-2.1054,-2.1468,-2.187,-2.3205,-2.4313,-2.4872,-2.5188,-2.5308,-2.4943,-2.3695,-2.2812,-2.2866,-2.0963,-2.0002,-2.122,-2.0424,-1.9678,-2.0273,-2.0488,-2.0605,-2.042,-2.04,-2.0264,-1.9834,-1.9424,-1.8961,-1.8408,-1.7935,-1.7608,-1.7295,-1.6784,-1.621,-1.5852,-1.4363,-1.2558,-1.1156,-1.0409,-0.989,-1.3501,-1.2964,-1.3616,-1.3531,-1.2968,-1.3258,-1.3346,-1.3346,-1.3057,-1.3323,-1.3955,-1.4909,-1.6086,-1.745,-1.8336,-1.9452,-2.0689,-2.0914,-2.1535,-2.2466,-2.1936,-2.1776,-2.1893,-2.1447,-2.1318,-2.151,-2.2045,-2.2447,-2.2722,-2.3469,-2.4118,-2.4576,-2.4804,-2.4607,-2.4119,-2.4577,-2.5115,-2.5684,-2.5673,-2.5632,-2.5566,-2.535,-2.4639,-2.3417,-2.25,-2.1182,-1.9317,-1.8071,-1.7039,-1.6235,-1.5521,-1.4811,-1.4119,-1.3991,-1.3109,0.0,0.0,0.0,0.0,0.0,0.0,0.0,0.0,0.0,0.0,0.0,-1.4425,-1.4337,-1.5618,-1.6735,-1.7451,-1.8103,-1.8907,-2.0012,-2.0338,-2.0853,-2.1757,-2.2071,-2.2334,-2.2648,-2.3636,-2.4458,-2.4878,-2.5453,-2.5772,-2.5467,-2.4627,-2.394,-2.3521,-2.2082,-2.1305,-2.1858,-2.1125,-2.0497,-2.0663,-2.0576,-2.0576,-2.0576,-2.0576,-2.042,-1.999,-1.957,-1.915,-1.864,-1.8301,-1.8008,-1.794,-1.7207,-1.6636,-1.6349,-1.5013,-1.3448,-1.2345,-1.1452,-1.0565,-1.2891,-1.2891,-1.2891,-1.2891,-1.2929,-1.3467,-1.3684,-1.3637,-1.3152,-1.3286,-1.4018,-1.5553,-1.6663,-1.7455,-1.8762,-1.9919,-2.0926,-2.1259,-2.1705,-2.2209,-2.2209,-2.2237,-2.2327,-2.2327,-2.2504,-2.2825,-2.2695,-2.271,-2.2847,-2.3365,-2.3848,-2.4256,-2.4629,-2.4986,-2.5356,-2.544,-2.5558,-2.5684,-2.5637,-2.5627,-2.5703,-2.5522,-2.4799,-2.3541,-2.2299,-2.1035,-1.9694,-1.7994,-1.6905,-1.6555,-1.5996,-1.5088,-1.3855,-1.5889,-1.5956,0.0,-1.4546,0.0,0.0,0.0,0.0,0.0,0.0,0.0,0.0,-1.4953,-1.5567,-1.5982,-1.7036,-1.8267,-1.9685,-1.9874,-2.0363,-2.1468,-2.202,-2.2347,-2.2422,-2.2849,-2.3125,-2.3125,-2.3708,-2.4176,-2.435,-2.5467,-2.596,-2.5453,-2.5175,-2.4798,-2.416,-2.3466,-2.2814,-2.2298,-2.2129,-2.149,-2.0681,-2.0459,-2.0439,-2.041,-2.0342,-2.0264,-1.9883,-1.9463,-1.9062,-1.863,-1.8291,-1.8018,-1.8008,-1.7217,-1.6706,-1.6784,-1.5163,-1.3745,-1.3448,-1.2271,-1.1087,-1.2891,-1.2891,-1.2891,-1.2891,-1.2929,-1.3017,-1.3055,-1.3065,-1.292,-1.3525,-1.4595,-1.5837,-1.6965,-1.7965,-1.8705,-1.9531,-2.0416,-2.0516,-2.0975,-2.1735,-2.1735,-2.1928,-2.2282,-2.2327,-2.2338,-2.2422,-2.2405,-2.2371,-2.2408,-2.3012,-2.3559,-2.4082,-2.4567,-2.4917,-2.5168,0.0,0.0,0.0,-2.5703,-2.5683,-2.5702,-2.5603,-2.4719,-2.303,-2.235,0.0,-1.911,-1.8616,-1.8406,-1.8387,-1.8316,0.0,0.0,0.0,0.0,0.0,0.0,0.0,0.0,0.0,0.0,0.0,-1.5235,-1.5078,-1.4865,-1.6873,-1.8103,-1.7802,-1.8706,-1.9459,-1.9761,-2.0225,-2.0953,-2.2008,-2.2246,-2.2485,-2.2912,-2.3015,-2.3125,-2.3125,-2.3245,-2.359,-2.4176,-2.4567,-2.4908,-2.5245,-2.4908,-2.4434,-2.4275,-2.3443,-2.3114,-2.3569,-2.271,-2.1515,-2.023,-2.0059,-1.9961,-1.9648,-1.9531,-1.9512,-1.9404,-1.9062,-1.8769,-1.8543,-1.8301,-1.8008,-1.8008,-1.7217,-1.6775,-1.7569,-1.5587,-1.3673,-1.3673,-1.2799,-1.2003,-1.2891,0.0,-1.2891,-1.2891,0.0,-1.2891,-1.2891,-1.2891,-1.2891,-1.3573,-1.4744,-1.5584,-1.6722,-1.8145,-1.865,-1.9434,-2.0314,-2.0299,-2.0667,-2.1275,-2.1323,-2.1399,-2.1661,-2.1869,-2.207,-2.2295,-2.2321,-2.2309,-2.2337,-2.2912,-2.3388,-2.3757,-2.4449,-2.4885,-2.5067,-2.5306,-2.5522,-2.5697,-2.5703,-2.5703,-2.5703,-2.5634,-2.4888,-2.345,0.0,0.0,0.0,0.0,0.0,0.0,0.0,0.0,0.0,0.0,0.0,-1.8983,-1.8233,-1.7532,-1.7001,-1.6636,-1.6567,-1.6837,-1.6886,-1.6697,-1.62,-1.7903,-1.8907,-1.8668,-1.9346,-2.0037,-2.0577,-2.0891,-2.1518,-2.2548,-2.2711,-2.2849,-2.3075,-2.3125,-2.3125,-2.3125,-2.3125,-2.3245,-2.3649,-2.4118,-2.4394,-2.4781,-2.458,-2.4279,-2.4216,-2.3773,-2.3446,-2.341,-2.2262,-2.0984,-2.0161,-1.9902,-1.9766,-1.9404,-1.9277,-1.9189,-1.8994,-1.8779,-1.8574,-1.8379,-1.8144,-1.8008,-1.7872,-1.6862,-1.6219,-1.6853,-1.5376,-1.3818,-1.3673,-1.2952,-1.2305,-1.2891,-1.2891,-1.2891,-1.2891,-1.2891,-1.2891,-1.2891,-1.2891,0.0,0.0,0.0,-1.5184,-1.6371,-1.8092,-1.8574,-1.9273,-2.0177,-2.0193,-2.0449,-2.0862,-2.0846,-2.0926,-2.1023,-2.1399,-2.1853,-2.2272,-2.2303,-2.2327,-2.2338,-2.2908,-2.3275,-2.353,-2.4364,-2.491,-2.5064,-2.5369,-2.5559,-2.5659,-2.5701,-2.5703,-2.5703,-2.5638,-2.5113,-2.4088,-2.3788,-2.3072,-2.1768,-2.1087,-2.0433,-1.9817,-1.9391,-1.8974,-1.8637,-1.935,-1.9894,-2.0147,-2.0231,-2.0158,-1.9803,-1.9229,-1.8669,-1.8164,-1.8252,-1.8109,-1.7609,-1.8543,-1.9171,-1.9171,-1.956,-2.0275,-2.1368,-2.1481,-2.1933,-2.3012,-2.3125,-2.3125,-2.3125,-2.3125,-2.3125,-2.3125,-2.3125,-2.3125,-2.3125,-2.3662,-2.4176,-2.4234,-2.4176,-2.4118,-2.4093,-2.3887,-2.3453,-2.2693,-2.1629,-2.0559,-1.9805,-1.9639,-1.9521,-1.9072,-1.9014,-1.8926,-1.8643,-1.8525,-1.8389,-1.8105,-1.8008,-1.8008,-1.7872,-1.6724,-1.579,-1.6428,-1.5226,-1.3954,-1.3882,-1.3339,-1.2642,-1.2891,-1.2891,-1.2891,-1.2891,-1.2891,-1.2891,-1.2891,-1.2891,-1.2891,-1.3573,-1.4709,-1.4778,-1.6009,-1.8092,-1.8171,-1.8803,-1.9782,-1.9782,-2.0,0.0,-2.0416,-2.0616,-2.1023,-2.1399,-2.1853,-2.2285,-2.2303,-2.2327,-2.2377,-2.2908,-2.3194,-2.3361,-2.4279,-2.4986,-2.534,-2.5465,-2.5539,-2.562,-2.5662,-2.5703,-2.5703,-2.5703,-2.5223,-2.4306,-2.4057,-2.3285,-2.1954,-2.2243,-2.208,-2.1346,-2.1806,-2.1969,-2.1686,-2.1379,-2.1497,-2.1845,-2.0893,-2.028,-2.0212,-1.9383,-1.8697,-1.8265,-1.8621,-1.8642,-1.8176,-1.907,-1.9698,-1.9698,-1.9761,-2.0263,-2.1317,-2.1481,-2.1875,-2.289,-2.3065,-2.3065,-2.3065,-2.3065,-2.3125,-2.3125,-2.3125,-2.3125,-2.3125,-2.3245,-2.3603,-2.4002,-2.378,-2.3305,-2.3384,-2.335,-2.3015,-2.2308,-2.165,-2.0627,-1.9318,-1.8828,-1.8711,-1.8262,-1.8311,-1.8331,-1.8174,-1.8154,-1.8115,-1.8027,-1.8008,-1.8008,-1.8008,-1.7148,-1.6498,-1.6567,-1.5649,-1.5021,-1.4863,-1.4433,-1.3669,-1.2891,-1.2891,-1.2891,-1.2891,-1.2891,-1.2891,-1.2891,-1.2891,-1.2891,-1.3563,-1.4663,-1.4709,-1.5978,-1.8013,-1.8092,-1.8688,-1.9705,-1.9705,-1.9818,-1.998,-1.9949,-2.007,-2.0296,-2.0731,-2.1231,-2.1773,-2.188,-2.2061,-2.2321,-2.2908,-2.3189,-2.3264,-2.4262,-2.4981,-2.5309,-2.5434,-2.5503,-2.5551,-2.5638,-2.5703,-2.5703,-2.5703,-2.544,-2.4972,-2.4865,-2.4403,-2.3512,-2.3566,-2.3268,-2.2476,-2.2588,-2.2573,-2.231,-2.2089,-2.2078,-2.2272,-2.15,-2.0797,-2.0314,-1.9434,-1.8818,-1.86,-1.8826,-1.8916,-1.8631,-1.9346,-1.9798,-1.9798,-1.9798,-2.0275,-2.1355,-2.1075,-2.1262,-2.2335,-2.2445,-2.2445,-2.2506,-2.2884,-2.3125,-2.3125,-2.3125,-2.3125,-2.3125,-2.3125,-2.3198,-2.3531,-2.3245,-2.3125,-2.3078,-2.2953,-2.2577,-2.1677,-2.0815,-1.9909,-1.8821,-1.9034,-1.8923,-1.8144,-1.8395,-1.8462,-1.8134,-1.8008,-1.8008,-1.8008,-1.8008,-1.8008,-1.8008,-1.7285,-1.6706,-1.6558,-1.6349,-1.586,-1.5317,-1.4734,-1.3831,-1.2891,-1.2891,-1.2891,-1.2891,-1.2891,-1.2891,-1.2891,-1.2891,-1.2891,-1.3573,-1.4606,-1.4709,-1.5978,-1.7973,-1.8092,-1.8688,-1.9617,-1.9705,-1.9705,-1.9705,-1.9705,-1.9705,-1.9762,-2.0139,-2.0662,-2.1263,-2.1495,-2.1853,-2.2304,-2.2908,-2.3333,-2.3623,-2.44,-2.4956,-2.5312,-2.5441,-2.5517,-2.5535,-2.5636,-2.5703,-2.5703,-2.5703,-2.5636,-2.5522,-2.5513,-2.5271,-2.4828,-2.4561,-2.4081,-2.3374,-2.2996,-2.266,-2.2347,-2.2304,-2.2298,-2.2245,-2.185,-2.1228,-2.0382,-1.9786,-1.9353,-1.9127,-1.9324,-1.9342,-1.9245,-1.956,-1.9798,-1.9798,-1.9798,-2.021,-2.0897,-2.064,-2.0594,-2.1451,-2.1628,-2.1616,-2.169,-2.231,-2.2823,-2.2811,-2.2823,-2.2823,-2.2823,-2.2823,-2.2884,-2.3078,-2.3125,-2.3125,-2.3055,-2.2686,-2.204,-2.1174,-2.0153,-1.9282,-1.8724,-1.914,-1.9124,-1.8163,-1.8921,-1.911,-1.8654,-1.8337,-1.8337,-1.8337,-1.8144,-1.8008,-1.794,-1.7501,-1.6932,-1.6715,-1.6715,-1.6651,-1.5833,-1.5026,-1.3999,-1.2891,-1.2891,-1.2891,-1.2891,-1.2891,-1.2891,-1.2891,-1.2929,-1.2939,-1.3573,-1.4663,-1.4709,-1.5935,-1.7933,-1.8092,-1.8703,-1.9654,-1.969,-1.9705,-1.9705,-1.9705,-1.9705,-1.9762,-2.0139,-2.0565,-2.1055,-2.1415,-2.184,-2.2321,-2.289,-2.3689,-2.4551,-2.4756,-2.4998,-2.5329,-2.5471,-2.5535,-2.5598,-2.5661,-2.5703,-2.5703,-2.5703,-2.5634,-2.5517,-2.5513,-2.5271,-2.4842,-2.479,-2.4402,-2.3717,-2.3346,-2.2884,-2.2367,-2.2324,-2.2299,-2.2288,-2.1857,-2.1228,-2.0447,-2.0817,-2.0631,-1.9891,-2.0237,-2.0315,-1.9788,-1.9761,-1.9798,-1.9798,-1.9798,-1.9892,-2.0244,-2.0169,-2.0238,-2.0635,-2.0719,-2.0719,-2.0782,-2.1491,-2.2002,-2.2013,-2.199,-2.2013,-2.2002,-2.2125,-2.2372,-2.3017,-2.3185,-2.3185,-2.3078,-2.258,-2.1769,-2.0899,-2.0154,-1.9366,-1.8536,-1.8792,-1.8983,-1.8405,-1.9431,-1.9879,-1.9497,-1.9177,-1.9166,-1.911,-1.8479,-1.8075,-1.8017,-1.7862,-1.756,-1.7005,-1.7173,-1.7552,-1.6701,-1.5891,-1.4655,-1.2908,-1.2891,-1.2891,-1.2891,-1.2891,-1.2891,-1.2891,-1.292,-1.3286,-1.392,-1.4698,-1.5062,-1.612,-1.7626,-1.7947,-1.8535,-1.9244,-1.9581,-1.9705,-1.9705,-1.9705,-1.9705,-1.9762,-2.0124,-2.0534,-2.0991,-2.1399,-2.1869,-2.2332,-2.2908,-2.3751,-2.4697,-2.4804,-2.4981,-2.5339,-2.5401,-2.5463,-2.5547,-2.5605,-2.5641,-2.5703,-2.5703,-2.5659,-2.5564,-2.5511,-2.5337,-2.5004,-2.4872,-2.4519,-2.3946,-2.3617,-2.3106,-2.2349,-2.247,-2.2446,-2.2293,-2.1853,-2.143,-2.1086,-2.0834,-2.0734,-2.0732,-2.0412,-2.0199,-2.0343,-2.0055,-1.9798,-1.9747,-1.9423,-1.9426,-1.9991,-1.9338,-1.9076,-1.9663,-1.9814,-1.9814,-1.989,-2.059,-2.1101,-2.1112,-2.1101,-2.1175,-2.129,-2.1954,-2.264,-2.3113,-2.3484,-2.3662,-2.3198,-2.2823,-2.2051,-2.0921,-2.0445,-1.9687,-1.8492,-1.9243,-1.9497,-1.9299,-2.0204,-2.1037,-2.0333,-2.0074,-2.0074,-2.0074,-1.9089,-1.843,-1.8359,-1.7883,-1.7503,-1.7149,-1.7111,-1.7373,-1.6514,-1.6071,-1.512,-1.2931,-1.2919,-1.292,-1.2891,-1.2891,-1.2891,-1.2891,-1.2968,-1.3552,-1.4143,-1.4744,-1.532,-1.6157,-1.7063,-1.7626,-1.8249,-1.8893,-1.9281,-1.9566,-1.969,-1.9705,-1.9705,-1.9747,-2.0124,-2.055,-2.0991,-2.1415,-2.1907,-2.2517,-2.294,-2.371,-2.4586,-2.4775,-2.4936,-2.5214,-2.5335,-2.5421,-2.5482,-2.5543,-2.5583,-2.5664,-2.5662,-2.5644,-2.5603,-2.5524,-2.5383,-2.5111,-2.4936,-2.4625,-2.4137,-2.3906,-2.3494,-2.2874,-2.2762,-2.2573,-2.2321,-2.1974,-2.1735,-2.1628,-2.1343,-2.1279,-2.1371,-2.0967,-2.0771,-2.0731,-2.0359,-2.0003,-1.9747,-1.915,-1.9088,-1.9506,-1.8632,-1.8197,-1.8843,-1.8988,-1.8911,-1.8977,-1.9683,-2.0204,-2.0268,-2.0268,-2.044,-2.0991,-2.2078,-2.3144,-2.3741,-2.406,-2.4176,-2.3543,-2.3245,-2.2567,-2.1239,-2.0974,-2.015,-1.8596,-1.9431,-2.002,-2.0074,-2.0771,-2.1939,-2.1175,-2.0974,-2.0762,-2.0551,-1.958,-1.8733,-1.8259,-1.7748,-1.7352,-1.7268,-1.7184,-1.6953,-1.6279,-1.6103,-1.5568,-1.2893,-1.2938,-1.2919,-1.2891,-1.2891,-1.2891,-1.2891,-1.292,-1.3552,-1.4143,-1.4744,-1.5365,-1.5952,-1.6595,-1.7105,-1.7894,-1.8779,-1.893,-1.9207,-1.9654,-1.969,-1.9705,-1.9726,-2.0124,-2.0534,-2.0991,-2.1477,-2.213,-2.3045,-2.3165,-2.3642,-2.4476,-2.4685,-2.485,-2.5046,-2.5263,-2.5398,-2.5415,-2.5463,-2.5543,-2.5598,-2.5603,-2.5603,-2.559,-2.5524,-2.5383,-2.5139,-2.5042,-2.4831,-2.4493,-2.4174,-2.3999,-2.3981,-2.3217,-2.2599,-2.236,-2.2265,-2.2061,-2.1867,-2.2653,-2.2847,-2.187,-2.2423,-2.2582,-2.1218,-2.0832,-2.0547,-1.9914,-1.9242,-1.8912,-1.903,-1.8365,-1.782,-1.8014,-1.8114,-1.8114,-1.8144,-1.8844,-1.9299,-1.9365,-1.9431,-2.0106,-2.1424,-2.242,-2.3651,-2.457,-2.4724,-2.4279,-2.4118,-2.3603,-2.2811,-2.2063,-2.1565,-2.0974,-1.8787,-1.9694,-2.0215,-2.0333,-2.1416,-2.2763,-2.2249,-2.1756,-2.1483,-2.1016,-2.0057,-1.9188,-1.8224,-1.7667,-1.7317,-1.7069,-1.6825,-1.6455,-1.5996,-1.6096,-1.56,-1.3381,-1.2899,-1.293,-1.2891,-1.2891,-1.2891,-1.2891,-1.3017,-1.3967,-1.4479,-1.4835,-1.5732,-1.6281,-1.6509,-1.671,-1.7188,-1.7907,-1.8574,-1.9006,-1.9244,-1.953,-1.9705,-1.9782,-2.0398,-2.0813,-2.1071,-2.1721,-2.232,-2.2848,-2.3093,-2.3534,-2.4118,-2.4456,-2.4723,-2.4955,-2.5094,-2.5226,-2.5379,-2.5428,-2.5457,-2.5539,-2.557,-2.5611,-2.5604,-2.5551,-2.5468,-2.5357,-2.5129,-2.493,-2.4818,-2.4484,-2.4229,-2.4036,-2.341,-2.2972,-2.2883,-2.2652,-2.2493,-2.2371,-2.2762,-2.3063,-2.2952,-2.2845,-2.2916,-2.2448,-2.1824,-2.128,-2.089,-1.9978,-1.9495,-1.9388,-1.8375,-1.7503,-1.7599,-1.7617,-1.7734,-1.8007,-1.8269,-1.8462,-1.8529,-1.8911,-1.9966,-2.144,-2.2852,-2.4147,-2.5148,-2.5563,-2.5217,-2.4509,-2.4002,-2.3399,-2.231,-2.1889,-2.1428,-2.0063,-2.0655,-2.1365,-2.1491,-2.2125,-2.275,-2.2689,-2.2236,-2.1858,-2.1484,-2.0653,-1.9657,-1.8686,-1.7641,-1.728,-1.6648,-1.6412,-1.6133,-1.5732,-1.5762,-1.5516,-1.3388,-1.2939,-1.2891,-1.2891,-1.2891,-1.2891,-1.2891,-1.3027,-1.3967,-1.4525,-1.488,-1.5788,-1.6293,-1.6479,-1.6534,-1.6667,-1.7105,-1.7987,-1.8574,-1.8945,-1.9281,-1.953,-1.9818,-2.0599,-2.1007,-2.1134,-2.1886,-2.2453,-2.2712,-2.2923,-2.3356,-2.3888,-2.421,-2.4503,-2.4785,-2.4898,-2.505,-2.5235,-2.5271,-2.5298,-2.5451,-2.5498,-2.5538,-2.5568,-2.5539,-2.5508,-2.5493,-2.5249,-2.5102,-2.4998,-2.4795,-2.4468,-2.4007,-2.3599,-2.3323,-2.3189,-2.2996,-2.2797,-2.279,-2.3158,-2.3529,-2.3704,-2.3724,-2.3767,-2.3712,-2.2848,-2.2275,-2.1796,-2.1046,-2.0436,-2.01,-1.8948,-1.7889,-1.761,-1.7416,-1.748,-1.7764,-1.793,-1.7998,-1.8182,-1.8889,-2.0109,-2.1535,-2.2994,-2.4354,-2.5579,-2.6074,-2.5678,-2.491,-2.4394,-2.3872,-2.2616,-2.2384,-2.2125,-2.153,-2.1916,-2.1939,-2.2002,-2.231,-2.2884,-2.2949,-2.256,-2.2113,-2.1806,-2.1107,-2.0134,-1.9025,-1.7887,-1.708,-1.6336,-1.5959,-1.5742,-1.5547,-1.5459,-1.5313,-1.2913,-1.29,-1.2891,-1.2891,-1.2891,-1.2891,-1.2891,-1.3027,-1.3552,-1.4154,-1.4652,-1.532,-1.592,-1.6337,-1.638,-1.6466,-1.668,-1.716,-1.7867,-1.8688,-1.8893,-1.9207,-1.9675,-2.0499,-2.0991,-2.1103,-2.1886,-2.2409,-2.266,-2.2746,-2.3093,-2.3613,-2.389,-2.421,-2.4493,-2.4697,-2.485,-2.4979,-2.4969,-2.509,-2.5325,-2.5335,-2.5418,-2.5573,-2.5525,-2.5517,-2.5522,-2.5415,-2.5271,-2.5061,-2.4991,-2.4667,-2.4118,-2.3806,-2.3566,-2.3346,-2.323,-2.3045,-2.2954,-2.4053,-2.4428,-2.4165,-2.5036,-2.5244,-2.4436,-2.3827,-2.3287,-2.279,-2.2126,-2.154,-2.0873,-2.008,-1.9149,-1.8048,-1.761,-1.7431,-1.7593,-1.7754,-1.7988,-1.816,-1.9008,-2.0274,-2.1589,-2.2771,-2.4159,-2.5553,-2.5734,-2.5355,-2.5012,-2.4506,-2.3936,-2.3314,-2.2895,-2.2652,-2.2847,-2.3053,-2.2567,-2.2261,-2.2689,-2.31,-2.2811,-2.246,-2.1882,-2.1475,-2.0924,-1.9924,-1.8698,-1.7645,-1.6935,-1.6246,-1.5886,-1.5508,-1.5459,-1.542,-1.542,-1.2921,-1.2903,-1.292,-1.2891,-1.2891,-1.2891,-1.2891,-1.2978,-1.3552,-1.3909,-1.419,-1.4698,-1.5332,-1.5776,-1.5864,-1.6095,-1.6522,-1.671,-1.7146,-1.7827,-1.8549,-1.8968,-1.9303,-2.0093,-2.0862,-2.1399,-2.2003,-2.2366,-2.2453,-2.2625,-2.293,-2.3328,-2.3656,-2.4042,-2.4461,-2.4559,-2.4666,-2.4836,-2.4892,-2.4962,-2.5128,-2.5249,-2.5363,-2.5511,-2.5542,-2.5566,-2.557,-2.5513,-2.5409,-2.5271,-2.5149,-2.4854,-2.4418,-2.4135,-2.3996,-2.3915,-2.3873,-2.3746,-2.3542,-2.4322,-2.4885,-2.4785,-2.5497,-2.5773,-2.5438,-2.4925,-2.457,-2.4281,-2.3796,-2.3198,-2.2538,-2.1503,-2.0373,-1.8885,-1.7894,-1.7564,-1.8002,-1.7865,-1.7869,-1.8342,-1.8908,-1.991,-2.1181,-2.2351,-2.3444,-2.4846,-2.4719,-2.4385,-2.4515,-2.4092,-2.3672,-2.3301,-2.3218,-2.2993,-2.3043,-2.2976,-2.2722,-2.253,-2.2809,-2.2949,-2.2661,-2.2234,-2.1656,-2.1041,-2.0476,-1.9691,-1.8476,-1.7578,-1.6912,-1.6197,-1.5662,-1.5498,-1.542,-1.542,-1.542,-1.3146,-1.2935,-1.2919,-1.2891,-1.2891,-1.2891,-1.2891,-1.2978,-1.3286,-1.36,-1.3862,-1.419,-1.4687,-1.5231,-1.5499,-1.582,-1.6194,-1.638,-1.668,-1.7146,-1.8092,-1.8688,-1.9014,-1.9963,-2.0814,-2.1552,-2.2061,-2.231,-2.231,-2.2463,-2.2704,-2.3021,-2.3328,-2.372,-2.4174,-2.4338,-2.4495,-2.4666,-2.4653,-2.4758,-2.4984,-2.5177,-2.536,-2.544,-2.5516,-2.5568,-2.5604,-2.5586,-2.5526,-2.5381,-2.5187,-2.4917,-2.462,-2.4428,-2.4303,-2.4226,-2.4182,-2.4021,-2.3815,-2.4449,-2.495,-2.5098,-2.5637,-2.61,-2.611,-2.5799,-2.5486,-2.5411,-2.4909,-2.4443,-2.3994,-2.2966,-2.181,-2.0919,-1.9109,-1.8276,-1.8558,-1.8228,-1.8176,-1.8633,-1.9015,-1.9794,-2.0754,-2.147,-2.2463,-2.3533,-2.3617,-2.3334,-2.3591,-2.3366,-2.3065,-2.2743,-2.2433,-2.2496,-2.2837,-2.284,-2.2774,-2.2767,-2.2915,-2.2774,-2.251,-2.1983,-2.1418,-2.0665,-2.0037,-1.9661,-1.8543,-1.7895,-1.7246,-1.6404,-1.5517,-1.541,-1.542,-1.542,-1.542,-1.3686,-1.3001,-1.2958,-1.2978,-1.3008,-1.2978,-1.2969,-1.2939,-1.2988,-1.3288,-1.3658,-1.3732,-1.4107,-1.4698,-1.5084,-1.541,-1.572,-1.6151,-1.6436,-1.6782,-1.7585,-1.8288,-1.8977,-1.994,-2.0767,-2.1475,-2.2036,-2.2316,-2.231,-2.2338,-2.2436,-2.2746,-2.3093,-2.341,-2.3777,-2.4036,-2.4321,-2.4442,-2.4323,-2.4505,-2.4955,-2.5199,-2.533,-2.5425,-2.5463,-2.5527,-2.5609,-2.5625,-2.559,-2.5408,-2.5138,-2.4911,-2.479,-2.4663,-2.4394,-2.4209,-2.4208,-2.4034,-2.3958,-2.4415,-2.4942,-2.5177,-2.5779,-2.6293,-2.6605,-2.6368,-2.6087,-2.6033,-2.5582,-2.5281,-2.5035,-2.4215,-2.3475,-2.304,-2.0707,-1.9294,-1.8955,-1.8806,-1.8758,-1.8907,-1.9229,-1.9617,-2.0196,-2.0605,-2.1369,-2.2196,-2.2509,-2.238,-2.2524,-2.2351,-2.2094,-2.1924,-2.1774,-2.1865,-2.2182,-2.2273,-2.2176,-2.1897,-2.2067,-2.2014,-2.1926,-2.1455,-2.1029,-2.0288,-1.977,-1.9331,-1.8715,-1.795,-1.7135,-1.6255,-1.57,-1.5526,-1.542,-1.542,-1.5235,-1.4551,-1.3796,-1.3459,-1.3525,-1.373,-1.3486,-1.334,-1.334,-1.333,-1.3244,-1.3222,-1.3162,-1.3505,-1.4061,-1.4226,-1.4721,-1.5398,-1.5776,-1.6107,-1.6552,-1.7146,-1.8013,-1.8858,-1.9602,-2.0348,-2.1134,-2.187,-2.2295,-2.2299,-2.2282,-2.2409,-2.2678,-2.3021,-2.3369,-2.3692,-2.4034,-2.4209,-2.4266,-2.4241,-2.4411,-2.4845,-2.5164,-2.5322,-2.5398,-2.5451,-2.5539,-2.5586,-2.5558,-2.5543,-2.5457,-2.5075,-2.4861,-2.4846,-2.4532,-2.4303,-2.4228,-2.419,-2.417,-2.418,-2.452,-2.5051,-2.5693,-2.6117,-2.6714,-2.7109,-2.7034,-2.6807,-2.659,-2.635,-2.6123,-2.5762,-2.5112,-2.4261,-2.292,-2.1226,-1.9855,-1.9291,-1.8748,-1.8621,-1.9136,-1.9085,-1.9347,-1.9778,-2.0079,-2.041,-2.1007,-2.1062,-2.0862,-2.1158,-2.0898,-2.0422,-2.1196,-2.1285,-2.1388,-2.1493,-2.1657,-2.1494,-2.0933,-2.0876,-2.0917,-2.0785,-2.0573,-2.0235,-1.9836,-1.9668,-1.9307,-1.8447,-1.7633,-1.681,-1.6036,-1.57,-1.542,-1.542,-1.542,-1.4991,-1.5087,-1.4576,-1.399,-1.3906,-1.4048,-1.3824,-1.3769,-1.373,-1.3574,-1.3389,-1.3145,-1.2939,-1.3104,-1.342,-1.3684,-1.4133,-1.4858,-1.5365,-1.5776,-1.6182,-1.6925,-1.7894,-1.8797,-1.945,-2.0039,-2.0732,-2.153,-2.1897,-2.202,-2.218,-2.2388,-2.259,-2.2989,-2.3282,-2.35,-2.3976,-2.4228,-2.4302,-2.4262,-2.4415,-2.4872,-2.516,-2.5302,-2.5371,-2.5453,-2.5531,-2.5566,-2.5548,-2.5498,-2.5383,-2.5107,-2.4883,-2.4865,-2.4582,-2.4303,-2.4209,-2.419,-2.419,-2.4244,-2.4449,-2.4806,-2.5427,-2.6022,-2.657,-2.6965,-2.7152,-2.7147,-2.6987,-2.6825,-2.647,-2.5997,-2.5335,-2.4374,-2.3231,-2.1987,-2.0912,-2.0005,-1.936,-1.9166,-1.9365,-1.9368,-1.9307,-1.9734,-1.9798,-1.9837,-1.9825,-1.9668,-1.9584,-1.9621,-1.9143,-1.9006,-1.9697,-2.0229,-2.0225,-2.0592,-2.0886,-2.0748,-2.0185,-1.9319,-1.9406,-1.972,-1.9597,-1.9466,-1.9331,-1.9319,-1.898,-1.7961,-1.7146,-1.6528,-1.5921,-1.5584,-1.542,-1.542,-1.5148,-1.4798,-1.5385,-1.5335,-1.4533,-1.4175,-1.4233,-1.4165,-1.4209,-1.4121,-1.3779,-1.3555,-1.3398,-1.3057,-1.2939,-1.2929,-1.342,-1.3721,-1.3946,-1.4949,-1.5543,-1.6039,-1.6756,-1.768,-1.8521,-1.9384,-1.9859,-2.0348,-2.1022,-2.1458,-2.1748,-2.2106,-2.2282,-2.248,-2.2915,-2.3165,-2.3392,-2.3858,-2.4266,-2.4425,-2.4396,-2.4557,-2.4937,-2.5172,-2.5299,-2.5331,-2.5441,-2.5525,-2.5558,-2.5535,-2.5457,-2.5364,-2.5097,-2.4937,-2.485,-2.4698,-2.4339,-2.4096,-2.4037,-2.4094,-2.4151,-2.4185,-2.4456,-2.5005,-2.5628,-2.62,-2.673,-2.7075,-2.7174,-2.7224,-2.6922,-2.647,-2.5835,-2.4989,-2.4225,-2.3493,-2.2934,-2.2142,-2.1224,-2.0346,-1.9901,-1.9798,-1.9798,-1.9798,-1.9798,-1.9747,-1.9631,-1.967,-1.9359,-1.9263,-1.8952,-1.8449,-1.8187,-1.8187,-1.8616,-1.8976,-1.9492,-2.0151,-1.9825,-1.9349,-1.8036,-1.7733,-1.8586,-1.8663,-1.8661,-1.8608,-1.8608,-1.8058,-1.7146,-1.6482,-1.6151,-1.5806,-1.5468,-1.542,-1.54,-1.4926,-1.4513,-1.5428,-1.5321,-1.488,-1.4834,-1.5059,-1.4795,-1.4648,-1.46,-1.4189,-1.3828,-1.3477,-1.3066,-1.29,-1.292,-1.3113,-1.3334,-1.3862,-1.4641,-1.5332,-1.6324,-1.6497,-1.7034,-1.7854,-1.8936,-1.9627,-2.0015,-2.0892,-2.142,-2.1661,-2.202,-2.2327,-2.2377,-2.2832,-2.3189,-2.3282,-2.3816,-2.4303,-2.4495,-2.4601,-2.4771,-2.4967,-2.5201,-2.5302,-2.5312,-2.5434,-2.5514,-2.5531,-2.5517,-2.5376,-2.5109,-2.4937,-2.4851,-2.476,-2.4266,-2.3785,-2.3563,-2.3699,-2.3816,-2.3837,-2.4071,-2.4501,-2.5079,-2.5421,-2.5972,-2.6968,-2.6898,-2.7029,-2.7126,-2.6939,-2.635,-2.5524,-2.4816,-2.4199,-2.3623,-2.3113,-2.2649,-2.2175,-2.1224,-2.0396,-2.0003,-1.985,-1.9798,-1.9798,-1.9798,-1.9683,-1.9527,-1.9359,-1.915,-1.8489,-1.7786,-1.7457,-1.7191,-1.7556,-1.8009,-1.8472,-1.8932,-1.8768,-1.8382,-1.7164,-1.6415,-1.7242,-1.7668,-1.7623,-1.7731,-1.7852,-1.7146,-1.6425,-1.6322,-1.6083,-1.5748,-1.54,-1.5361,-1.5235,-1.4773,-1.4059,-1.542,-1.5391,-1.5166,-1.5215,-1.5361,-1.5176,-1.5068,-1.499,-1.4629,-1.4199,-1.3779,-1.3359,-1.3076,-1.2891,-1.2929,-1.3238,-1.3909,-1.4732,-1.5611,-1.6337,-1.6522,-1.668,-1.7063,-1.8068,-1.8869,-1.9353,-2.0563,-2.1183,-2.1462,-2.1945,-2.2327,-2.2338,-2.2755,-2.3021,-2.3236,-2.3732,-2.4211,-2.4591,-2.4746,-2.491,-2.513,-2.5243,-2.5348,-2.5383,-2.5463,-2.5514,-2.552,-2.5513,-2.529,-2.4996,-2.4842,-2.4813,-2.4698,-2.4097,-2.3446,-2.2944,-2.3223,-2.3562,-2.3732,-2.3876,-2.42,-2.4814,-2.5164,-2.5923,-2.6626,-2.6762,-2.7035,-2.729,-2.7019,-2.628,-2.5297,-2.443,-2.3921,-2.3681,-2.3334,-2.3024,-2.2603,-2.1561,-2.0696,-2.0295,-2.0003,-1.985,-1.9798,-1.9798,-1.9527,-1.9254,-1.9097,-1.8821,-1.7633,-1.6978,-1.6687,-1.6585,-1.6866,-1.7213,-1.749,-1.77,-1.7623,-1.7188,-1.6431,-1.5968,-1.6134,-1.6467,-1.6641,-1.6856,-1.7079,-1.6687,-1.6083,-1.6083,-1.5979,-1.5642,-1.5381,-1.5303,-1.4984,-1.4421,-1.3564,-1.542,-1.542,-1.542,-1.542,-1.542,-1.54,-1.5391,-1.5332,-1.4971,-1.4541,-1.4199,-1.3789,-1.3398,-1.3066,-1.3008,-1.3377,-1.4107,-1.4994,-1.5908,-1.6436,-1.6534,-1.6522,-1.6824,-1.7397,-1.8138,-1.8887,-2.01,-2.0717,-2.1181,-2.1751,-2.2152,-2.2321,-2.2563,-2.2898,-2.323,-2.3566,-2.406,-2.4604,-2.476,-2.4923,-2.5182,-2.5264,-2.5363,-2.5471,-2.5508,-2.5517,-2.5522,-2.5473,-2.5306,-2.4855,-2.4804,-2.476,-2.4556,-2.4024,-2.3265,-2.2415,-2.2857,-2.3165,-2.3432,-2.361,-2.3873,-2.4168,-2.4759,-2.564,-2.6352,-2.6651,-2.7014,-2.7192,-2.7017,-2.5999,-2.5259,-2.4307,-2.3752,-2.3595,-2.3595,-2.3363,-2.277,-2.1799,-2.1224,-2.0696,-2.0346,-2.0144,-1.9901,-1.9798,-1.9359,-1.9032,-1.8874,-1.8447,-1.7313,-1.6652,-1.6585,-1.6631,-1.7034,-1.7523,-1.7852,-1.7146,-1.6978,-1.6652,-1.5921,-1.5642,-1.5526,-1.5748,-1.6083,-1.6197,-1.6197,-1.5921,-1.5748,-1.569,-1.5584,-1.542,-1.5371,-1.5293,-1.4773,-1.4148,-1.3085,-1.542,-1.542,-1.542,-1.542,-1.542,-1.542,-1.542,-1.5342,-1.499,-1.4756,-1.4609,-1.4228,-1.3799,-1.3467,-1.3398,-1.3826,-1.4499,-1.532,-1.5964,-1.6436,-1.6534,-1.6534,-1.6655,-1.714,-1.7796,-1.8408,-1.9385,-2.0244,-2.0911,-2.1477,-2.1928,-2.226,-2.2537,-2.2865,-2.3206,-2.3526,-2.3943,-2.4524,-2.4678,-2.4839,-2.5053,-2.5234,-2.5354,-2.5488,-2.5503,-2.5517,-2.5509,-2.5484,-2.5298,-2.4864,-2.4818,-2.4623,-2.4284,-2.3696,-2.3007,-2.2561,-2.259,-2.2848,-2.2996,-2.3392,-2.3631,-2.3873,-2.4217,-2.5159,-2.6045,-2.6362,-2.6712,-2.7046,-2.6489,-2.5411,-2.5221,-2.4225,-2.3709,-2.3595,-2.3595,-2.3551,-2.3275,-2.2725,-2.1894,-2.1237,-2.0845,-2.0446,-2.0194,-1.9901,-1.9631,-1.9423,-1.9371,-1.8874,-1.795,-1.7413,-1.7246,-1.7302,-1.7468,-1.795,-1.8382,-1.7302,-1.6595,-1.6482,-1.5979,-1.5584,-1.5468,-1.541,-1.5584,-1.5648,-1.5746,-1.5642,-1.5468,-1.541,-1.5342,-1.5293,-1.5273,-1.5196,-1.4261,-1.3332,-1.247,-1.542,-1.542,-1.542,-1.542,-1.542,-1.542,-1.542,-1.5391,-1.5195,-1.498,-1.4775,-1.4541,-1.4102,-1.3652,-1.3506,-1.3926,-1.4764,-1.5688,-1.6194,-1.6479,-1.6534,-1.6534,-1.6497,-1.6909,-1.7464,-1.8074,-1.8854,-1.9687,-2.0618,-2.1306,-2.1688,-2.194,-2.2309,-2.273,-2.3135,-2.3346,-2.3844,-2.4336,-2.4516,-2.4666,-2.4979,-2.5203,-2.5335,-2.5421,-2.5484,-2.5505,-2.552,-2.5511,-2.5282,-2.4903,-2.4823,-2.4575,-2.4135,-2.3584,-2.2933,-2.2453,-2.2426,-2.2563,-2.2669,-2.3045,-2.323,-2.3437,-2.3735,-2.4596,-2.5569,-2.5958,-2.6313,-2.6644,-2.6215,-2.5221,-2.5182,-2.4184,-2.3709,-2.3595,-2.3595,-2.3595,-2.3508,-2.3275,-2.2634,-2.1785,-2.1205,-2.0766,-2.0446,-2.0194,-1.9901,-1.9798,-1.9798,-1.9202,-1.8436,-1.795,-1.7578,-1.7567,-1.7567,-1.7841,-1.8112,-1.7302,-1.6296,-1.6115,-1.5948,-1.5555,-1.5332,-1.5293,-1.5176,-1.5162,-1.5156,-1.5244,-1.5391,-1.5381,-1.5273,-1.5079,-1.4744,-1.4308,-1.3415,-1.2572,-1.1701,-1.542,-1.542,-1.542,-1.542,-1.542,-1.542,-1.542,-1.542,-1.541,-1.5225,-1.4941,-1.4873,-1.4492,-1.3929,-1.3942,-1.4348,-1.5097,-1.6118,-1.6436,-1.6479,-1.6534,-1.6534,-1.6502,-1.659,-1.7035,-1.7889,-1.8498,-1.9192,-2.0317,-2.107,-2.146,-2.1764,-2.2106,-2.2544,-2.2989,-2.3206,-2.3723,-2.4063,-2.4289,-2.4497,-2.496,-2.5203,-2.533,-2.5398,-2.5451,-2.5503,-2.5508,-2.5522,-2.5298,-2.499,-2.4788,-2.461,-2.4169,-2.3558,-2.2933,-2.2432,-2.2327,-2.2426,-2.2563,-2.2721,-2.2898,-2.3093,-2.3432,-2.4266,-2.5301,-2.5923,-2.6208,-2.6386,-2.5803,-2.5105,-2.491,-2.4158,-2.3681,-2.3595,-2.3595,-2.3595,-2.3595,-2.3465,-2.3319,-2.2532,-2.1694,-2.1102,-2.0756,-2.0497,-2.0194,-1.9643,-1.9592,-1.9475,-1.8715,-1.795,-1.7567,-1.7512,-1.7567,-1.7731,-1.7633,-1.7146,-1.6244,-1.5695,-1.5568,-1.5351,-1.5205,-1.5117,-1.4951,-1.4746,-1.4785,-1.4883,-1.5107,-1.5205,-1.5,-1.4646,-1.4082,-1.3469,-1.2923,-1.1952,-1.0925,-1.542,-1.542,-1.542,-1.542,-1.542,-1.542,-1.542,-1.542,-1.542,-1.5391,-1.5283,-1.5303,-1.5029,-1.4755,-1.4885,-1.5452,-1.6043,-1.6316,-1.6534,-1.6534,-1.6534,-1.6534,-1.6497,-1.6497,-1.694,-1.7716,-1.8303,-1.9207,-2.0224,-2.0876,-2.1244,-2.1568,-2.207,-2.248,-2.2815,-2.321,-2.3392,-2.3785,-2.408,-2.4546,-2.512,-2.525,-2.5303,-2.5391,-2.544,-2.5488,-2.5487,-2.5478,-2.5318,-2.5072,-2.4873,-2.4605,-2.4182,-2.357,-2.296,-2.2525,-2.231,-2.231,-2.2398,-2.2537,-2.2591,-2.2746,-2.3021,-2.4014,-2.5006,-2.612,-2.6541,-2.642,-2.568,-2.5012,-2.4576,-2.4006,-2.3681,-2.3565,-2.352,-2.352,-2.352,-2.334,-2.3227,-2.3214,-2.2376,-2.1633,-2.1073,-2.0769,-2.0497,-1.9888,-1.9371,-1.9242,-1.8907,-1.8082,-1.7884,-1.7938,-1.8167,-1.8382,-1.7912,-1.728,-1.6433,-1.5624,-1.5186,-1.5068,-1.4893,-1.4717,-1.457,-1.4424,-1.4453,-1.4227,-1.408,-1.4148,-1.4428,-1.4041,-1.325,-1.2887,-1.2634,-1.1484,-1.0188,-1.542,-1.542,-1.542,-1.542,-1.542,-1.542,-1.542,-1.542,-1.542,-1.542,-1.542,-1.541,-1.5395,-1.5416,-1.5354,-1.5713,-1.63,-1.651,-1.6534,-1.6534,-1.6534,-1.6534,-1.6509,-1.6536,-1.6879,-1.7503,-1.8218,-1.9257,-2.0207,-2.068,-2.0813,-2.1389,-2.2082,-2.2581,-2.2867,-2.347,-2.3684,-2.3886,-2.4118,-2.4591,-2.493,-2.5075,-2.5138,-2.5359,-2.534,-2.5413,-2.5481,-2.5442,-2.5288,-2.5042,-2.486,-2.4605,-2.4164,-2.3595,-2.2915,-2.2377,-2.2327,-2.2327,-2.2338,-2.2426,-2.2347,-2.2231,-2.2463,-2.312,-2.4339,-2.5379,-2.6059,-2.5773,-2.5134,-2.4617,-2.4292,-2.3921,-2.3681,-2.3535,-2.3208,-2.3116,-2.3071,-2.3071,-2.2984,-2.3088,-2.3022,-2.2136,-2.1261,-2.0726,-2.0377,-1.9837,-1.9245,-1.8823,-1.855,-1.8088,-1.8143,-1.8478,-1.8862,-1.9202,-1.8613,-1.7924,-1.6968,-1.6041,-1.4755,-1.4631,-1.4394,-1.4184,-1.4077,-1.4038,-1.4058,-1.3705,-1.319,-1.3274,-1.3622,-1.3086,-1.2315,-1.1885,-1.1427,-1.0475,-0.9383,-1.542,-1.542,-1.542,-1.542,-1.542,-1.542,-1.542,-1.542,-1.542,-1.542,-1.5478,-1.5633,-1.5936,-1.6224,-1.6204,-1.6452,-1.6856,-1.674,-1.6616,-1.6572,-1.6534,-1.6534,-1.6522,-1.6582,-1.6764,-1.7384,-1.8178,-1.9448,-2.0571,-2.0981,-2.1031,-2.1369,-2.2524,-2.2929,-2.3238,-2.3876,-2.4385,-2.4486,-2.4967,-2.5412,-2.5716,-2.5603,-2.5677,-2.5753,-2.5763,-2.5732,-2.5721,-2.5781,-2.56,-2.5056,-2.4873,-2.4659,-2.4348,-2.3636,-2.2745,-2.2158,-2.1936,-2.2061,-2.2106,-2.2163,-2.1986,-2.1906,-2.2123,-2.2876,-2.3434,-2.4297,-2.4619,-2.446,-2.4153,-2.3856,-2.3701,-2.3387,-2.3238,-2.2929,-2.2646,-2.2551,-2.2428,-2.233,-2.248,-2.2718,-2.264,-2.2292,-2.1463,-2.0732,-2.0191,-1.9813,-1.9209,-1.8522,-1.8156,-1.7859,-1.8109,-1.8437,-1.8692,-1.8895,-1.8301,-1.7709,-1.7008,-1.6216,-1.4891,-1.406,-1.3756,-1.3685,-1.3603,-1.3646,-1.347,-1.2861,-1.2046,-1.2438,-1.2779,-1.207,-1.1314,-1.064,-0.9941,-0.9194,-0.8857,-1.542,-1.542,-1.542,-1.542,-1.542,-1.542,-1.542,-1.542,-1.542,-1.541,-1.5584,-1.6083,-1.6722,-1.7278,-1.7439,-1.7603,-1.8022,-1.7576,-1.7137,-1.6773,-1.6547,-1.6697,-1.6748,-1.6766,-1.6705,-1.6998,-1.8124,-1.9833,-2.1178,-2.1317,-2.1644,-2.2267,-2.2923,-2.3389,-2.3809,-2.431,-2.5024,-2.5303,-2.5873,-2.6524,-2.6822,-2.6837,-2.6731,-2.6911,-2.7122,-2.7113,-2.6417,-2.639,-2.6084,-2.5282,-2.491,-2.4715,-2.4402,-2.3531,-2.2505,-2.1657,-2.1529,-2.1672,-2.1794,-2.2103,-2.2086,-2.204,-2.2279,-2.2758,-2.2978,-2.3257,-2.3249,-2.292,-2.2842,-2.2554,-2.2381,-2.2278,-2.2338,-2.1958,-2.1622,-2.1439,-2.1403,-2.1458,-2.1676,-2.2188,-2.2087,-2.151,-2.1063,-2.018,-1.9891,-1.9535,-1.8796,-1.8111,-1.7876,-1.7687,-1.7934,-1.8189,-1.8225,-1.8091,-1.7397,-1.6796,-1.6227,-1.5448,-1.4379,-1.3629,-1.3084,-1.3072,-1.3023,-1.2536,-1.2208,-1.1606,-1.1175,-1.1532,-1.1591,-1.1003,-1.0387,-0.9821,-0.9523,-0.9127,-0.8857,-1.542,-1.542,-1.542,-1.542,-1.542,-1.542,-1.542,-1.542,-1.542,-1.57,-1.6036,-1.6436,-1.7146,-1.7932,-1.7996,-1.8224,-1.8546,-1.8129,-1.7752,-1.7639,-1.7564,-1.7551,-1.7551,-1.7438,-1.7503,-1.7498,-1.8504,-1.9798,-2.1111,-2.1313,-2.1498,-2.2071,-2.294,-2.3446,-2.3935,-2.454,-2.5181,-2.557,-2.5895,-2.6258,-2.6366,-2.6358,-2.6371,-2.6821,-2.6749,-2.702,-2.6977,-2.6602,-2.6206,-2.5686,-2.5006,-2.465,-2.4226,-2.3207,-2.2116,-2.1101,-2.116,-2.1305,-2.1636,-2.2115,-2.25,-2.2517,-2.2406,-2.2248,-2.2194,-2.2041,-2.2033,-2.1835,-2.1577,-2.1142,-2.1341,-2.1358,-2.1338,-2.0812,-2.0471,-2.0306,-2.0258,-2.0353,-2.0512,-2.0874,-2.0784,-2.0394,-1.9997,-1.952,-1.937,-1.9194,-1.8412,-1.7727,-1.7411,-1.717,-1.7266,-1.7419,-1.7491,-1.7505,-1.6895,-1.621,-1.5454,-1.4683,-1.3872,-1.3164,-1.2508,-1.2243,-1.2127,-1.1534,-1.1116,-1.0771,-1.0616,-1.0653,-1.0482,-1.0146,-0.971,-0.9218,-0.9015,-0.8962,-0.891,-1.542,-1.542,-1.542,-1.542,-1.542,-1.542,-1.542,-1.542,-1.542,-1.5642,-1.6208,-1.6595,-1.7357,-1.8116,-1.859,-1.8582,-1.8846,-1.8606,-1.8367,-1.8191,-1.8103,-1.8204,-1.8204,-1.8129,-1.7987,-1.8113,-1.8871,-2.0019,-2.1093,-2.1089,-2.1393,-2.1903,-2.2484,-2.3004,-2.3855,-2.4695,-2.5339,-2.5535,-2.5732,-2.59,-2.6118,-2.6171,-2.6401,-2.7035,-2.7215,-2.7345,-2.758,-2.7356,-2.6992,-2.6301,-2.5456,-2.4504,-2.3702,-2.2779,-2.1695,-2.1047,-2.0767,-2.0959,-2.1311,-2.1988,-2.2571,-2.2575,-2.2094,-2.1672,-2.1159,-2.0539,-2.0132,-1.9756,-1.9621,-1.9686,-1.9825,-1.9827,-1.9877,-1.9455,-1.9252,-1.9105,-1.9065,-1.9119,-1.9262,-1.946,-1.9265,-1.9006,-1.8747,-1.8316,-1.8034,-1.7971,-1.7653,-1.6932,-1.6416,-1.623,-1.6197,-1.6372,-1.6479,-1.6515,-1.6456,-1.5522,-1.4628,-1.4226,-1.3391,-1.2603,-1.2039,-1.1715,-1.1316,-1.0762,-1.0364,-1.0115,-0.994,-0.9836,-0.9665,-0.9517,-0.9159,-0.891,-0.891,-0.8857,-0.8857,-1.542,-1.542,-1.542,-1.542,-1.542,-1.542,-1.542,-1.542,-1.542,-1.5526,-1.5806,-1.6912,-1.7567,-1.8047,-1.8976,-1.9307,-1.9146,-1.9032,-1.8819,-1.853,-1.8518,-1.8342,-1.8342,-1.8405,-1.8591,-1.8853,-1.9396,-2.0157,-2.0969,-2.105,-2.139,-2.1479,-2.1746,-2.2422,-2.3525,-2.4965,-2.5697,-2.5822,-2.6,-2.6311,-2.6547,-2.6626,-2.6941,-2.7368,-2.7918,-2.8028,-2.8053,-2.818,-2.7843,-2.7215,-2.6155,-2.4929,-2.3432,-2.2791,-2.1645,-2.0313,-2.0413,-2.0438,-2.0472,-2.1458,-2.2173,-2.2478,-2.2129,-2.1302,-2.0159,-1.9097,-1.8182,-1.7946,-1.7194,-1.7215,-1.7471,-1.7885,-1.8067,-1.8004,-1.7741,-1.7651,-1.7581,-1.7553,-1.7626,-1.766,-1.7571,-1.7414,-1.726,-1.7037,-1.6693,-1.655,-1.6574,-1.6162,-1.5499,-1.5412,-1.5406,-1.536,-1.5544,-1.5439,-1.531,-1.457,-1.3831,-1.3505,-1.2929,-1.212,-1.1466,-1.1065,-1.0559,-1.0012,-0.9762,-0.9562,-0.9211,-0.8864,-0.9008,-0.9106,-0.9008,-0.8804,-0.8804,-0.8804,-0.8804,-1.542,-1.542,-1.542,-1.542,-1.542,-1.542,-1.542,-1.542,-1.541,-1.5633,-1.6255,-1.7246,-1.7907,-1.8555,-1.9202,-1.9685,-1.9572,-1.9547,-1.9334,-1.9271,-1.9183,-1.9271,-1.9221,-1.9145,-1.9271,-1.9434,-1.985,-1.9962,-2.018,-2.0544,-2.0458,-2.0471,-2.1051,-2.1997,-2.3258,-2.4396,-2.4891,-2.5314,-2.5505,-2.5651,-2.5865,-2.6198,-2.6572,-2.6994,-2.7756,-2.8202,-2.8417,-2.8641,-2.8474,-2.8015,-2.7003,-2.5542,-2.3945,-2.3175,-2.2473,-2.1321,-2.1193,-2.0985,-2.0989,-2.1594,-2.2519,-2.2497,-2.209,-2.0959,-1.9512,-1.8309,-1.7289,-1.6451,-1.5847,-1.5923,-1.6173,-1.6256,-1.6313,-1.5875,-1.57,-1.5688,-1.5656,-1.5688,-1.5715,-1.5706,-1.5647,-1.5736,-1.5706,-1.547,-1.5171,-1.5089,-1.5099,-1.4915,-1.4376,-1.4664,-1.4799,-1.4603,-1.4554,-1.4452,-1.4143,-1.3464,-1.2928,-1.2511,-1.212,-1.1566,-1.0965,-1.0466,-0.9909,-0.9406,-0.9211,-0.9061,-0.891,-0.8804,-0.8804,-0.8804,-0.8804,-0.8804,-0.8804,-0.8804,-0.8804,-1.542,-1.542,-1.542,-1.542,-1.542,-1.542,-1.542,-1.542,-1.541,-1.57,-1.6255,-1.7135,-1.7786,-1.8436,-1.9307,-1.9798,-1.9798,-1.9798,-1.9798,-1.9798,-1.9786,-1.971,-1.9736,-1.9798,-1.966,-1.9798,-1.9798,-1.9837,-1.9876,-1.985,-1.9901,-2.0042,-2.0245,-2.1135,-2.2292,-2.2981,-2.3586,-2.4009,-2.423,-2.453,-2.4902,-2.5303,-2.575,-2.6336,-2.7072,-2.7731,-2.837,-2.8695,-2.8815,-2.8555,-2.7771,-2.6684,-2.5425,-2.4127,-2.3523,-2.2588,-2.1599,-2.124,-2.1068,-2.084,-2.1382,-2.1426,-2.1423,-2.0439,-1.8805,-1.7545,-1.6264,-1.5427,-1.4909,-1.4779,-1.4762,-1.4762,-1.4419,-1.4064,-1.4032,-1.4021,-1.4068,-1.4103,-1.4424,-1.4354,-1.4571,-1.4525,-1.4283,-1.3836,-1.3608,-1.3614,-1.36,-1.3426,-1.3273,-1.3606,-1.3737,-1.3406,-1.3168,-1.287,-1.2725,-1.2483,-1.1953,-1.1516,-1.1166,-1.0821,-1.0364,-0.9806,-0.9309,-0.8956,-0.8956,-0.891,-0.8857,-0.8804,-0.8804,-0.8804,-0.8804,-0.8804,-0.8804,-0.8804,-0.8804,-1.542,-1.542,-1.542,-1.542,-1.542,-1.542,-1.542,-1.542,-1.542,-1.54,-1.5526,-1.7024,-1.7688,-1.7961,-1.915,-1.9747,-1.9798,-1.9798,-1.9798,-1.9798,-1.9798,-1.9798,-1.9798,-1.9798,-1.9798,-1.9798,-1.9798,-1.9798,-1.9798,-1.9798,-1.9798,-1.9798,-1.9901,-2.0484,-2.1037,-2.1649,-2.2335,-2.2951,-2.342,-2.3791,-2.4307,-2.4632,-2.5243,-2.5914,-2.6672,-2.7432,-2.8143,-2.8743,-2.9207,-2.9135,-2.866,-2.8615,-2.7616,-2.5614,-2.4414,-2.3127,-2.1783,-2.1241,-2.0607,-2.0268,-1.963,-1.9707,-2.0031,-1.9056,-1.7727,-1.6333,-1.5109,-1.3928,-1.3145,-1.325,-1.3324,-1.3074,-1.2803,-1.2657,-1.2628,-1.2628,-1.2628,-1.2887,-1.3355,-1.3632,-1.4133,-1.4097,-1.3474,-1.2986,-1.2541,-1.2502,-1.2502,-1.2199,-1.2092,-1.2297,-1.2288,-1.1738,-1.1499,-1.1208,-1.1157,-1.1458,-1.1208,-1.0864,-1.0466,-1.0064,-0.9607,-0.9302,-0.9054,-0.8857,-0.8804,-0.8699,-0.8487,-0.8593,-0.8804,-0.8804,-0.8752,-0.8804,-0.8804,-0.8804,-0.8804,-1.541,-1.542,-1.542,-1.542,-1.542,-1.542,-1.542,-1.542,-1.542,-1.542,-1.5517,-1.6968,-1.7523,-1.7743,-1.915,-1.9643,-1.9798,-1.9798,-1.9798,-1.9798,-1.9798,-1.9798,-1.9798,-1.9798,-1.9798,-1.9798,-1.9798,-1.9798,-1.9798,-1.9798,-1.9798,-1.9798,-1.9798,-2.0016,-2.0295,-2.0782,-2.169,-2.2498,-2.3009,-2.3522,-2.4059,-2.4536,-2.5105,-2.5677,-2.6721,-2.7467,-2.8038,-2.9008,-2.9509,-2.9496,-2.962,-2.9658,-2.9197,-2.7415,-2.5919,-2.3661,-2.2513,-2.1633,-2.0342,-1.9798,-1.9045,-1.7894,-1.7986,-1.7051,-1.5803,-1.4754,-1.3811,-1.2752,-1.1774,-1.1787,-1.1446,-1.1081,-1.0814,-1.0639,-1.0631,-1.0698,-1.0797,-1.1329,-1.1849,-1.2764,-1.3226,-1.3188,-1.2609,-1.215,-1.1805,-1.1616,-1.1425,-1.1116,-1.1116,-1.1366,-1.1116,-1.0618,-1.0466,-1.0364,-1.061,-1.0956,-1.0559,-1.021,-0.9909,-0.9666,-0.9309,-0.9106,-0.8857,-0.8699,-0.8593,-0.8328,-0.8014,-0.8168,-0.8321,-0.8699,-0.8699,-0.8752,-0.8804,-0.8752,-0.8752,-1.5399,-1.542,-1.542,-1.542,-1.542,-1.542,-1.542,-1.542,-1.542,-1.542,-1.5517,-1.6641,-1.7302,-1.7731,-1.8768,-1.9475,-1.9798,-1.9798,-1.9798,-1.9798,-1.9798,-1.9798,-1.9798,-1.9798,-1.9798,-1.9798,-1.9798,-1.9798,-1.9798,-1.9747,-1.9747,-1.9371,-1.9592,-1.9798,-2.0093,-2.0769,-2.1534,-2.2331,-2.3024,-2.3565,-2.4142,-2.4736,-2.5128,-2.573,-2.6884,-2.7417,-2.7984,-2.9038,-2.9473,-2.9687,-2.9995,-3.0028,-2.9339,-2.779,-2.5832,-2.3679,-2.2581,-2.1369,-2.0015,-1.89,-1.7838,-1.6714,-1.5877,-1.487,-1.4336,-1.3541,-1.2681,-1.1729,-1.0923,-1.0163,-0.9585,-0.9054,-0.8736,-0.8423,-0.8489,-0.8606,-0.9082,-0.9607,-1.0535,-1.1607,-1.1972,-1.203,-1.1733,-1.1316,-1.1116,-1.1015,-1.0821,-1.0466,-1.0568,-1.0864,-1.0466,-0.9814,-0.9769,-0.9769,-1.0115,-1.0356,-1.0202,-1.0005,-0.9917,-0.9614,-0.9152,-0.885,-0.8699,-0.848,-0.8321,-0.7889,-0.7461,-0.7521,-0.7729,-0.8049,-0.8162,-0.8049,-0.8209,-0.8646,-0.8699,-1.5409,-1.542,-1.542,-1.542,-1.542,-1.542,-1.542,-1.542,-1.542,-1.542,-1.5584,-1.6208,-1.6978,-1.7677,-1.8501,-1.9254,-1.9631,-1.9798,-1.9798,-1.9798,-1.9798,-1.9798,-1.9798,-1.9798,-1.9798,-1.9798,-1.9747,-1.9695,-1.9631,-1.9527,-1.9254,-1.8768,-1.9475,-1.9798,-1.994,-2.1002,-2.1663,-2.1993,-2.3025,-2.3918,-2.4389,-2.491,-2.5449,-2.5944,-2.6506,-2.7057,-2.7875,-2.8625,-2.9273,-2.9625,-2.9902,-3.002,-2.8856,-2.7419,-2.5353,-2.3788,-2.2655,-2.1015,-1.9535,-1.8152,-1.6647,-1.533,-1.4113,-1.35,-1.3163,-1.2667,-1.1846,-1.0646,-0.9731,-0.8808,-0.8128,-0.7647,-0.7281,-0.702,-0.6972,-0.7357,-0.79,-0.8738,-1.0041,-1.0914,-1.1266,-1.1275,-1.0965,-1.0551,-0.9879,-1.0143,-0.9931,-0.9533,-0.9585,-0.9931,-0.9858,-0.9159,-0.9263,-0.9361,-0.9406,-0.9651,-0.9894,-0.9799,-0.9814,-0.9769,-0.951,-0.9054,-0.848,-0.8156,-0.7723,-0.7283,-0.6902,-0.6966,-0.7025,-0.7031,-0.7139,-0.7133,-0.7456,-0.8049,-0.854,-1.5396,-1.542,-1.542,-1.542,-1.542,-1.542,-1.542,-1.542,-1.542,-1.542,-1.5526,-1.6151,-1.6877,-1.7523,-1.8286,-1.898,-1.9579,-1.9747,-1.9798,-1.9798,-1.9798,-1.9798,-1.9798,-1.9798,-1.9811,-1.9798,-1.9747,-1.9436,-1.9202,-1.9044,-1.8927,-1.8768,-1.9371,-1.9798,-1.9786,-2.0939,-2.1615,-2.171,-2.2996,-2.393,-2.4333,-2.491,-2.5449,-2.6035,-2.6607,-2.7172,-2.7958,-2.8622,-2.9225,-2.9724,-3.0135,-2.9804,-2.8855,-2.7363,-2.5778,-2.4222,-2.2952,-2.1144,-1.917,-1.7627,-1.6229,-1.4697,-1.3649,-1.3242,-1.271,-1.1935,-1.0981,-0.9703,-0.858,-0.7653,-0.687,-0.6445,-0.6077,-0.5919,-0.576,-0.6308,-0.6912,-0.8231,-0.9592,-1.0159,-1.0568,-1.0466,-1.0151,-0.9688,-0.896,-0.858,-0.8298,-0.8088,-0.8047,-0.8305,-0.9065,-0.8732,-0.8903,-0.8956,-0.9001,-0.9436,-0.9879,-0.9946,-0.9961,-0.9917,-0.9769,-0.9204,-0.854,-0.767,-0.7074,-0.6691,-0.6421,-0.648,-0.649,-0.6273,-0.6327,-0.6372,-0.6583,-0.7069,-0.783,-1.5434,-1.543,-1.542,-1.542,-1.542,-1.542,-1.542,-1.542,-1.542,-1.542,-1.541,-1.5864,-1.6415,-1.7146,-1.7907,-1.8608,-1.9254,-1.9695,-1.9747,-1.9798,-1.9695,-1.9798,-1.9798,-1.9747,-1.9808,-1.9768,-1.9324,-1.894,-1.8738,-1.8661,-1.8715,-1.8501,-1.9097,-1.9683,-1.9619,-2.0544,-2.1293,-2.1342,-2.2892,-2.3576,-2.4028,-2.4721,-2.5259,-2.5892,-2.6404,-2.7029,-2.7566,-2.8257,-2.9044,-2.9525,-2.9913,-2.9754,-2.8928,-2.7843,-2.6519,-2.5083,-2.3541,-2.1741,-1.9371,-1.7563,-1.6137,-1.46,-1.3312,-1.2998,-1.2379,-1.1669,-1.099,-0.9834,-0.8919,-0.7988,-0.6983,-0.6396,-0.6357,-0.6204,-0.6253,-0.6637,-0.7289,-0.8302,-0.9295,-0.9909,-0.9961,-0.954,-0.9228,-0.8803,-0.8013,-0.6961,-0.6689,-0.6635,-0.6645,-0.7036,-0.7694,-0.8355,-0.8533,-0.8752,-0.8903,-0.954,-1.0308,-1.0281,-1.0064,-0.9762,-0.9517,-0.9061,-0.8487,-0.7563,-0.675,-0.6268,-0.605,-0.5941,-0.5614,-0.5344,-0.5504,-0.5664,-0.5878,-0.6145,-0.6745,-1.5434,-1.5439,-1.542,-1.542,-1.542,-1.542,-1.542,-1.542,-1.542,-1.542,-1.542,-1.541,-1.5864,-1.6528,-1.7146,-1.7852,-1.8501,-1.8886,-1.9307,-1.9359,-1.9307,-1.915,-1.9254,-1.9488,-1.9587,-1.9564,-1.9198,-1.8935,-1.8727,-1.8661,-1.8501,-1.807,-1.8555,-1.9359,-1.9294,-1.9851,-2.067,-2.1126,-2.2039,-2.2698,-2.3503,-2.4378,-2.4886,-2.5405,-2.5881,-2.6337,-2.6891,-2.7628,-2.8598,-2.9348,-2.976,-2.9622,-2.9212,-2.8352,-2.6913,-2.556,-2.4051,-2.2061,-1.9907,-1.7974,-1.6323,-1.4796,-1.3614,-1.2822,-1.2267,-1.1706,-1.1082,-1.0316,-0.94,-0.841,-0.7399,-0.6768,-0.673,-0.6745,-0.6853,-0.6907,-0.767,-0.8374,-0.8995,-0.9666,-0.9302,-0.8883,-0.8402,-0.7978,-0.6929,-0.5828,-0.5175,-0.5179,-0.5396,-0.6108,-0.6822,-0.7706,-0.8321,-0.8533,-0.8804,-0.9488,-1.0308,-1.0289,-1.0012,-0.9666,-0.9263,-0.8962,-0.8321,-0.7348,-0.6642,-0.6209,-0.55,-0.5117,-0.4791,-0.4794,-0.4846,-0.5117,-0.5226,-0.5441,-0.5714,-1.5434,-1.542,-1.542,-1.541,-1.542,-1.542,-1.542,-1.542,-1.542,-1.542,-1.542,-1.5468,-1.5806,-1.6492,-1.6606,-1.7146,-1.7797,-1.8178,-1.807,-1.8015,-1.8286,-1.8167,-1.8398,-1.9095,-1.9328,-1.9397,-1.9365,-1.9203,-1.8679,-1.8608,-1.834,-1.7677,-1.8328,-1.8821,-1.8874,-1.949,-2.0156,-2.0657,-2.141,-2.2156,-2.2295,-2.3197,-2.4373,-2.4907,-2.5357,-2.5917,-2.6504,-2.7221,-2.8218,-2.9136,-2.9874,-2.9819,-2.9415,-2.8764,-2.7423,-2.5612,-2.4139,-2.2197,-2.0122,-1.8377,-1.6699,-1.5094,-1.4118,-1.3515,-1.3054,-1.2735,-1.2061,-1.1299,-1.0324,-0.9224,-0.8279,-0.7811,-0.767,-0.7581,-0.7641,-0.7599,-0.7937,-0.8374,-0.8903,-0.9113,-0.9008,-0.8468,-0.7931,-0.716,-0.5887,-0.474,-0.349,-0.3545,-0.4042,-0.4969,-0.6,-0.7052,-0.7996,-0.848,-0.8804,-0.9384,-1.0018,-1.0049,-0.9961,-0.9562,-0.9211,-0.891,-0.8262,-0.7456,-0.6858,-0.6421,-0.566,-0.5117,-0.4901,-0.4956,-0.4625,-0.4625,-0.4732,-0.4842,-0.5117]},{"header":{"parameterUnit":"m.s-1","parameterCategory":1,"la1":31.0,"la2":29.5877,"lo1":-88.7671,"lo2":-86.6584,"dy":0.0162,"dx":0.0185,"nx":115,"ny":88,"refTime":"2024-09-15T18:00:00:Z","depth":0,"parameterNumber":3,"parameterNumberName":"V-component_of_WINDS"},"data":[0.0,0.0,0.0,0.0,0.0,0.0,0.0,0.0,0.0,0.0,0.0,0.0,0.0,0.0,0.0,0.0,0.0,0.0,0.0,0.0,0.0,0.0,0.0,0.0,0.0,0.0,0.0,0.0,0.0,0.0,0.0,0.0,0.0,0.0,0.0,0.0,0.0,0.0,0.0,0.0,0.0,0.0,0.0,0.0,0.0,0.0,0.0,0.0,0.0,0.0,0.0,0.0,0.0,0.0,0.0,0.0,0.0,0.0,0.0,0.0,0.0,0.0,0.0,0.0,0.0,0.0,0.0,0.0,0.0,0.0,0.0,0.0,0.0,0.0,0.0,0.0,0.0,0.0,0.0,0.0,0.0,0.0,0.0,0.0,0.0,0.0,0.0,0.0,0.0,0.0,0.0,0.0,0.0,0.0,0.0,0.0,0.0,0.0,0.0,0.0,0.0,0.0,0.0,0.0,0.0,0.0,0.0,0.0,0.0,0.0,0.0,0.0,0.0,0.0,0.0,0.0,0.0,0.0,0.0,0.0,0.0,0.0,0.0,0.0,0.0,0.0,0.0,0.0,0.0,0.0,0.0,0.0,0.0,0.0,0.0,0.0,0.0,0.0,0.0,0.0,0.0,0.0,0.0,0.0,0.0,0.0,0.0,0.0,0.0,0.0,0.0,0.0,0.0,0.0,0.0,0.0,0.0,0.0,0.0,0.0,0.0,0.0,0.0,0.0,0.0,0.0,0.0,0.0,0.0,0.0,0.0,0.0,0.0,0.0,0.0,0.0,0.0,0.0,0.0,0.0,0.0,0.0,0.0,0.0,0.0,0.0,0.0,0.0,0.0,0.0,0.0,0.0,0.0,0.0,0.0,0.0,0.0,0.0,0.0,0.0,0.0,0.0,0.0,0.0,0.0,0.0,0.0,0.0,0.0,0.0,0.0,0.0,0.0,0.0,0.0,0.0,0.0,0.0,0.0,0.0,0.0,0.0,0.0,0.0,0.0,0.0,0.0,0.0,0.0,0.0,0.0,0.0,0.0,0.0,0.0,0.0,0.0,0.0,0.0,0.0,0.0,0.0,0.0,0.0,0.0,0.0,0.0,0.0,0.0,0.0,0.0,0.0,0.0,0.0,0.0,0.0,0.0,0.0,0.0,0.0,0.0,0.0,0.0,0.0,0.0,0.0,0.0,0.0,0.0,0.0,0.0,0.0,0.0,0.0,0.0,0.0,0.0,0.0,0.0,0.0,0.0,0.0,0.0,0.0,0.0,0.0,0.0,0.0,0.0,0.0,0.0,0.0,0.0,0.0,0.0,0.0,0.0,0.0,0.0,0.0,0.0,0.0,0.0,0.0,0.0,0.0,0.0,0.0,0.0,0.0,0.0,0.0,0.0,0.0,0.0,0.0,0.0,0.0,0.0,0.0,0.0,0.0,0.0,0.0,0.0,0.0,0.0,0.0,0.0,0.0,0.0,0.0,0.0,0.0,0.0,0.0,0.0,0.0,0.0,0.0,0.0,0.0,0.0,0.0,0.0,0.0,0.0,0.0,0.0,0.0,0.0,0.0,0.0,0.0,0.0,0.0,0.0,0.0,0.0,0.0,0.0,0.0,0.0,0.0,0.0,0.0,0.0,0.0,0.0,0.0,0.0,0.0,0.0,0.0,0.0,0.0,0.0,0.0,0.0,0.0,0.0,0.0,0.0,0.0,0.0,0.0,0.0,0.0,0.0,0.0,0.0,0.0,0.0,0.0,0.0,0.0,0.0,0.0,0.0,0.0,0.0,0.0,0.0,0.0,0.0,0.0,0.0,0.0,0.0,0.0,0.0,0.0,0.0,0.0,0.0,0.0,0.0,0.0,0.0,0.0,0.0,0.0,0.0,0.0,0.0,0.0,0.0,0.0,0.0,0.0,0.0,0.0,0.0,0.0,0.0,0.0,0.0,0.0,0.0,0.0,0.0,0.0,0.0,0.0,0.0,0.0,0.0,0.0,0.0,0.0,0.0,0.0,0.0,0.0,0.0,0.0,0.0,0.0,0.0,0.0,0.0,0.0,0.0,0.0,0.0,0.0,0.0,0.0,0.0,0.0,0.0,0.0,0.0,0.0,0.0,0.0,0.0,0.0,0.0,0.0,0.0,0.0,0.0,0.0,0.0,0.0,0.0,0.0,0.0,0.0,0.0,0.0,0.0,0.0,0.0,0.0,0.0,0.0,0.0,0.0,0.0,0.0,0.0,0.0,0.0,0.0,0.0,0.0,0.0,0.0,0.0,0.0,0.0,0.0,0.0,0.0,0.0,0.0,0.0,0.0,0.0,0.0,0.0,0.0,0.0,0.0,0.0,0.0,0.0,0.0,0.0,0.0,0.0,0.0,0.0,0.0,0.0,0.0,0.0,0.0,0.0,0.0,0.0,0.0,0.0,0.0,0.0,0.0,0.0,0.0,0.0,0.0,0.0,0.0,0.0,0.0,0.0,0.0,0.0,0.0,0.0,0.0,0.0,0.0,0.0,0.0,0.0,0.0,0.0,0.0,0.0,0.0,0.0,0.0,0.0,0.0,0.0,0.0,0.0,0.0,0.0,0.0,0.0,0.0,0.0,0.0,0.0,0.0,0.0,0.0,0.0,0.0,0.0,0.0,0.0,0.0,0.0,0.0,0.0,0.0,0.0,0.0,0.0,0.0,0.0,0.0,0.0,0.0,0.0,0.0,0.0,0.0,0.0,0.0,0.0,0.0,0.0,0.0,0.0,0.0,0.0,0.0,0.0,0.0,0.0,0.0,0.0,0.0,0.0,0.0,0.0,0.0,0.0,0.0,0.0,0.0,0.0,0.0,0.0,0.0,0.0,0.0,0.0,0.0,0.0,0.0,0.0,0.0,0.0,0.0,0.0,0.0,0.0,0.0,0.0,0.0,0.0,0.0,0.0,0.0,0.0,0.0,0.0,0.0,0.0,0.0,0.0,0.0,0.0,0.0,0.0,0.0,0.0,0.0,0.0,0.0,0.0,0.0,0.0,0.0,0.0,0.0,0.0,0.0,0.0,0.0,0.0,0.0,0.0,0.0,0.0,0.0,0.0,0.0,0.0,0.0,0.0,0.0,0.0,0.0,0.0,0.0,0.0,0.0,0.0,0.0,0.0,0.0,0.0,0.0,0.0,0.0,0.0,0.0,0.0,0.0,0.0,0.0,0.0,0.0,0.0,0.0,0.0,0.0,0.0,0.0,0.0,0.0,0.0,0.0,0.0,0.0,0.0,0.0,0.0,0.0,0.0,0.0,0.0,0.0,0.0,0.0,0.0,0.0,0.0,0.0,0.0,0.0,0.0,0.0,0.0,0.0,0.0,0.0,0.0,0.0,0.0,0.0,0.0,0.0,0.0,0.0,0.0,0.0,0.0,0.0,0.0,0.0,0.0,0.0,0.0,0.0,0.0,0.0,0.0,0.0,0.0,0.0,0.0,0.0,0.0,0.0,0.0,0.0,0.0,0.0,0.0,0.0,0.0,0.0,0.0,0.0,0.0,0.0,0.0,0.0,0.0,0.0,0.0,0.0,0.0,0.0,0.0,0.0,0.0,0.0,0.0,0.0,0.0,0.0,0.0,0.0,0.0,0.0,0.0,0.0,0.0,0.0,0.0,0.0,0.0,0.0,0.0,0.0,0.0,0.0,0.0,0.0,0.0,0.0,0.0,0.0,0.0,0.0,0.0,0.0,0.0,0.0,0.0,0.0,0.0,0.0,0.0,0.0,0.0,0.0,0.0,0.0,0.0,0.0,0.0,0.0,0.0,0.0,0.0,0.0,0.0,0.0,0.0,0.0,0.0,0.0,0.0,0.0,0.0,0.0,0.0,0.0,0.0,0.0,0.0,0.0,0.0,0.0,0.0,0.0,0.0,0.0,0.0,0.0,0.0,0.0,0.0,0.0,0.0,0.0,0.0,0.0,0.0,0.0,0.0,0.0,0.0,0.0,0.0,0.0,0.0,0.0,0.0,0.0,0.0,0.0,0.0,0.0,0.0,0.0,0.0,0.0,0.0,0.0,0.0,0.0,0.0,0.0,0.0,0.0,0.0,0.0,0.0,0.0,0.0,0.0,0.0,0.0,0.0,0.0,0.0,0.0,0.0,0.0,0.0,0.0,0.0,0.0,0.0,0.0,0.0,0.0,0.0,0.0,0.0,0.0,0.0,0.0,0.0,0.0,0.0,0.0,0.0,0.0,0.0,0.0,0.0,0.0,0.0,0.0,0.0,0.0,0.0,0.0,0.0,0.0,0.0,0.0,0.0,0.0,1.9286,0.0,0.0,0.0,0.0,0.0,0.0,0.0,0.0,0.0,0.0,0.0,0.0,0.0,0.0,0.0,0.0,0.0,0.0,0.0,0.0,0.0,0.0,0.0,0.0,0.0,0.0,0.0,0.0,0.0,0.0,0.0,0.0,0.0,0.0,0.0,0.0,0.0,0.0,0.0,0.0,0.0,0.0,0.0,0.0,0.0,0.0,0.0,0.0,0.0,0.0,0.0,0.0,0.0,0.0,0.0,0.0,0.0,0.0,0.0,0.0,0.0,0.0,0.0,0.0,0.0,0.0,0.0,0.0,0.0,0.0,0.0,0.0,0.0,0.0,0.0,0.0,0.0,0.0,0.0,0.0,0.0,0.0,0.0,0.0,0.0,0.0,0.0,0.0,0.0,0.0,0.0,0.0,0.0,0.0,0.0,0.0,0.0,0.0,0.0,0.0,0.0,0.0,0.0,0.0,0.0,0.0,0.0,0.0,0.0,0.0,1.9286,1.9286,1.9286,1.9087,1.8665,0.0,0.0,0.0,0.0,0.0,0.0,0.0,0.0,0.0,0.0,0.0,0.0,0.0,0.0,0.0,0.0,0.0,0.0,0.0,0.0,0.0,0.0,0.0,0.0,0.0,0.0,0.0,0.0,0.0,0.0,0.0,0.0,0.0,0.0,0.0,0.0,0.0,0.0,0.0,0.0,0.0,0.0,0.0,0.0,0.0,0.0,0.0,0.0,0.0,0.0,0.0,0.0,0.0,0.0,0.0,0.0,0.0,0.0,0.0,0.0,0.0,0.0,0.0,0.0,0.0,0.0,0.0,0.0,0.0,0.0,0.0,0.0,0.0,0.0,0.0,0.0,0.0,0.0,0.0,0.0,0.0,0.0,0.0,0.0,0.0,0.0,0.0,0.0,0.0,0.0,0.0,0.0,0.0,0.0,0.0,0.0,0.0,0.0,0.0,0.0,0.0,0.0,0.0,0.0,0.0,0.0,0.0,0.0,0.0,0.0,0.0,0.0,1.947,1.9151,1.839,0.0,0.0,0.0,0.0,0.0,0.0,0.0,0.0,0.0,0.0,0.0,0.0,0.0,0.0,0.0,0.0,0.0,0.0,0.0,0.0,0.0,0.0,0.0,0.0,0.0,0.0,0.0,0.0,0.0,0.0,0.0,0.0,0.0,0.0,0.0,0.0,0.0,0.0,0.0,0.0,0.0,0.0,0.0,0.0,0.0,0.0,0.0,0.0,0.0,0.0,0.0,0.0,0.0,0.0,0.0,0.0,0.0,0.0,0.0,0.0,0.0,0.0,0.0,0.0,0.0,0.0,0.0,0.0,0.0,0.0,0.0,0.0,0.0,0.0,0.0,0.0,0.0,0.0,0.0,0.0,0.0,0.0,0.0,0.0,0.0,0.0,0.0,0.0,0.0,0.0,0.0,0.0,0.0,0.0,0.0,0.0,0.0,0.0,0.0,0.0,0.0,0.0,0.0,0.0,0.0,0.0,0.0,0.0,0.0,0.0,1.8298,1.9617,1.992,0.0,1.9219,0.0,0.0,0.0,0.0,0.0,0.0,0.0,0.0,0.0,0.0,0.0,0.0,0.0,0.0,0.0,0.0,0.0,0.0,0.0,0.0,0.0,0.0,0.0,0.0,0.0,0.0,0.0,0.0,0.0,0.0,0.0,0.0,0.0,0.0,0.0,0.0,0.0,0.0,0.0,0.0,0.0,0.0,0.0,0.0,0.0,0.0,0.0,0.0,0.0,0.0,0.0,0.0,0.0,0.0,0.0,0.0,0.0,0.0,0.0,0.0,0.0,0.0,0.0,0.0,0.0,0.0,0.0,0.0,0.0,0.0,0.0,0.0,0.0,0.0,0.0,0.0,0.0,0.0,0.0,0.0,0.0,0.0,0.0,0.0,0.0,0.0,0.0,0.0,0.0,0.0,0.0,0.0,0.0,0.0,0.0,0.0,0.0,0.0,0.0,0.0,0.0,0.0,0.0,0.0,0.0,0.0,0.0,0.0,0.0,0.0,1.8515,1.926,1.8669,1.8324,0.0,0.0,0.0,0.0,0.0,0.0,0.0,0.0,0.0,0.0,0.0,0.0,0.0,0.0,0.0,0.0,0.0,0.0,0.0,0.0,0.0,0.0,0.0,0.0,0.0,0.0,0.0,0.0,0.0,0.0,0.0,0.0,0.0,0.0,0.0,0.0,0.0,0.0,0.0,0.0,0.0,0.0,0.0,0.0,0.0,0.0,0.0,0.0,0.0,0.0,0.0,0.0,0.0,0.0,0.0,0.0,0.0,0.0,0.0,0.0,0.0,0.0,0.0,0.0,0.0,0.0,0.0,0.0,0.0,0.0,0.0,0.0,0.0,0.0,0.0,0.0,0.0,0.0,0.0,0.0,0.0,0.0,0.0,0.0,0.0,0.0,0.0,0.0,0.0,0.0,0.0,0.0,0.0,0.0,0.0,0.0,0.0,0.0,0.0,0.0,0.0,0.0,0.0,0.0,0.0,0.0,0.0,0.0,0.0,0.0,1.8004,1.8381,1.8944,1.8336,1.7663,1.7,0.0,0.0,0.0,0.0,0.0,0.0,0.0,0.0,0.0,0.0,0.0,0.0,0.0,0.0,0.0,0.0,0.0,0.0,0.0,0.0,0.0,0.0,0.0,0.0,0.0,0.0,0.0,0.0,0.0,0.0,0.0,0.0,0.0,0.0,0.0,0.0,0.0,0.0,0.0,0.0,0.0,0.0,0.0,0.0,0.0,0.0,0.0,0.0,0.0,0.0,0.0,0.0,0.0,0.0,0.0,0.0,0.0,0.0,0.0,0.0,0.0,0.0,0.0,0.0,0.0,0.0,0.0,0.0,0.0,0.0,0.0,0.0,0.0,0.0,0.0,0.0,0.0,0.0,0.0,0.0,0.0,0.0,0.0,0.0,0.0,0.0,0.0,0.0,0.0,0.0,0.0,0.0,0.0,0.0,0.0,0.0,0.0,0.0,0.0,0.0,0.0,0.0,0.0,0.0,0.0,0.0,0.0,0.0,0.0,1.7478,1.7527,1.8973,1.9854,1.8711,0.0,0.0,0.0,0.0,0.0,0.0,0.0,0.0,0.0,0.0,0.0,0.0,0.0,0.0,0.0,0.0,0.0,0.0,0.0,0.0,0.0,0.0,0.0,0.0,0.0,0.0,0.0,0.0,0.0,0.0,0.0,0.0,0.0,0.0,0.0,0.0,0.0,0.0,0.0,0.0,0.0,0.0,0.0,0.0,0.0,0.0,0.0,0.0,0.0,0.0,0.0,0.0,0.0,0.0,0.0,0.0,0.0,0.0,0.0,0.0,0.0,0.0,0.0,0.0,0.0,0.0,0.0,0.0,0.0,0.0,0.0,0.0,0.0,0.0,0.0,0.0,0.0,0.0,0.0,0.0,0.0,0.0,0.0,0.0,0.0,0.0,0.0,0.0,0.0,0.0,0.0,0.0,0.0,0.0,0.0,0.0,0.0,0.0,0.0,0.0,0.0,0.0,0.0,0.0,0.0,0.0,0.0,0.0,0.0,1.5998,1.6687,1.7962,1.9827,1.8576,1.7211,0.0,0.0,0.0,0.0,0.0,0.0,0.0,0.0,0.0,0.0,0.0,0.0,0.0,0.0,0.0,0.0,0.0,0.0,0.0,0.0,0.0,0.0,0.0,0.0,0.0,0.0,0.0,0.0,0.0,0.0,0.0,0.0,0.0,0.0,0.0,0.0,0.0,0.0,0.0,0.0,0.0,0.0,0.0,0.0,0.0,0.0,0.0,0.0,0.0,0.0,0.0,0.0,0.0,0.0,0.0,0.0,0.0,0.0,0.0,0.0,0.0,0.0,0.0,0.0,0.0,0.0,0.0,0.0,0.0,0.0,0.0,0.0,0.0,0.0,0.0,0.0,0.0,0.0,0.0,0.0,0.0,0.0,0.0,0.0,0.0,0.0,0.0,0.0,0.0,0.0,0.0,0.0,0.0,0.0,0.0,0.0,0.0,0.0,0.0,0.0,0.0,0.0,0.0,0.0,0.0,0.0,0.0,0.0,0.0,1.5559,0.0,1.8703,0.0,1.7993,1.6504,0.0,0.0,0.0,0.0,0.0,0.0,0.0,0.0,0.0,0.0,0.0,0.0,0.0,0.0,0.0,0.0,0.0,0.0,0.0,0.0,0.0,0.0,0.0,0.0,0.0,0.0,0.0,0.0,0.0,0.0,0.0,0.0,0.0,0.0,0.0,0.0,0.0,0.0,0.0,0.0,0.0,0.0,0.0,0.0,0.0,0.0,0.0,0.0,0.0,0.0,0.0,0.0,0.0,0.0,0.0,0.0,0.0,0.0,0.0,0.0,0.0,0.0,0.0,0.0,0.0,0.0,0.0,0.0,0.0,0.0,0.0,0.0,0.0,0.0,0.0,0.0,0.0,0.0,0.0,0.0,0.0,0.0,0.0,0.0,0.0,0.0,0.0,0.0,0.0,0.0,0.0,0.0,0.0,0.0,0.0,0.0,0.0,0.0,0.0,0.0,0.0,0.0,0.0,0.0,0.0,0.0,0.0,0.0,1.5007,1.7665,1.9508,1.9502,1.7565,1.8333,1.6733,0.0,0.0,0.0,0.0,0.0,0.0,0.0,0.0,0.0,0.0,0.0,0.0,0.0,0.0,0.0,0.0,0.0,0.0,0.0,0.0,0.0,0.0,0.0,0.0,0.0,0.0,0.0,0.0,0.0,0.0,0.0,0.0,0.0,0.0,0.0,0.0,0.0,0.0,0.0,0.0,0.0,0.0,0.0,0.0,0.0,0.0,0.0,0.0,0.0,0.0,0.0,0.0,0.0,0.0,0.0,0.0,0.0,0.0,0.0,0.0,0.0,0.0,0.0,0.0,0.0,0.0,0.0,0.0,0.0,0.0,0.0,0.0,0.0,0.0,0.0,0.0,0.0,0.0,0.0,0.0,0.0,0.0,0.0,0.0,0.0,0.0,0.0,0.0,0.0,0.0,0.0,0.0,0.0,0.0,0.0,0.0,0.0,0.0,0.0,0.0,0.0,0.0,0.0,0.0,0.0,0.0,0.0,0.0,0.0,1.7061,1.8599,1.9469,1.9475,1.8128,1.6631,0.0,0.0,0.0,0.0,0.0,0.0,0.0,0.0,0.0,0.0,0.0,0.0,0.0,0.0,0.0,0.0,0.0,0.0,0.0,0.0,0.0,0.0,0.0,0.0,0.0,0.0,0.0,0.0,0.0,0.0,0.0,0.0,0.0,0.0,0.0,0.0,0.0,0.0,0.0,0.0,0.0,0.0,0.0,0.0,0.0,0.0,0.0,0.0,0.0,0.0,0.0,0.0,0.0,0.0,0.0,0.0,0.0,0.0,0.0,0.0,0.0,0.0,0.0,0.0,0.0,0.0,0.0,0.0,0.0,0.0,0.0,0.0,0.0,0.0,0.0,0.0,0.0,0.0,0.0,0.0,0.0,0.0,0.0,0.0,0.0,0.0,0.0,0.0,0.0,0.0,0.0,0.0,0.0,0.0,0.0,0.0,0.0,0.0,0.0,0.0,0.0,0.0,0.0,0.0,0.0,0.0,0.0,0.0,0.0,1.8422,1.9545,2.0211,2.0339,1.8488,1.7057,1.6046,0.0,0.0,0.0,0.0,0.0,0.0,0.0,0.0,0.0,0.0,0.0,0.0,0.0,0.0,0.0,0.0,0.0,0.0,0.0,0.0,0.0,0.0,0.0,0.0,0.0,0.0,0.0,0.0,0.0,0.0,0.0,0.0,0.0,0.0,0.0,0.0,0.0,0.0,0.0,0.0,0.0,0.0,0.0,0.0,0.0,0.0,0.0,0.0,0.0,0.0,0.0,0.0,0.0,0.0,0.0,0.0,0.0,0.0,0.0,0.0,0.0,0.0,0.0,0.0,0.0,0.0,0.0,0.0,0.0,0.0,0.0,0.0,0.0,0.0,0.0,0.0,0.0,0.0,0.0,0.0,0.0,0.0,0.0,0.0,0.0,0.0,0.0,0.0,0.0,0.0,0.0,0.0,0.0,0.0,0.0,0.0,0.0,0.0,0.0,0.0,0.0,0.0,0.0,0.0,0.0,0.0,0.0,0.0,2.1174,2.1931,2.1623,2.0272,1.9418,1.7946,0.0,0.0,0.0,0.0,0.0,0.0,0.0,0.0,0.0,0.0,0.0,0.0,0.0,0.0,0.0,0.0,0.0,0.0,0.0,0.0,0.0,0.0,0.0,0.0,0.0,0.0,0.0,0.0,0.0,0.0,0.0,0.0,0.0,0.0,0.0,0.0,0.0,0.0,0.0,0.0,0.0,0.0,0.0,0.0,0.0,0.0,0.0,0.0,0.0,0.0,0.0,0.0,0.0,0.0,0.0,0.0,0.0,0.0,0.0,0.0,0.0,0.0,0.0,0.0,0.0,0.0,0.0,0.0,0.0,0.0,0.0,0.0,0.0,0.0,0.0,0.0,0.0,0.0,0.0,0.0,0.0,0.0,0.0,0.0,0.0,0.0,0.0,0.0,0.0,0.0,0.0,0.0,0.0,0.0,0.0,0.0,0.0,0.0,0.0,0.0,0.0,0.0,0.0,0.0,0.0,0.0,0.0,0.0,0.0,2.1121,2.1911,2.2375,2.2434,2.0677,1.892,0.0,0.0,0.0,0.0,0.0,0.0,0.0,0.0,0.0,0.0,0.0,0.0,0.0,0.0,0.0,0.0,0.0,0.0,0.0,0.0,0.0,0.0,0.0,0.0,0.0,0.0,0.0,0.0,0.0,0.0,0.0,0.0,0.0,0.0,0.0,0.0,0.0,0.0,0.0,0.0,0.0,0.0,0.0,0.0,0.0,0.0,0.0,0.0,0.0,0.0,0.0,0.0,0.0,0.0,0.0,0.0,0.0,0.0,0.0,0.0,0.0,0.0,0.0,0.0,0.0,0.0,0.0,0.0,0.0,0.0,0.0,0.0,0.0,0.0,0.0,0.0,0.0,0.0,0.0,0.0,0.0,0.0,0.0,0.0,0.0,0.0,0.0,0.0,0.0,0.0,0.0,0.0,0.0,0.0,0.0,0.0,0.0,0.0,0.0,0.0,0.0,0.0,0.0,0.0,0.0,0.0,0.0,0.0,1.9947,2.2056,2.2517,2.2962,2.3393,2.1515,1.9672,0.0,0.0,0.0,0.0,0.0,0.0,0.0,0.0,0.0,0.0,0.0,0.0,0.0,0.0,0.0,0.0,0.0,0.0,0.0,0.0,0.0,0.0,0.0,0.0,0.0,0.0,0.0,0.0,0.0,0.0,0.0,0.0,0.0,0.0,0.0,0.0,0.0,0.0,0.0,0.0,0.0,0.0,0.0,0.0,0.0,0.0,0.0,0.0,0.0,0.0,0.0,0.0,0.0,0.0,0.0,0.0,0.0,0.0,0.0,0.0,0.0,0.0,0.0,0.0,0.0,0.0,0.0,0.0,0.0,0.0,0.0,0.0,0.0,0.0,0.0,0.0,0.0,0.0,0.0,0.0,0.0,0.0,0.0,0.0,0.0,0.0,0.0,0.0,0.0,0.0,0.0,0.0,0.0,0.0,0.0,0.0,0.0,0.0,0.0,0.0,0.0,0.0,0.0,0.0,0.0,0.0,0.0,0.0,2.0432,2.3207,2.3283,2.3317,2.3359,2.1995,2.0179,0.0,0.0,0.0,0.0,0.0,0.0,0.0,0.0,0.0,0.0,0.0,0.0,0.0,0.0,0.0,0.0,0.0,0.0,0.0,0.0,0.0,0.0,0.0,0.0,0.0,0.0,0.0,0.0,0.0,0.0,0.0,0.0,0.0,0.0,0.0,0.0,0.0,0.0,0.0,0.0,0.0,0.0,0.0,0.0,0.0,0.0,0.0,0.0,0.0,0.0,0.0,0.0,0.0,0.0,0.0,0.0,0.0,0.0,0.0,0.0,0.0,0.0,0.0,0.0,0.0,0.0,0.0,0.0,0.0,0.0,0.0,0.0,0.0,0.0,0.0,0.0,0.0,0.0,0.0,0.0,0.0,0.0,0.0,0.0,0.0,0.0,0.0,0.0,0.0,0.0,0.0,0.0,0.0,0.0,0.0,0.0,0.0,0.0,0.0,0.0,0.0,0.0,0.0,0.0,0.0,0.0,0.0,0.0,2.0923,2.2479,2.2519,2.2789,2.3359,2.2191,2.0505,0.0,0.0,0.0,0.0,0.0,0.0,0.0,0.0,0.0,0.0,0.0,0.0,0.0,0.0,0.0,0.0,0.0,0.0,0.0,0.0,0.0,0.0,0.0,0.0,0.0,0.0,0.0,0.0,0.0,0.0,0.0,0.0,0.0,0.0,0.0,0.0,0.0,0.0,0.0,0.0,0.0,0.0,0.0,0.0,0.0,0.0,0.0,0.0,2.2878,0.0,0.0,0.0,0.0,0.0,0.0,0.0,0.0,0.0,0.0,0.0,0.0,0.0,0.0,0.0,0.0,0.0,0.0,0.0,0.0,0.0,0.0,0.0,0.0,0.0,0.0,0.0,0.0,0.0,0.0,0.0,0.0,0.0,0.0,0.0,0.0,0.0,0.0,0.0,0.0,0.0,0.0,0.0,0.0,0.0,0.0,0.0,0.0,0.0,0.0,0.0,0.0,0.0,0.0,0.0,0.0,0.0,0.0,0.0,2.0541,2.1924,2.1974,2.2262,2.2823,2.2069,2.0607,0.0,0.0,0.0,0.0,0.0,0.0,0.0,0.0,0.0,0.0,0.0,0.0,0.0,0.0,0.0,0.0,0.0,0.0,0.0,0.0,0.0,0.0,0.0,0.0,0.0,0.0,0.0,0.0,0.0,0.0,0.0,0.0,0.0,0.0,0.0,0.0,0.0,0.0,0.0,0.0,0.0,0.0,0.0,0.0,0.0,0.0,0.0,0.0,0.0,0.0,0.0,0.0,0.0,0.0,0.0,0.0,0.0,0.0,0.0,0.0,0.0,0.0,0.0,0.0,0.0,0.0,0.0,0.0,0.0,0.0,0.0,0.0,0.0,0.0,0.0,0.0,0.0,0.0,0.0,0.0,0.0,0.0,0.0,0.0,0.0,0.0,0.0,0.0,0.0,0.0,0.0,0.0,0.0,0.0,0.0,0.0,0.0,0.0,0.0,0.0,0.0,0.0,0.0,0.0,0.0,0.0,0.0,1.8007,1.9657,2.1303,2.1521,2.1807,2.2248,2.1866,2.0676,1.8601,0.0,0.0,0.0,0.0,0.0,0.0,0.0,0.0,0.0,0.0,0.0,0.0,0.0,0.0,0.0,0.0,0.0,0.0,0.0,0.0,0.0,0.0,0.0,0.0,0.0,0.0,0.0,0.0,0.0,0.0,0.0,0.0,0.0,0.0,0.0,0.0,0.0,0.0,2.1989,2.3419,0.0,0.0,0.0,0.0,0.0,0.0,0.0,0.0,2.5012,0.0,0.0,0.0,0.0,0.0,0.0,0.0,0.0,0.0,0.0,0.0,0.0,0.0,0.0,0.0,0.0,0.0,0.0,0.0,0.0,0.0,0.0,0.0,0.0,0.0,0.0,0.0,0.0,0.0,0.0,0.0,0.0,0.0,0.0,0.0,0.0,0.0,0.0,0.0,0.0,0.0,0.0,0.0,0.0,0.0,0.0,0.0,0.0,0.0,0.0,0.0,0.0,0.0,0.0,0.0,0.0,1.6924,1.7379,1.852,2.036,2.1195,2.1774,2.2113,2.2057,2.1085,1.9116,0.0,0.0,0.0,0.0,0.0,0.0,0.0,0.0,0.0,0.0,0.0,0.0,0.0,0.0,0.0,0.0,0.0,0.0,0.0,0.0,0.0,0.0,0.0,0.0,0.0,0.0,0.0,0.0,0.0,0.0,0.0,0.0,0.0,0.0,0.0,0.0,0.0,0.0,0.0,2.5313,2.5806,0.0,0.0,0.0,0.0,0.0,0.0,0.0,0.0,2.5726,0.0,0.0,0.0,0.0,0.0,0.0,0.0,0.0,0.0,0.0,0.0,0.0,0.0,0.0,0.0,0.0,0.0,0.0,0.0,0.0,0.0,0.0,0.0,0.0,0.0,0.0,0.0,0.0,0.0,0.0,0.0,0.0,0.0,0.0,0.0,0.0,0.0,0.0,0.0,0.0,0.0,0.0,0.0,0.0,0.0,0.0,0.0,0.0,0.0,0.0,0.0,0.0,0.0,0.0,0.0,1.4587,1.5891,1.7454,1.9325,2.0342,2.1271,2.2062,2.1494,2.0463,0.0,0.0,0.0,0.0,0.0,0.0,0.0,0.0,0.0,0.0,0.0,0.0,0.0,0.0,0.0,0.0,0.0,0.0,0.0,0.0,0.0,0.0,0.0,0.0,0.0,0.0,0.0,0.0,0.0,0.0,0.0,0.0,0.0,0.0,0.0,0.0,0.0,0.0,0.0,0.0,2.5346,2.6072,2.5887,0.0,0.0,0.0,0.0,0.0,0.0,2.5766,2.6041,0.0,0.0,0.0,0.0,0.0,0.0,0.0,0.0,0.0,0.0,0.0,0.0,0.0,0.0,0.0,0.0,0.0,0.0,0.0,0.0,0.0,0.0,0.0,0.0,0.0,0.0,0.0,0.0,0.0,0.0,0.0,0.0,0.0,0.0,0.0,0.0,0.0,0.0,0.0,0.0,0.0,0.0,0.0,0.0,0.0,0.0,0.0,0.0,0.0,0.0,0.0,0.0,0.0,0.0,0.0,1.192,1.3958,1.5904,1.7708,1.9038,2.0315,2.1558,2.0797,1.9817,0.0,0.0,0.0,0.0,0.0,0.0,0.0,0.0,0.0,0.0,0.0,0.0,0.0,0.0,0.0,0.0,0.0,0.0,0.0,0.0,0.0,0.0,0.0,0.0,0.0,0.0,0.0,0.0,0.0,0.0,0.0,0.0,0.0,0.0,0.0,0.0,0.0,0.0,0.0,0.0,0.0,2.6585,2.6274,2.6426,0.0,0.0,0.0,0.0,2.5975,2.6646,0.0,0.0,0.0,0.0,0.0,0.0,0.0,0.0,0.0,0.0,0.0,0.0,0.0,0.0,0.0,0.0,0.0,0.0,0.0,0.0,0.0,0.0,0.0,0.0,0.0,0.0,0.0,0.0,0.0,0.0,0.0,0.0,0.0,0.0,0.0,0.0,0.0,0.0,0.0,0.0,0.0,0.0,0.0,0.0,0.0,0.0,0.0,0.0,0.0,0.0,0.0,0.0,0.0,0.0,0.0,0.0,0.9985,1.1502,1.317,1.4949,1.7009,1.8695,2.0001,2.0376,1.9728,0.0,0.0,0.0,0.0,0.0,0.0,0.0,0.0,0.0,0.0,0.0,0.0,0.0,0.0,0.0,0.0,0.0,0.0,0.0,0.0,0.0,0.0,0.0,0.0,0.0,0.0,0.0,0.0,0.0,0.0,0.0,0.0,0.0,0.0,0.0,0.0,0.0,0.0,0.0,0.0,0.0,2.8297,2.6305,2.7223,2.79,0.0,0.0,2.733,2.7951,2.8714,0.0,0.0,0.0,0.0,0.0,0.0,0.0,0.0,0.0,0.0,0.0,0.0,0.0,0.0,0.0,0.0,0.0,0.0,0.0,0.0,0.0,0.0,0.0,0.0,0.0,0.0,0.0,0.0,0.0,0.0,0.0,0.0,0.0,0.0,0.0,0.0,0.0,0.0,0.0,0.0,0.0,0.0,0.0,0.0,0.0,0.0,0.0,0.0,0.0,0.0,0.0,0.0,0.0,0.0,0.0,0.7129,0.8619,1.0302,1.1787,1.3152,1.495,1.6586,1.789,1.786,1.7412,0.0,0.0,0.0,0.0,0.0,0.0,0.0,0.0,0.0,0.0,0.0,0.0,0.0,0.0,0.0,0.0,0.0,0.0,0.0,0.0,0.0,0.0,0.0,0.0,0.0,0.0,0.0,0.0,0.0,0.0,0.0,0.0,0.0,0.0,0.0,0.0,0.0,0.0,0.0,0.0,0.0,0.0,2.7598,2.8033,0.0,0.0,0.0,2.8596,2.9023,0.0,0.0,0.0,0.0,0.0,0.0,0.0,0.0,0.0,0.0,0.0,0.0,0.0,0.0,0.0,0.0,0.0,0.0,0.0,0.0,0.0,0.0,0.0,0.0,0.0,0.0,0.0,0.0,0.0,0.0,0.0,0.0,0.0,0.0,0.0,0.0,0.0,0.0,0.0,0.0,0.0,0.0,0.0,0.0,0.0,0.0,0.0,0.0,0.0,0.0,0.0,0.0,0.0,0.0,0.0,0.0,0.0,0.7095,0.8961,1.0283,1.1104,1.2724,1.4232,1.5601,1.5413,0.0,0.0,0.0,0.0,0.0,0.0,0.0,0.0,0.0,0.0,0.0,0.0,0.0,0.0,0.0,0.0,0.0,0.0,0.0,0.0,0.0,0.0,0.0,0.0,0.0,0.0,0.0,1.1058,0.0,0.0,0.0,0.0,0.0,0.0,0.0,0.0,0.0,0.0,0.0,0.0,0.0,0.0,2.7656,2.8699,2.8887,2.9377,0.0,0.0,2.9872,2.9772,2.9587,2.8969,0.0,0.0,0.0,0.0,0.0,0.0,0.0,0.0,0.0,0.0,0.0,0.0,0.0,0.0,0.0,0.0,0.0,0.0,0.0,0.0,0.0,0.0,0.0,0.0,0.0,0.0,0.0,0.0,0.0,0.0,0.0,0.0,0.0,0.0,0.0,0.0,0.0,0.0,0.0,0.0,0.0,0.0,0.0,0.0,0.0,0.0,0.0,0.0,0.0,0.0,0.0,0.0,0.0,0.0,0.0,0.5156,0.6894,0.7986,0.8386,1.0206,1.1865,1.3298,1.3851,1.3692,0.0,0.0,0.0,0.0,0.0,0.0,0.0,0.0,0.0,0.0,0.0,0.0,0.0,0.0,0.0,0.0,0.0,0.0,0.0,0.0,0.0,0.0,0.0,0.0,0.0,0.0,0.0,0.0,0.0,0.0,0.0,0.0,0.0,0.0,0.0,0.0,0.0,0.0,0.0,0.0,0.0,2.8918,2.8912,2.9891,3.0666,0.0,0.0,3.1029,3.0276,3.136,3.1107,2.753,0.0,0.0,0.0,0.0,0.0,0.0,0.0,0.0,0.0,0.0,0.0,0.0,0.0,0.0,0.0,0.0,0.0,0.0,0.0,0.0,0.0,0.0,0.0,0.0,0.0,0.0,0.0,0.0,0.0,0.0,0.0,0.0,0.0,0.0,0.0,0.0,0.0,0.0,0.0,0.0,0.0,0.0,0.0,0.0,0.0,0.0,0.0,0.0,0.0,0.0,0.0,0.0,0.0,0.4582,0.4588,0.5943,0.6684,0.6847,0.8172,0.9425,1.0561,1.1819,1.2196,0.0,0.0,0.0,0.0,0.0,0.0,0.0,0.0,0.0,0.0,0.0,0.0,0.0,0.0,0.0,0.0,0.0,0.0,0.0,0.0,0.0,0.0,0.0,0.0,0.0,0.0,0.0,0.0,1.5236,1.6077,1.7494,0.0,0.0,0.0,0.0,0.0,0.0,0.0,0.0,0.0,0.0,2.8693,2.9826,3.0374,0.0,0.0,3.1809,3.1828,3.201,3.1104,2.9913,2.8586,2.6767,0.0,0.0,0.0,0.0,0.0,0.0,0.0,0.0,0.0,0.0,0.0,0.0,0.0,0.0,0.0,0.0,0.0,0.0,0.0,0.0,0.0,0.0,0.0,0.0,0.0,0.0,0.0,0.0,0.0,0.0,0.0,0.0,0.0,0.0,0.0,0.0,0.0,0.0,0.0,0.0,0.0,0.0,0.0,0.0,0.0,0.0,0.0,0.0,0.0,0.0,0.0,0.0,0.4059,0.4152,0.5114,0.5641,0.5678,0.6696,0.7695,0.8688,1.0137,1.0877,0.0,0.0,0.0,0.0,0.0,0.0,0.0,0.0,0.0,0.0,0.0,0.0,0.0,0.0,0.0,0.0,0.0,0.0,0.0,0.0,0.0,0.0,0.0,0.0,0.0,0.0,0.0,0.0,1.6332,1.6919,1.7422,0.0,0.0,0.0,0.0,0.0,0.0,0.0,0.0,0.0,0.0,2.8795,3.0571,3.0922,3.1272,3.216,3.2022,3.1924,3.226,3.0649,2.918,2.8604,0.0,0.0,0.0,0.0,0.0,0.0,0.0,0.0,0.0,0.0,0.0,0.0,0.0,0.0,0.0,0.0,0.0,0.0,0.0,0.0,0.0,0.0,0.0,0.0,0.0,0.0,0.0,0.0,0.0,0.0,0.0356,0.0,0.0,0.0,0.0,0.0,0.0,0.0,0.0,0.0,0.0,0.0,0.0,0.0,0.0,0.0,0.0,0.0,0.0,0.0,0.0,0.0,0.0,0.3278,0.3625,0.4359,0.4767,0.4956,0.5909,0.6917,0.7997,0.8955,0.9775,1.0418,0.0,0.0,0.0,0.0,0.0,0.0,0.0,0.0,0.0,0.0,0.0,0.0,0.0,0.0,0.0,0.0,0.0,0.0,0.0,0.0,0.0,0.0,0.0,0.0,0.0,0.0,1.6022,1.649,1.6712,0.0,0.0,0.0,0.0,0.0,0.0,0.0,0.0,0.0,0.0,2.8029,2.9482,3.0976,3.1493,3.1737,3.1825,3.1598,3.1182,3.0482,3.0229,2.9384,0.0,0.0,0.0,0.0,0.0,0.0,0.0,0.0,0.0,0.0,0.0,0.0,0.0,0.0,0.0,0.0,0.0,0.0,0.0,0.0,0.0,0.0,0.0,0.0,0.0,0.0,0.0,-0.289,-0.2239,0.0,0.0,0.0,0.0,0.0,0.0,0.0,0.0,0.0,0.0,0.0,-0.2532,-0.2039,0.0,0.0,0.0,0.0,0.0,0.0,0.0,0.0,0.0,0.0,0.0,0.0,0.3101,0.3149,0.3866,0.4325,0.4474,0.5645,0.6444,0.6879,0.8675,1.0059,1.0896,0.0,0.0,0.0,0.0,0.0,0.0,0.0,0.0,0.0,0.0,0.0,0.0,0.0,0.0,0.0,0.0,0.0,0.0,0.0,0.0,0.0,0.0,0.0,0.0,0.0,1.4875,0.0,0.0,0.0,0.0,0.0,0.0,0.0,0.0,0.0,0.0,0.0,2.5693,2.7926,2.9093,3.0091,3.1055,3.1329,3.1428,0.0,0.0,0.0,0.0,0.0,0.0,0.0,0.0,0.0,0.0,0.0,0.0,0.0,0.0,2.9844,2.7001,2.5996,2.5387,2.4755,0.0,0.0,0.0,0.0,0.0,0.0,0.0,0.0,0.0,0.0,0.0,0.0,0.0,0.0,-0.5492,0.0,-0.3591,0.0,0.0,0.0,0.0,0.0,0.0,0.0,0.0,-0.3576,-0.3791,-0.4166,-0.3681,-0.3406,0.0,-0.2441,-0.149,0.0,0.0,0.0,0.0,0.0,0.0,0.0,0.0,0.2633,0.2903,0.3399,0.3907,0.4314,0.5275,0.6067,0.6565,0.9221,1.0853,1.1333,1.216,1.2116,0.0,0.0,0.0,0.0,0.0,0.0,0.0,0.0,0.0,0.0,0.0,0.0,0.0,0.0,0.0,0.0,0.0,0.0,0.0,0.0,0.0,0.0,0.0,1.5415,0.0,0.0,0.0,0.0,0.0,0.0,0.0,0.0,0.0,2.3175,2.4944,2.6955,2.9164,2.9872,3.0521,3.1478,0.0,0.0,0.0,0.0,0.0,0.0,0.0,3.0211,3.0438,2.9562,2.8763,2.8569,3.0125,3.1405,3.1434,0.0,0.0,2.9276,2.828,2.7796,2.7445,2.8328,2.9149,2.9149,3.0336,3.1413,0.0,0.0,0.0,0.0,0.0,0.0,0.0,0.0,-0.9691,-0.8835,0.0,-0.7008,0.0,0.0,0.0,0.0,0.0,0.0,0.0,0.0,-0.5599,-0.5723,-0.5577,-0.5167,-0.4803,-0.4457,-0.3883,-0.3377,-0.2938,-0.1669,0.0,0.0,0.0,0.0,0.0,0.0,0.1804,0.2793,0.3001,0.3528,0.4446,0.4916,0.5739,0.7126,1.0336,1.1941,1.1719,1.3302,1.3489,1.1842,1.1821,0.0,0.0,0.0,0.0,0.0,0.0,0.0,0.0,0.0,0.0,0.0,0.0,0.0,0.0,0.0,0.0,0.0,0.0,0.0,0.0,1.55,0.0,0.0,0.0,0.0,0.0,0.0,0.0,0.0,0.0,0.0,2.3158,2.5497,2.7981,2.9995,0.0,0.0,0.0,0.0,3.1461,3.2205,3.1698,3.1495,3.2246,3.2297,3.2043,3.1416,0.0,0.0,3.0504,3.1497,3.2154,3.1092,3.2155,3.3213,3.3222,3.1844,3.0885,3.0828,3.104,3.1359,3.1428,3.219,3.2998,-1.3238,0.0,0.0,0.0,0.0,-1.1982,-1.2184,-1.2567,-1.1654,-1.0924,-1.0334,-0.9141,0.0,0.0,0.0,0.0,0.0,0.0,-0.6763,-0.7021,-0.7335,-0.7475,-0.7453,-0.6736,-0.6331,-0.6222,-0.5439,-0.4997,-0.4857,-0.4244,-0.2896,-0.0945,0.0,0.0,0.0,0.0,0.1405,0.1672,0.2593,0.327,0.3729,0.4809,0.6376,0.8475,1.0077,1.1338,1.2147,1.3301,1.363,1.3004,1.2862,0.0,0.0,0.0,0.0,0.0,0.0,0.0,0.0,0.0,0.0,0.0,0.0,0.0,0.0,0.0,0.0,0.0,0.0,0.0,1.4429,1.5823,1.6547,0.0,0.0,0.0,0.0,0.0,0.0,0.0,0.0,0.0,2.4147,2.637,2.8382,0.0,0.0,3.0641,3.1523,3.1388,3.163,3.2899,0.0,0.0,0.0,3.2628,3.2391,3.2713,3.3073,3.3026,3.2296,3.2561,3.2651,3.2104,3.2378,3.2702,3.2733,3.2606,3.2238,3.192,3.2317,3.2843,3.3073,3.3818,3.4529,-1.6618,-1.4394,-1.3689,-1.3875,-1.4603,-1.4536,-1.4845,-1.5358,-1.4989,-1.4431,-1.3775,-1.2613,-1.1424,-1.0173,-0.8622,0.0,0.0,0.0,-0.8406,-0.886,-0.9024,-0.9101,-0.9073,-0.8595,-0.8158,-0.7706,-0.7017,-0.655,-0.6336,-0.5799,-0.4642,-0.2838,0.0,0.0,-0.0571,0.0044,0.0615,0.1077,0.1876,0.2675,0.334,0.4794,0.646,0.8437,0.9676,1.0827,1.1953,1.3203,1.3734,1.3359,1.334,1.3166,0.0,0.0,0.0,0.0,0.0,0.0,0.0,0.0,0.0,0.0,0.0,1.1279,0.9849,0.0,0.0,0.0,1.2553,1.3885,1.6129,1.7025,0.0,0.0,0.0,0.0,0.0,0.0,0.0,2.3355,2.4491,2.512,2.4969,2.6228,2.7636,2.8904,2.9353,3.0028,3.1271,0.0,3.1692,3.282,3.3068,3.3305,3.3761,3.3711,3.3677,3.3795,3.3829,3.3643,3.3237,3.2938,3.2734,3.2686,3.2458,3.2264,3.2466,3.2685,3.2782,3.2593,3.3168,3.3761,3.3941,3.4584,3.5149,-1.9739,-1.906,-1.7029,-1.6705,-1.7512,-1.7527,-1.7874,-1.8467,-1.8834,-1.8539,-1.7695,-1.6614,-1.4938,-1.2838,-1.0543,0.0,0.0,-1.0043,-1.0062,-1.0519,-1.0533,-1.0525,-1.0477,-1.0435,-0.9929,-0.9059,-0.8555,-0.7995,-0.7464,-0.6761,-0.5967,-0.5179,-0.3952,-0.2589,-0.1198,-0.1094,-0.0412,0.1013,0.1047,0.179,0.3176,0.4659,0.6058,0.7453,0.9054,1.0351,1.1272,1.295,1.3626,1.3085,1.3364,1.3768,1.4153,0.0,0.0,0.0,0.0,0.0,0.0,0.0,0.0,0.0,0.0,0.0,0.0,0.0,0.0,0.0,1.5312,0.0,1.8538,1.8792,0.0,0.0,0.0,2.1844,2.1979,2.3566,2.4672,2.4731,0.0,0.0,2.55,0.0,2.6129,2.7995,2.8332,2.9121,3.1134,3.1352,3.1622,3.2566,3.3606,3.4421,3.4556,3.5064,3.5216,3.4675,3.4573,3.432,3.3651,3.294,3.2667,3.2817,3.2288,3.1861,3.2316,3.2382,3.2565,3.2924,3.3588,3.411,3.4209,3.4598,3.4999,-2.0852,-2.0907,-2.0095,-1.9321,-1.8623,-1.8623,-1.8719,-1.8879,-1.8977,-1.8688,-1.8192,-1.7559,-1.6227,-1.4357,-1.338,-1.2751,-1.2467,-1.229,-1.1991,-1.1496,-1.1676,-1.149,-1.0983,-1.0802,-1.0606,-1.0363,-1.0012,-0.9522,-0.8884,-0.8362,-0.7454,-0.6264,-0.5369,-0.3807,-0.1693,-0.1287,-0.0641,0.0277,0.0782,0.1512,0.2454,0.388,0.5222,0.6406,0.8306,0.9859,1.0961,1.2131,1.2712,1.259,1.3354,1.3613,1.3165,1.1724,0.0,0.0,0.0,0.0,0.0,0.0,0.0,0.0,0.0,1.4343,1.1192,0.0,1.5792,0.0,1.6983,1.8208,1.8672,1.9615,0.0,0.0,2.2248,2.3041,2.4507,2.5091,2.5585,2.6063,2.6695,2.665,2.5532,2.5743,2.598,2.617,2.7019,2.8423,3.0482,3.0645,3.1396,3.3469,3.3824,3.4083,3.5115,3.5487,3.5509,3.5368,3.5334,3.5098,3.4353,3.3643,3.3008,3.2536,3.1862,3.144,3.1524,3.1733,3.1986,3.2144,3.2836,3.3588,3.408,3.4315,3.4489,-2.1711,-2.19,-2.1685,-2.1138,-2.0454,-2.0221,-2.0163,-2.0163,-2.0397,-2.0225,-1.9746,-1.8412,-1.71,-1.585,-1.4848,-1.4198,-1.3824,-1.3517,-1.3003,-1.2325,-1.2474,-1.232,-1.1949,-1.1827,-1.1575,-1.1257,-1.1112,-1.0647,-0.9998,-0.9482,-0.8482,-0.7047,-0.6357,-0.4839,-0.2588,-0.188,-0.1042,0.0,0.0728,0.1287,0.1732,0.3169,0.4456,0.5622,0.7419,0.8882,1.0056,1.1402,1.1931,1.158,1.2457,1.2762,1.2219,1.1584,1.1146,0.0,0.0,0.0,0.0,0.0,0.0,0.0,0.0,0.0,0.0,0.0,1.7115,1.7086,1.8612,1.9944,2.0797,2.1575,2.2532,2.3849,2.4238,2.4852,2.5929,2.6303,2.6617,2.6991,2.7071,2.6808,2.5988,2.5564,2.5326,2.5356,2.6065,2.7298,2.9307,3.0116,3.1144,3.2868,3.3644,3.4281,3.5431,3.5639,3.5639,3.5639,3.5639,3.5368,3.4624,3.3897,3.3169,3.2449,3.1698,3.119,3.123,3.1528,3.1789,3.1915,3.2565,3.3284,3.3688,3.3981,3.4288,-2.2327,-2.2327,-2.2327,-2.2327,-2.2282,-2.1869,-2.1688,-2.1718,-2.2106,-2.2003,-2.1381,-1.9122,-1.779,-1.7153,-1.5743,-1.501,-1.4789,-1.4272,-1.3695,-1.3017,-1.3017,-1.2968,-1.2891,-1.2891,-1.2539,-1.1945,-1.194,-1.1571,-1.0897,-1.0281,-0.9214,-0.7764,-0.7004,-0.5597,-0.3564,-0.273,-0.1563,0.0,0.0615,0.0951,0.101,0.2289,0.3596,0.4789,0.6342,0.7708,0.8923,1.0705,1.1296,1.0547,1.141,1.1841,1.1625,1.1491,1.1699,0.0,1.226,0.0,0.0,0.0,0.0,0.0,0.0,0.0,0.0,1.7742,1.8553,1.9046,2.0303,2.1769,2.346,2.3684,2.4268,2.5585,2.6243,2.6632,2.6722,2.723,2.756,2.756,2.7034,2.6616,2.6457,2.5356,2.4851,2.5342,2.5618,2.6361,2.8039,2.9501,3.0691,3.1405,3.3275,3.4728,3.5284,3.5436,3.5402,3.5351,3.5233,3.5098,3.4438,3.3711,3.3017,3.2432,3.1681,3.1207,3.119,3.1545,3.1752,3.1733,3.2517,3.3184,3.3284,3.3715,3.4123,-2.2327,-2.2327,-2.2327,-2.2327,-2.2282,-2.2209,-2.2163,-2.218,-2.2265,-2.1857,-2.1039,-1.9821,-1.8759,-1.7887,-1.714,-1.6316,-1.5454,-1.532,-1.4687,-1.3647,-1.3647,-1.3372,-1.2929,-1.2891,-1.2832,-1.2686,-1.2676,-1.2337,-1.1603,-1.0914,-0.9879,-0.8469,-0.7219,-0.581,-0.4268,0.0,0.0,0.0,0.0168,0.0224,0.0224,0.1062,0.2054,0.3134,0.4853,0.0,0.8014,1.0003,1.1005,1.0885,1.2066,0.0,0.0,0.0,0.0,0.0,0.0,0.0,0.0,0.0,0.0,0.0,1.7449,1.7969,1.7637,2.0109,2.1575,2.1216,2.2293,2.3191,2.355,2.4103,2.4971,2.6228,2.6512,2.6797,2.7305,2.755,2.756,2.756,2.7458,2.7137,2.6616,2.6229,2.5906,2.5577,2.5906,2.6433,2.6842,2.8565,3.0123,3.142,3.3354,3.4598,3.4688,3.4742,3.4573,3.4032,3.3829,3.3795,3.3609,3.3017,3.251,3.228,3.1698,3.119,3.119,3.1545,3.1716,3.1372,3.2316,3.3214,3.3214,3.356,3.3895,-2.2327,0.0,-2.2327,-2.2327,0.0,-2.2327,-2.2327,-2.2327,-2.2327,-2.1827,-2.0959,-2.0218,-1.9236,-1.8066,-1.7544,-1.6672,-1.5588,-1.5576,-1.5084,-1.4283,-1.4247,-1.4097,-1.38,-1.3467,-1.3326,-1.333,-1.3017,-1.2686,-1.2318,-1.1299,-1.023,-0.9179,-0.7475,-0.6032,-0.4929,-0.35,-0.2065,-0.0561,-0.0168,0.0,0.0,0.0727,0.1631,0.2775,0.0,0.0,0.0,0.0,0.0,0.0,0.0,0.0,0.0,0.0,0.0,1.3478,1.3677,1.4008,1.4649,1.5581,1.6495,1.7436,1.917,1.9899,1.9221,2.1335,2.2532,2.2248,2.3056,2.3879,2.4522,2.4896,2.5644,2.6871,2.7066,2.723,2.75,2.756,2.756,2.756,2.756,2.7458,2.7086,2.6669,2.639,2.6,2.6244,2.6496,2.6659,2.7958,2.9741,3.1781,3.3795,3.4923,3.457,3.4472,3.4235,3.3609,3.3389,3.3237,3.2899,3.2527,3.2171,3.1833,3.1427,3.119,3.1269,3.1714,3.2004,3.1696,3.2417,3.3154,3.3214,3.3522,3.3807,-2.2327,-2.2327,-2.2327,-2.2327,-2.2327,-2.2327,-2.2327,-2.2327,0.0,0.0,0.0,-2.052,-1.951,-1.8092,-1.7626,-1.6828,-1.5764,-1.5776,-1.541,-1.488,-1.4869,-1.4789,-1.4652,-1.4097,-1.3788,-1.3782,-1.3203,-1.2891,-1.2832,-1.1484,-1.0485,-0.9746,-0.7682,-0.6095,-0.5042,-0.3171,-0.1843,-0.112,-0.0336,0.0,0.0,0.0559,0.1481,0.2691,0.3874,0.538,0.7389,0.9005,0.9966,1.0152,1.1139,1.1799,1.1931,1.2447,1.3292,1.4504,1.5245,1.582,1.6324,1.6938,1.7639,1.8323,2.036,2.1391,2.0893,2.2099,2.2847,2.2847,2.331,2.4163,2.5465,2.56,2.6138,2.7425,2.756,2.756,2.756,2.756,2.756,2.756,2.756,2.756,2.756,2.71,2.6616,2.6563,2.6616,2.6669,2.6875,2.8092,2.9884,3.1962,3.3787,3.4903,3.4303,3.4015,3.3812,3.3034,3.2933,3.278,3.229,3.2087,3.185,3.136,3.119,3.119,3.1269,3.1787,3.2196,3.1897,3.2466,3.3075,3.3105,3.3223,3.3369,-2.2327,-2.2327,-2.2327,-2.2327,-2.2327,-2.2327,-2.2327,-2.2327,-2.2327,-2.1827,-2.1007,-2.091,-1.9858,-1.8092,-1.8013,-1.7381,-1.638,-1.638,-1.6051,0.0,-1.5454,-1.5186,-1.4652,-1.4097,-1.3788,-1.3723,-1.3203,-1.2891,-1.2725,-1.1484,-1.0754,-1.034,-0.7947,-0.5597,-0.3674,-0.2676,-0.1842,-0.1119,-0.0336,0.0,0.0,0.0112,0.0771,0.2073,0.2794,0.4368,0.6817,0.7986,0.9316,1.0935,1.1533,1.2053,1.2711,1.3294,1.3695,1.3984,1.4971,1.5632,1.572,1.6701,1.7977,1.9501,2.0501,2.1164,2.1565,2.2727,2.3475,2.3475,2.355,2.4148,2.5405,2.56,2.6186,2.74,2.761,2.761,2.761,2.761,2.756,2.756,2.756,2.756,2.756,2.7458,2.7152,2.6774,2.6997,2.7408,2.7622,2.9093,3.0541,3.1565,3.2865,3.3333,3.2959,3.2611,3.2408,3.163,3.1556,3.159,3.1478,3.1444,3.1376,3.1224,3.119,3.119,3.119,3.1582,3.1861,3.1825,3.2264,3.2583,3.2613,3.2228,3.2008,-2.2327,-2.2327,-2.2327,-2.2327,-2.2327,-2.2327,-2.2327,-2.2327,-2.2327,-2.1811,-2.1039,-2.1007,-1.9908,-1.8171,-1.8092,-1.7504,-1.6534,-1.6534,-1.6337,-1.6107,-1.6083,-1.5964,-1.5644,-1.5062,-1.4592,-1.4275,-1.3672,-1.319,-1.2822,-1.1484,-1.0813,-1.0602,-0.8,-0.571,-0.4009,-0.2785,-0.2063,-0.1675,-0.0559,0.0,0.0,0.0,0.0666,0.2075,0.2394,0.3865,0.6576,0.7487,0.8873,1.0902,1.1509,1.2129,1.2881,1.3142,1.3463,1.3782,1.4298,1.4903,1.5588,1.6672,1.7936,1.9345,2.0366,2.1286,2.2203,2.3056,2.3595,2.3595,2.3595,2.4163,2.545,2.5909,2.6611,2.7954,2.8091,2.8091,2.8042,2.776,2.756,2.756,2.756,2.756,2.756,2.756,2.7524,2.7188,2.7458,2.756,2.7625,2.8985,3.0235,3.0958,3.236,3.2971,3.2435,3.1993,3.1649,3.1269,3.0918,3.0878,3.1095,3.119,3.119,3.119,3.119,3.119,3.119,3.1507,3.1752,3.1808,3.1915,3.2161,3.2294,3.1597,3.1064,-2.2327,-2.2327,-2.2327,-2.2327,-2.2327,-2.2327,-2.2327,-2.2327,-2.2327,-2.1827,-2.1055,-2.1007,-1.9908,-1.821,-1.8092,-1.7504,-1.6607,-1.6534,-1.6534,-1.6534,-1.6534,-1.6534,-1.6436,-1.5876,-1.5289,-1.4682,-1.4093,-1.3457,-1.2813,-1.1484,-1.045,-0.9725,-0.7635,-0.5819,-0.4236,-0.2899,-0.212,-0.1898,-0.0671,0.0,0.0,0.0,0.0671,0.2065,0.2176,0.3608,0.6421,0.7101,0.8351,1.0407,1.1216,1.1922,1.2579,1.2813,1.3135,1.3565,1.372,1.4318,1.5499,1.6529,1.7734,1.9211,2.0274,2.1481,2.2733,2.331,2.3595,2.3595,2.3595,2.4192,2.5576,2.6182,2.7083,2.8467,2.8701,2.8685,2.8654,2.8174,2.781,2.7795,2.781,2.781,2.781,2.781,2.776,2.7625,2.756,2.756,2.772,2.8648,2.9515,3.038,3.1786,3.2572,3.2107,3.1541,3.1208,3.1145,3.0576,3.0435,3.074,3.0975,3.0975,3.0975,3.1112,3.119,3.123,3.1411,3.1677,3.177,3.177,3.1649,3.1411,3.0808,3.0194,-2.2327,-2.2327,-2.2327,-2.2327,-2.2327,-2.2327,-2.2327,-2.2282,-2.2299,-2.1827,-2.1039,-2.1007,-1.9943,-1.8249,-1.8092,-1.7517,-1.6565,-1.6522,-1.6534,-1.6534,-1.6534,-1.6534,-1.6436,-1.5876,-1.5287,-1.4674,-1.4107,-1.3515,-1.2822,-1.1475,-0.9511,-0.7272,-0.6691,-0.5542,-0.3616,-0.2621,-0.1898,-0.1174,-0.0392,0.0,0.0,0.0,0.0727,0.212,0.2176,0.3608,0.6367,0.6642,0.7694,0.9703,1.0517,1.1223,1.1893,1.2502,1.2939,1.2998,1.3525,1.4318,1.5478,1.6118,1.7465,1.9718,2.0504,2.1595,2.3271,2.355,2.3595,2.3595,2.3595,2.4455,2.6145,2.6523,2.735,2.9064,2.9316,2.9316,2.9271,2.8779,2.8415,2.8431,2.84,2.8431,2.8415,2.8319,2.8125,2.7675,2.7509,2.7509,2.7625,2.8134,2.8888,2.9571,3.074,3.1449,3.1311,3.0816,3.0676,3.0935,3.0208,2.9892,3.0166,3.0393,3.0377,3.0435,3.0754,3.0993,3.105,3.1252,3.1355,3.1482,3.1302,3.0866,2.9822,2.942,2.9554,-2.27,-2.2327,-2.2327,-2.2327,-2.2327,-2.2327,-2.2327,-2.2265,-2.2003,-2.1538,-2.0991,-2.0731,-1.9818,-1.8574,-1.8263,-1.7666,-1.6951,-1.665,-1.6534,-1.6534,-1.6534,-1.6534,-1.6436,-1.5864,-1.5264,-1.4698,-1.4097,-1.3467,-1.2764,-1.1484,-0.9356,-0.6907,-0.6588,-0.571,-0.407,-0.3231,-0.2508,-0.173,-0.1006,-0.0448,0.0,0.0,0.0504,0.1452,0.1952,0.3111,0.5144,0.6086,0.7379,0.9013,0.9843,1.0713,1.1759,1.2073,1.2442,1.2871,1.3457,1.405,1.4492,1.5417,1.679,1.8831,1.9884,2.1193,2.2892,2.3377,2.3595,2.3638,2.3879,2.4752,2.629,2.7111,2.8149,2.9567,2.9935,2.9935,2.9908,2.9406,2.9042,2.9058,2.9042,2.9012,2.8904,2.8354,2.7834,2.7545,2.7255,2.71,2.7524,2.781,2.8352,2.9196,2.9887,3.0461,3.0929,3.0351,3.0166,3.0293,2.9673,2.9088,2.9585,2.9761,2.9761,2.9761,2.9963,3.0075,2.9959,3.0359,3.0624,3.0779,3.0711,3.0091,2.8602,2.8405,2.8437,-2.309,-2.2604,-2.2378,-2.2327,-2.2327,-2.2327,-2.2327,-2.2237,-2.1794,-2.1368,-2.0959,-2.0516,-1.9864,-1.9118,-1.8574,-1.7933,-1.7312,-1.6909,-1.6637,-1.6522,-1.6534,-1.6534,-1.6423,-1.5864,-1.5276,-1.4698,-1.4107,-1.3294,-1.2353,-1.1375,-0.9459,-0.7224,-0.6696,-0.5987,-0.4787,-0.3843,-0.3065,-0.251,-0.1786,-0.1061,0.0,-0.028,0.0112,0.1062,0.1785,0.2892,0.4371,0.5642,0.6945,0.837,0.9117,1.0033,1.1156,1.1598,1.2129,1.2822,1.3334,1.3647,1.3779,1.4875,1.6255,1.8012,1.9297,2.0771,2.2329,2.3113,2.3421,2.3638,2.4074,2.4989,2.6603,2.7624,2.8841,3.0303,3.0535,3.0559,3.0518,3.0021,2.9673,2.9629,2.9629,2.9464,2.9025,2.8132,2.7339,2.6953,2.6721,2.6616,2.7203,2.7458,2.7993,2.8966,2.9134,2.9733,3.0797,3.0208,2.9821,2.9761,2.9255,2.8463,2.9012,2.9134,2.8973,2.8812,2.8893,2.8985,2.9079,2.9393,2.9606,2.961,2.9614,2.9364,2.8197,2.7892,2.7658,-2.338,-2.3221,-2.2604,-2.2327,-2.2327,-2.2327,-2.2327,-2.2265,-2.1794,-2.1368,-2.0959,-2.0483,-2.0054,-1.9603,-1.908,-1.8288,-1.7435,-1.7271,-1.6993,-1.6565,-1.6522,-1.6534,-1.6479,-1.5864,-1.5264,-1.4698,-1.4014,-1.2841,-1.1116,-1.0864,-0.9732,-0.7717,-0.702,-0.6253,-0.5324,-0.4171,-0.34,-0.3121,-0.2508,-0.1786,-0.1174,-0.1062,-0.0335,0.0894,0.1785,0.2892,0.4207,0.5152,0.6249,0.7664,0.8383,0.9093,0.9933,1.1074,1.208,1.2715,1.292,1.319,1.373,1.4641,1.5997,1.7869,1.9067,2.0512,2.2165,2.2634,2.292,2.3523,2.3975,2.5098,2.6802,2.7615,2.8938,3.0735,3.1061,3.1061,3.1112,3.0601,3.0293,3.0251,3.0208,2.9669,2.8561,2.7811,2.685,2.6119,2.6054,2.6496,2.6669,2.7152,2.7795,2.8367,2.8748,2.9134,3.0658,3.0038,2.9689,2.9585,2.881,2.786,2.8222,2.8481,2.8124,2.789,2.7989,2.8049,2.8197,2.8274,2.8398,2.8548,2.8851,2.8501,2.7706,2.7739,2.7573,-2.3532,-2.2683,-2.2395,-2.2327,-2.2327,-2.2327,-2.2327,-2.2209,-2.1507,-2.1166,-2.0894,-2.0227,-1.9839,-1.9675,-1.9479,-1.9006,-1.8302,-1.7626,-1.7188,-1.6951,-1.668,-1.6534,-1.638,-1.5511,-1.4915,-1.4617,-1.3705,-1.2628,-1.1516,-1.1015,-0.999,-0.8482,-0.7652,-0.674,-0.5647,-0.4992,-0.4278,-0.3398,-0.301,-0.2563,-0.1842,-0.134,-0.0838,-0.0279,0.1339,0.2452,0.2945,0.4601,0.5756,0.6303,0.7427,0.8402,0.9106,1.0423,1.1266,1.1534,1.1981,1.2276,1.2657,1.388,1.5121,1.6221,1.8091,1.9572,2.066,2.154,2.2132,2.25,2.3288,2.4399,2.5497,2.6736,2.8284,3.0027,3.0514,3.0717,3.1033,3.1015,3.0878,3.0838,3.0559,2.974,2.8451,2.7355,2.6352,2.5591,2.5231,2.555,2.6283,2.6774,2.7276,2.8174,2.8527,2.8826,2.9745,2.9361,2.8873,2.8779,2.8319,2.7845,2.7894,2.7583,2.7235,2.7009,2.7038,2.6686,2.6686,2.7295,2.7387,2.7844,2.8142,2.7943,2.7249,2.73,2.7148,-2.3663,-2.2412,-2.2327,-2.2327,-2.2327,-2.2327,-2.2327,-2.2225,-2.1507,-2.1134,-2.0862,-2.0208,-1.9854,-1.9726,-1.9705,-1.9515,-1.908,-1.8224,-1.7626,-1.7284,-1.6909,-1.668,-1.6337,-1.5242,-1.4709,-1.4525,-1.3478,-1.251,-1.1823,-1.1366,-1.0399,-0.911,-0.8336,-0.7433,-0.6352,-0.5977,-0.521,-0.4223,-0.4003,-0.3555,-0.2619,-0.2119,-0.1562,-0.0949,0.0613,0.1728,0.2174,0.3886,0.505,0.5542,0.647,0.7481,0.8678,0.9835,1.0568,1.0813,1.1216,1.1616,1.1927,1.3169,1.4348,1.5174,1.6922,1.8402,1.9288,2.0393,2.1046,2.1513,2.2275,2.3201,2.3954,2.5144,2.6899,2.902,2.9863,3.0277,3.0768,3.1055,3.1173,3.1021,3.0228,2.9122,2.7813,2.6335,2.5219,2.4487,2.4103,2.4581,2.5795,2.639,2.6864,2.7929,2.814,2.8319,2.8701,2.8432,2.8463,2.8415,2.8174,2.776,2.735,2.6886,2.6471,2.6219,2.5833,2.5312,2.5477,2.6147,2.6681,2.7188,2.7366,2.7266,2.6928,2.6776,2.6792,-2.3659,-2.2457,-2.2327,-2.2327,-2.2327,-2.2327,-2.2327,-2.2225,-2.1794,-2.1385,-2.1023,-2.0516,-2.0104,-1.9818,-1.9782,-1.9711,-1.953,-1.9058,-1.8341,-1.7504,-1.7312,-1.6993,-1.6509,-1.5377,-1.4698,-1.4571,-1.3478,-1.255,-1.1922,-1.1715,-1.1015,-0.9902,-0.9051,-0.8277,-0.7664,-0.6907,-0.6253,-0.5538,-0.5307,-0.4707,-0.3503,-0.3279,-0.2559,-0.1284,-0.0334,0.0724,0.2065,0.2952,0.4003,0.5156,0.5483,0.6494,0.8364,0.9377,1.0064,1.0517,1.0771,1.1116,1.1696,1.2588,1.3821,1.4881,1.6027,1.7269,1.833,1.9209,1.9889,2.0341,2.1089,2.1824,2.2383,2.3201,2.4843,2.766,2.902,2.9741,3.0167,3.0751,3.1157,3.083,2.9551,2.7905,2.6423,2.5069,2.3845,2.3109,2.3171,2.3956,2.5231,2.5937,2.6701,2.7297,2.765,2.7849,2.7715,2.7595,2.7993,2.8238,2.7894,2.753,2.7186,2.6767,2.6078,2.5706,2.5047,2.4605,2.5039,2.5673,2.6077,2.6512,2.657,2.686,2.6776,2.6708,2.6708,-2.3921,-2.3039,-2.2491,-2.2327,-2.2327,-2.2327,-2.2327,-2.2254,-2.1794,-2.1521,-2.1337,-2.0991,-2.0532,-2.0193,-2.0124,-1.9965,-1.969,-1.9479,-1.9043,-1.838,-1.768,-1.7229,-1.6854,-1.584,-1.488,-1.4097,-1.3286,-1.2783,-1.251,-1.203,-1.1308,-1.0509,-0.9799,-0.881,-0.783,-0.745,-0.7015,-0.6308,-0.5747,-0.5249,-0.4714,-0.3886,-0.289,-0.1952,-0.1115,-0.0056,0.134,0.2176,0.3007,0.4003,0.4491,0.5738,0.7641,0.8725,0.9211,0.942,0.9888,1.0141,1.0605,1.2061,1.3231,1.4022,1.5396,1.6578,1.7158,1.7861,1.8347,1.8631,1.9184,1.9813,2.0562,2.1503,2.3231,2.5993,2.7294,2.8522,2.9376,3.0029,3.0185,2.9786,2.8567,2.7154,2.5924,2.4606,2.365,2.2668,2.295,2.3755,2.4623,2.5388,2.5833,2.6221,2.671,2.716,2.6861,2.7021,2.7564,2.7822,2.767,2.735,2.7006,2.6497,2.5809,2.5076,2.4403,2.4316,2.4742,2.5221,2.5672,2.6175,2.6589,2.6708,2.6708,2.6708,2.6708,-2.4087,-2.3335,-2.2604,-2.2327,-2.2327,-2.2327,-2.2327,-2.2254,-2.2003,-2.1764,-2.1552,-2.1337,-2.0975,-2.0583,-2.0382,-2.0158,-1.9909,-1.9782,-1.953,-1.9043,-1.8092,-1.7504,-1.712,-1.5879,-1.4778,-1.3862,-1.319,-1.2881,-1.2881,-1.2452,-1.1882,-1.1166,-1.0509,-0.9644,-0.856,-0.8203,-0.7723,-0.7015,-0.6548,-0.6058,-0.5425,-0.4666,-0.3677,-0.273,-0.1896,-0.0949,0.0223,0.1005,0.2009,0.3229,0.4271,0.5638,0.7176,0.7996,0.8487,0.8818,0.9162,0.9523,0.9925,1.1206,1.2508,1.3205,1.4579,1.5682,1.6079,1.6754,1.7191,1.7302,1.785,1.8419,1.9,2.0052,2.1527,2.3031,2.5243,2.6969,2.8306,2.889,2.8946,2.8421,2.741,2.6268,2.5289,2.4268,2.3568,2.2726,2.2807,2.3539,2.4217,2.4839,2.5171,2.5593,2.6149,2.6224,2.5927,2.6391,2.7141,2.7375,2.743,2.7141,2.6826,2.6198,2.5525,2.4627,2.3879,2.4064,2.4496,2.4973,2.5449,2.5999,2.6607,2.6691,2.6708,2.6708,2.6708,-2.419,-2.3454,-2.2671,-2.2479,-2.253,-2.2479,-2.2462,-2.2412,-2.2383,-2.2116,-2.1751,-2.1658,-2.1415,-2.0991,-2.0667,-2.0449,-2.0212,-1.9945,-1.9762,-1.9391,-1.8612,-1.7894,-1.7162,-1.5719,-1.4609,-1.3946,-1.3306,-1.2949,-1.2881,-1.2832,-1.2501,-1.1715,-1.1015,-1.0423,-0.9607,-0.9106,-0.8374,-0.7824,-0.7553,-0.6796,-0.5647,-0.5356,-0.4695,-0.3347,-0.2508,-0.1729,-0.0894,0.0056,0.1341,0.3176,0.4659,0.5923,0.6642,0.7306,0.8221,0.8752,0.8811,0.9166,0.968,1.0364,1.1301,1.2622,1.342,1.4201,1.5206,1.5843,1.6301,1.6425,1.7013,1.7457,1.7775,1.8749,1.9698,2.0294,2.3405,2.5837,2.707,2.7364,2.7421,2.7128,2.6225,2.5222,2.4609,2.3599,2.3016,2.2686,2.2706,2.3378,2.4048,2.4606,2.4863,2.5221,2.5607,2.5375,2.5072,2.5849,2.6546,2.6801,2.6889,2.6705,2.6246,2.557,2.5061,2.4178,2.3771,2.3979,2.4389,2.4934,2.5524,2.6139,2.6521,2.6624,2.6708,2.6708,2.6791,-2.5203,-2.4889,-2.3667,-2.3427,-2.3782,-2.3359,-2.3105,-2.3105,-2.3088,-2.2709,-2.2224,-2.2123,-2.1823,-2.1446,-2.129,-2.0927,-2.0434,-2.0193,-1.998,-1.9639,-1.9043,-1.8171,-1.7205,-1.6015,-1.5056,-1.4457,-1.3799,-1.333,-1.2939,-1.2929,-1.255,-1.1805,-1.1166,-1.0466,-0.9814,-0.9166,-0.8752,-0.8355,-0.7353,-0.677,-0.6195,-0.5234,-0.4294,-0.34,-0.2619,-0.1842,-0.1005,0.0669,0.1786,0.2563,0.4988,0.6372,0.6657,0.7735,0.8546,0.8699,0.8804,0.8857,0.9221,0.9907,1.0763,1.1439,1.2387,1.3392,1.4414,1.4678,1.5089,1.5507,1.5911,1.6244,1.681,1.7665,1.8785,2.0547,2.2962,2.4961,2.5717,2.6284,2.647,2.5979,2.5212,2.4541,2.3993,2.3613,2.3171,2.2925,2.3086,2.3476,2.4126,2.4686,2.5106,2.4817,2.4921,2.4496,2.4508,2.5245,2.5843,2.6199,2.6245,2.6062,2.544,2.4627,2.4222,2.364,2.3754,2.3948,2.4592,2.5182,2.5762,2.6297,2.6521,2.6708,2.6708,2.6708,2.6906,-2.5613,-2.5503,-2.4354,-2.4086,-2.4455,-2.4066,-2.3849,-2.3782,-2.3511,-2.319,-2.2767,-2.2412,-2.2135,-2.1899,-2.1688,-2.1352,-2.083,-2.0483,-2.0193,-1.9894,-1.9214,-1.8288,-1.73,-1.6321,-1.5656,-1.4994,-1.4183,-1.3683,-1.3296,-1.3065,-1.2666,-1.2138,-1.1275,-1.061,-1.0218,-0.9263,-0.8639,-0.8249,-0.7418,-0.6828,-0.6086,-0.5348,-0.4632,-0.3735,-0.2788,-0.1673,-0.0167,0.1395,0.2343,0.306,0.4824,0.6204,0.6431,0.7574,0.8487,0.8752,0.8804,0.8804,0.8884,0.9447,1.0085,1.0728,1.1518,1.239,1.3371,1.3909,1.451,1.4805,1.5177,1.5748,1.6482,1.7413,1.8703,2.0194,2.1987,2.3327,2.416,2.4779,2.4978,2.4675,2.4349,2.3948,2.3623,2.3595,2.3537,2.3522,2.3754,2.4076,2.4447,2.4947,2.5222,2.4986,2.4759,2.4535,2.4433,2.5002,2.5395,2.572,2.5989,2.5753,2.5241,2.4417,2.4146,2.3979,2.3964,2.4184,2.495,2.554,2.5944,2.6367,2.659,2.6708,2.6708,2.6639,2.6835,-2.5732,-2.5648,-2.492,-2.4675,-2.4777,-2.4659,-2.4611,-2.4458,-2.3866,-2.3477,-2.3207,-2.2615,-2.2299,-2.2282,-2.1899,-2.1642,-2.1475,-2.0765,-2.0348,-1.9984,-1.9361,-1.8549,-1.7653,-1.685,-1.6225,-1.5543,-1.4448,-1.3935,-1.3589,-1.3152,-1.2929,-1.2461,-1.1425,-1.0864,-1.0415,-0.9458,-0.8474,-0.7877,-0.7517,-0.6753,-0.5814,-0.5293,-0.486,-0.4239,-0.2899,-0.1059,0.0669,0.1898,0.2563,0.3508,0.4878,0.5814,0.6253,0.7257,0.8262,0.889,0.9047,0.9008,0.891,0.9042,0.9266,1.0166,1.055,1.1256,1.2323,1.3279,1.3996,1.4323,1.4923,1.5748,1.6698,1.7907,1.8927,1.9888,2.056,2.1382,2.2267,2.3098,2.3508,2.3595,2.3595,2.3595,2.3595,2.3638,2.3709,2.3651,2.3906,2.4109,2.4477,2.4932,2.5148,2.5148,2.493,2.473,2.4725,2.4773,2.5035,2.533,2.5758,2.5802,2.5582,2.4992,2.4651,2.4471,2.4471,2.4855,2.554,2.5997,2.6227,2.6436,2.6657,2.6708,2.6674,2.6517,2.659,-2.6455,-2.6404,-2.5644,-2.5693,-2.6082,-2.5625,-2.5372,-2.5287,-2.4577,-2.3951,-2.3342,-2.2632,-2.2344,-2.2265,-2.2152,-2.1974,-2.1552,-2.1007,-2.0532,-1.9803,-1.966,-1.9169,-1.8408,-1.7581,-1.6837,-1.6064,-1.504,-1.4312,-1.38,-1.3296,-1.2891,-1.2725,-1.1633,-1.0813,-1.061,-0.9562,-0.8427,-0.7723,-0.7171,-0.6406,-0.5592,-0.4956,-0.4632,-0.4236,-0.2954,-0.0835,0.1338,0.212,0.3116,0.471,0.5814,0.6485,0.7041,0.8415,0.9429,0.982,0.9695,0.9562,0.951,0.918,0.8978,0.9439,0.9695,1.0165,1.1447,1.2471,1.3329,1.4046,1.4932,1.5911,1.7135,1.8112,1.8992,1.9734,2.0359,2.0845,2.1321,2.2267,2.3054,2.3421,2.3551,2.3595,2.3595,2.3595,2.3666,2.3794,2.3906,2.4074,2.4536,2.5051,2.5281,2.5486,2.5307,2.5132,2.4963,2.501,2.5133,2.5417,2.581,2.6016,2.5805,2.5587,2.5285,2.5089,2.5028,2.554,2.6033,2.612,2.6245,2.647,2.6674,2.6607,2.6521,2.6379,2.6303,-2.6708,-2.6657,-2.6268,-2.6353,-2.6607,-2.6285,-2.6099,-2.5964,-2.5338,-2.4594,-2.3866,-2.3139,-2.2649,-2.2327,-2.2282,-2.2032,-2.1521,-2.0943,-2.0345,-1.9818,-1.969,-1.953,-1.9118,-1.8226,-1.7366,-1.6676,-1.5355,-1.4558,-1.4071,-1.3382,-1.2891,-1.2832,-1.1783,-1.1166,-1.0712,-0.9769,-0.8514,-0.7343,-0.6804,-0.6095,-0.5113,-0.4736,-0.4015,-0.3511,-0.2508,-0.0835,0.184,0.2176,0.3611,0.537,0.6367,0.6707,0.7257,0.883,1.0195,1.119,1.0645,1.0123,0.9769,0.9465,0.9169,0.9031,0.9097,0.9692,1.069,1.1776,1.2823,1.3681,1.4746,1.6026,1.7468,1.8661,1.9371,1.9695,2.0105,2.0459,2.0894,2.1941,2.2785,2.3143,2.3421,2.3551,2.3595,2.3595,2.3794,2.3991,2.4116,2.4307,2.5182,2.5652,2.5819,2.5908,2.5726,2.5519,2.5329,2.5278,2.5404,2.5724,2.6168,2.6315,2.6329,2.6099,2.5872,2.5709,2.5561,2.5819,2.6245,2.6245,2.6332,2.6556,2.664,2.6505,2.635,2.615,2.6056,-2.6708,-2.6708,-2.6708,-2.6708,-2.6708,-2.6674,-2.6657,-2.6556,-2.593,-2.5186,-2.4594,-2.3883,-2.3207,-2.2632,-2.253,-2.2153,-2.1415,-2.0732,-2.0089,-1.9762,-1.9705,-1.969,-1.9354,-1.8574,-1.7824,-1.7231,-1.5704,-1.4914,-1.4422,-1.3658,-1.3113,-1.2822,-1.2187,-1.1416,-1.0771,-1.0064,-0.8817,-0.723,-0.675,-0.6041,-0.4952,-0.4625,-0.379,-0.2621,-0.2232,-0.0724,0.1505,0.2397,0.35,0.6312,0.6588,0.675,0.7391,0.8803,1.0787,1.2618,1.1584,1.0864,1.0372,0.9961,0.9524,0.8976,0.9011,0.9332,1.005,1.1244,1.2311,1.3483,1.4669,1.6404,1.7523,1.8821,1.9579,1.9798,1.9798,2.0042,2.0683,2.1704,2.2267,2.2785,2.3098,2.3275,2.3508,2.3595,2.3906,2.4142,2.4266,2.4592,2.5427,2.5888,2.5908,2.5855,2.5615,2.5259,2.5028,2.554,2.5652,2.5888,2.6367,2.6556,2.6624,2.647,2.6245,2.6175,2.6175,2.6367,2.647,2.6505,2.659,2.6708,2.6623,2.6488,2.6245,2.5922,2.5819,-2.6708,-2.6708,-2.6708,-2.6708,-2.6708,-2.6708,-2.6708,-2.6573,-2.5964,-2.5558,-2.5304,-2.4644,-2.39,-2.3325,-2.3207,-2.2452,-2.1294,-2.0516,-2.007,-1.9762,-1.9705,-1.9705,-1.95,-1.8705,-1.811,-1.7545,-1.6338,-1.5325,-1.471,-1.4014,-1.3372,-1.2852,-1.2236,-1.1525,-1.0821,-1.0108,-0.9131,-0.7498,-0.6902,-0.6136,-0.5382,-0.4677,-0.3846,-0.2454,-0.2287,-0.0724,0.1393,0.2286,0.3555,0.6199,0.6534,0.7235,0.8302,0.9755,1.1283,1.2314,1.2138,1.1516,1.1216,1.0415,0.9909,0.9524,0.9235,0.9282,0.9868,1.0718,1.2033,1.3558,1.5448,1.7302,1.7578,1.8927,1.9631,1.9798,1.9798,1.985,2.0144,2.0733,2.1609,2.2282,2.2649,2.3009,2.3231,2.3508,2.3709,2.3879,2.3921,2.4266,2.4934,2.5335,2.5449,2.5411,2.5297,2.4934,2.4617,2.5411,2.5924,2.5997,2.6332,2.659,2.6657,2.6691,2.659,2.6302,2.6335,2.6556,2.6657,2.6691,2.6573,2.6488,2.6454,2.6454,2.586,2.534,2.5427,-2.6708,-2.6708,-2.6708,-2.6708,-2.6708,-2.6708,-2.6708,-2.6657,-2.6319,-2.5947,-2.5592,-2.5186,-2.4425,-2.3646,-2.3393,-2.2504,-2.1183,-2.0261,-1.9909,-1.9726,-1.9705,-1.9705,-1.966,-1.8862,-1.8403,-1.7917,-1.6977,-1.5942,-1.5118,-1.4236,-1.3684,-1.3314,-1.2686,-1.1832,-1.0973,-1.0517,-0.9332,-0.8025,-0.6972,-0.6264,-0.5538,-0.4842,-0.3843,-0.3065,-0.2286,-0.1058,0.0613,0.1952,0.3385,0.5521,0.6362,0.7396,0.8725,1.0072,1.1434,1.251,1.2559,1.2187,1.1864,1.1116,1.0771,1.0312,0.971,0.9875,1.0591,1.1422,1.234,1.4167,1.5908,1.7578,1.7633,1.898,1.9631,1.9798,1.9798,1.9798,1.9901,2.0144,2.0832,2.169,2.2151,2.2563,2.3009,2.3231,2.3508,2.3595,2.3595,2.4032,2.4576,2.4934,2.5221,2.5205,2.5205,2.5012,2.4816,2.5411,2.5952,2.6042,2.6282,2.6539,2.6556,2.6488,2.6285,2.5999,2.6251,2.6404,2.6657,2.664,2.6454,2.625,2.6194,2.5945,2.5229,2.4809,2.4951,-2.6708,-2.6708,-2.6708,-2.6708,-2.6708,-2.6708,-2.6708,-2.6708,-2.6691,-2.637,-2.5879,-2.5761,-2.5101,-2.4005,-2.3204,-2.2307,-2.0971,-2.0172,-1.9762,-1.9726,-1.9705,-1.9705,-1.9579,-1.9169,-1.859,-1.8046,-1.7478,-1.6683,-1.552,-1.4549,-1.4003,-1.36,-1.3152,-1.2304,-1.1275,-1.0821,-0.9585,-0.8462,-0.7195,-0.645,-0.5534,-0.4842,-0.4125,-0.34,-0.2619,-0.1504,0.0111,0.1505,0.3106,0.4914,0.618,0.7348,0.8917,1.0182,1.1434,1.2627,1.2891,1.2559,1.2187,1.1765,1.1416,1.1015,1.0372,1.0804,1.1597,1.2295,1.3354,1.5157,1.6676,1.7743,1.8015,1.9044,1.9695,1.9798,1.9798,1.9798,1.9798,1.9952,2.0093,2.0828,2.1505,2.214,2.2651,2.2965,2.3231,2.3724,2.3767,2.3837,2.4389,2.4934,2.5205,2.5243,2.5205,2.5089,2.5182,2.554,2.587,2.5864,2.6168,2.6455,2.6336,2.6184,2.5896,2.5541,2.5609,2.5778,2.6167,2.6336,2.5981,2.5756,2.5802,2.5466,2.4694,2.4506,2.4682,-2.6708,-2.6708,-2.6708,-2.6708,-2.6708,-2.6708,-2.6708,-2.6708,-2.6708,-2.6657,-2.6471,-2.6505,-2.6031,-2.4925,-2.303,-2.1965,-2.1097,-2.0238,-1.9705,-1.9705,-1.9705,-1.9705,-1.966,-1.9146,-1.865,-1.8107,-1.7598,-1.6696,-1.58,-1.5028,-1.4329,-1.3873,-1.3326,-1.2461,-1.1625,-1.1133,-1.0415,-0.9429,-0.8174,-0.6865,-0.5626,-0.4908,-0.4291,-0.3456,-0.273,-0.1726,-0.0278,0.1224,0.2941,0.4477,0.5914,0.7699,0.9647,1.0494,1.151,1.2421,1.2881,1.2881,1.2608,1.2236,1.2012,1.1715,1.1166,1.1262,1.2264,1.3525,1.4561,1.5177,1.6757,1.7841,1.8436,1.9267,1.9695,1.9773,1.9736,1.9736,1.9736,1.9585,1.975,1.9915,2.0594,2.1539,2.2303,2.2665,2.2965,2.3493,2.3921,2.3975,2.4092,2.4548,2.4957,2.4918,2.4776,2.4617,2.4768,2.526,2.5425,2.5496,2.5782,2.6099,2.5795,2.549,2.5236,2.4983,2.5033,2.4893,2.4887,2.5006,2.5116,2.52,2.5184,2.4757,2.414,2.4212,2.4446,-2.6708,-2.6708,-2.6708,-2.6708,-2.6708,-2.6708,-2.6708,-2.6708,-2.6708,-2.6708,-2.6708,-2.6691,-2.6135,-2.4913,-2.2979,-2.1827,-2.1146,-2.0207,-1.9705,-1.9705,-1.9705,-1.9705,-1.9675,-1.9447,-1.8994,-1.8204,-1.7825,-1.7492,-1.651,-1.5655,-1.4915,-1.4359,-1.3865,-1.3037,-1.2159,-1.1447,-1.0669,-0.965,-0.8423,-0.6993,-0.5928,-0.5559,-0.5171,-0.4073,-0.3674,-0.2615,-0.1168,0.0611,0.2491,0.4191,0.5797,0.7699,0.964,1.0629,1.1425,1.2725,1.2891,1.2891,1.2832,1.2559,1.2579,1.2706,1.2452,1.2553,1.37,1.5099,1.6126,1.6578,1.7599,1.8382,1.8809,1.9371,1.9695,1.9748,1.956,1.9397,1.9359,1.9359,1.9371,1.946,1.9749,2.0823,2.1825,2.2226,2.2731,2.3537,2.3872,2.3984,2.385,2.3787,2.4186,2.4521,2.4251,2.4032,2.4147,2.4445,2.4574,2.4701,2.4925,2.5088,2.4932,2.4692,2.4506,2.4438,2.4472,2.4224,2.3796,2.4196,2.4829,2.4741,2.4566,2.4234,2.3957,2.4091,2.4285,-2.6708,-2.6708,-2.6708,-2.6708,-2.6708,-2.6708,-2.6708,-2.6708,-2.6708,-2.6708,-2.6674,-2.6539,-2.5878,-2.4746,-2.325,-2.2133,-2.1381,-2.0397,-1.9891,-1.975,-1.9705,-1.9705,-1.969,-1.9588,-1.92,-1.8318,-1.8337,-1.7978,-1.7415,-1.6764,-1.6065,-1.5313,-1.4767,-1.3982,-1.2947,-1.2165,-1.1436,-1.0143,-0.8719,-0.7527,-0.6651,-0.6621,-0.6164,-0.5474,-0.4717,-0.3961,-0.2477,-0.0169,0.2071,0.3857,0.5742,0.7657,0.9652,1.0585,1.1589,1.2793,1.3246,1.319,1.3152,1.3055,1.3276,1.3556,1.4094,1.4364,1.5658,1.7092,1.8051,1.8265,1.8283,1.8891,1.9364,1.9711,1.9585,1.9497,1.9256,1.9006,1.8819,1.8904,1.903,1.9232,1.9594,2.0338,2.1184,2.1657,2.2425,2.3404,2.3827,2.3921,2.3661,2.3274,2.3179,2.3492,2.329,2.3126,2.3425,2.3608,2.3734,2.3929,2.4181,2.411,2.3947,2.3943,2.3922,2.3875,2.393,2.3687,2.3389,2.4021,2.4549,2.4209,2.3989,2.4039,2.3999,2.4107,2.417,-2.6708,-2.6708,-2.6708,-2.6708,-2.6708,-2.6708,-2.6708,-2.6708,-2.6708,-2.6691,-2.659,-2.6245,-2.575,-2.4906,-2.3784,-2.2632,-2.1669,-2.0946,-2.0423,-1.9989,-1.972,-1.9899,-1.9959,-1.9893,-1.956,-1.9045,-1.9016,-1.8739,-1.8329,-1.8287,-1.7684,-1.7086,-1.6126,-1.5408,-1.4376,-1.3268,-1.2138,-1.0871,-0.9545,-0.8811,-0.8264,-0.8013,-0.7539,-0.7022,-0.5889,-0.4598,-0.3595,-0.0922,0.1595,0.3385,0.5579,0.7674,0.9674,1.0724,1.1966,1.3142,1.3716,1.3674,1.3552,1.3347,1.3337,1.4041,1.5169,1.6459,1.7473,1.7525,1.8493,1.9837,1.9509,1.9693,2.0152,2.0325,1.985,1.9512,1.9214,1.8802,1.8605,1.8571,1.8678,1.8951,1.9455,2.0234,2.0699,2.1265,2.2091,2.3076,2.3005,2.3078,2.3087,2.274,2.2245,2.2164,2.2109,2.2143,2.257,2.2802,2.3067,2.3339,2.3579,2.3253,2.2892,2.2988,2.3374,2.333,2.3327,2.3152,2.3168,2.3776,2.403,2.3596,2.3468,2.3858,2.4021,2.4091,2.417,-2.6708,-2.6708,-2.6708,-2.6708,-2.6708,-2.6708,-2.6708,-2.6708,-2.6708,-2.6521,-2.6297,-2.6049,-2.554,-2.4681,-2.3881,-2.3014,-2.2299,-2.1605,-2.1156,-2.1021,-2.0932,-2.0917,-2.0917,-2.0782,-2.0676,-2.0218,-2.0105,-2.0059,-1.9946,-1.9701,-2.0047,-1.9355,-1.7843,-1.6265,-1.5175,-1.4097,-1.2831,-1.1991,-1.1125,-1.0609,-1.0121,-1.025,-0.9663,-0.82,-0.8434,-0.6674,-0.4696,-0.2035,0.0515,0.3154,0.5773,0.8069,1.0159,1.1319,1.2513,1.3768,1.4139,1.4168,1.3984,1.3886,1.4265,1.5548,1.7193,1.8668,1.9124,1.933,2.0013,2.063,2.0476,2.0506,2.0609,2.0535,2.016,1.975,1.9257,1.8689,1.8482,1.8406,1.855,1.8878,1.9381,2.0042,2.0438,2.0841,2.1797,2.2673,2.2435,2.2286,2.2385,2.2276,2.1804,2.1607,2.1599,2.1713,2.2117,2.2311,2.2486,2.2719,2.2973,2.2801,2.2566,2.2667,2.2928,2.2883,2.3045,2.323,2.343,2.3649,2.3682,2.3616,2.3735,2.4014,2.4112,2.4132,2.4151,-2.6708,-2.6708,-2.6708,-2.6708,-2.6708,-2.6708,-2.6708,-2.6708,-2.6708,-2.6556,-2.6191,-2.5924,-2.5373,-2.4595,-2.3794,-2.3153,-2.266,-2.2173,-2.1889,-2.168,-2.1575,-2.1695,-2.1695,-2.1605,-2.1341,-2.1208,-2.1143,-2.1095,-2.1001,-2.1089,-2.1115,-2.0785,-1.9979,-1.8298,-1.6703,-1.4912,-1.383,-1.3506,-1.304,-1.2702,-1.211,-1.2273,-1.1962,-1.0175,-0.9973,-0.8491,-0.58,-0.2996,0.0177,0.3113,0.5994,0.8738,1.0677,1.224,1.3229,1.4063,1.4609,1.4744,1.4578,1.4623,1.5296,1.6477,1.8457,1.9685,2.0433,2.0809,2.1122,2.1845,2.1413,2.0926,2.0983,2.0711,2.0227,1.9711,1.8919,1.8369,1.8411,1.8383,1.8601,1.8874,1.9349,1.9767,2.0729,2.1163,2.1684,2.2291,2.1995,2.1966,2.2185,2.1933,2.1397,2.1337,2.1476,2.1621,2.1838,2.1963,2.2101,2.2223,2.2509,2.2737,2.2643,2.2746,2.2947,2.3212,2.3414,2.3544,2.3703,2.3894,2.3922,2.3855,2.4016,2.4151,2.4151,2.417,2.417,-2.6708,-2.6708,-2.6708,-2.6708,-2.6708,-2.6708,-2.6708,-2.6708,-2.6708,-2.6624,-2.6436,-2.5672,-2.5205,-2.4839,-2.3963,-2.3318,-2.2918,-2.2682,-2.2428,-2.2084,-2.2069,-2.1859,-2.1859,-2.1934,-2.2058,-2.1783,-2.1827,-2.1902,-2.1809,-2.1893,-2.1862,-2.1857,-2.1369,-2.0456,-1.9393,-1.7399,-1.6371,-1.6136,-1.5392,-1.4735,-1.4264,-1.4157,-1.3506,-1.2617,-1.135,-0.9788,-0.7517,-0.396,-0.0668,0.2441,0.5918,0.8767,1.1302,1.2504,1.3789,1.5168,1.5522,1.5683,1.5638,1.559,1.6332,1.7483,1.9407,2.0481,2.1151,2.1491,2.1764,2.2461,2.1811,2.1545,2.1288,2.0941,2.0421,1.9821,1.9108,1.8845,1.8936,1.8989,1.932,1.9527,1.9344,1.9511,2.0753,2.1612,2.1854,2.1962,2.16,2.1643,2.1931,2.1706,2.1205,2.1239,2.1395,2.1446,2.1563,2.16,2.1711,2.1823,2.2169,2.2556,2.2873,2.3069,2.3305,2.3588,2.3714,2.3816,2.3996,2.4189,2.4094,2.4036,2.4094,2.419,2.419,2.419,2.419,-2.6708,-2.6708,-2.6708,-2.6708,-2.6708,-2.6708,-2.6708,-2.6708,-2.6691,-2.6539,-2.6139,-2.5449,-2.4989,-2.4511,-2.4032,-2.346,-2.3325,-2.3295,-2.3041,-2.2966,-2.2862,-2.2966,-2.2906,-2.2817,-2.2864,-2.2957,-2.2935,-2.2863,-2.301,-2.2817,-2.2921,-2.2935,-2.2377,-2.1335,-1.9864,-1.8384,-1.7673,-1.7236,-1.6881,-1.6658,-1.6398,-1.5898,-1.5264,-1.4505,-1.2943,-1.1323,-0.937,-0.5373,-0.1866,0.1346,0.4883,0.8422,1.1039,1.2452,1.4524,1.5777,1.6335,1.753,1.7768,1.7959,1.8154,1.913,2.0154,2.1328,2.1958,2.2014,2.243,2.2643,2.2115,2.1916,2.1757,2.167,2.1259,2.0783,2.0277,2.0261,2.0311,2.0261,2.0388,2.0469,2.0392,2.0323,2.1033,2.1688,2.197,2.1955,2.1664,2.1601,2.1823,2.1536,2.1135,2.1247,2.1375,2.1326,2.1368,2.1757,2.2057,2.2341,2.2556,2.2822,2.3117,2.3369,2.3631,2.3878,2.3996,2.4074,2.4151,2.419,2.419,2.419,2.419,2.419,2.419,2.419,2.419,-2.6708,-2.6708,-2.6708,-2.6708,-2.6708,-2.6708,-2.6708,-2.6708,-2.6691,-2.6521,-2.6139,-2.5524,-2.5051,-2.4576,-2.3948,-2.3595,-2.3595,-2.3595,-2.3595,-2.3595,-2.358,-2.349,-2.352,-2.3595,-2.343,-2.3595,-2.3595,-2.3537,-2.3478,-2.3551,-2.3508,-2.3363,-2.3187,-2.2271,-2.097,-2.0154,-1.9443,-1.9012,-1.8761,-1.8401,-1.7927,-1.739,-1.6722,-1.5668,-1.4319,-1.2857,-1.0396,-0.7221,-0.3474,-0.0062,0.378,0.7841,1.0531,1.3032,1.513,1.6261,1.7491,1.8791,1.939,1.9863,2.0114,2.069,2.1611,2.2014,2.2312,2.2355,2.2489,2.2552,2.2313,2.2118,2.1989,2.1989,2.1888,2.135,2.1301,2.1285,2.1254,2.1207,2.1085,2.118,2.1103,2.1134,2.1275,2.1615,2.199,2.1893,2.1764,2.1803,2.1874,2.1668,2.1562,2.177,2.1915,2.2068,2.2152,2.2289,2.26,2.2848,2.3021,2.3206,2.3414,2.3674,2.3937,2.4113,2.4113,2.4151,2.417,2.419,2.419,2.419,2.419,2.419,2.419,2.419,2.419,-2.6708,-2.6708,-2.6708,-2.6708,-2.6708,-2.6708,-2.6708,-2.6708,-2.6708,-2.6674,-2.6624,-2.5598,-2.5144,-2.495,-2.4074,-2.3638,-2.3595,-2.3595,-2.3595,-2.3595,-2.3595,-2.3595,-2.3595,-2.3595,-2.3595,-2.3595,-2.3595,-2.3595,-2.3595,-2.3595,-2.3595,-2.3595,-2.3508,-2.295,-2.2363,-2.1744,-2.101,-2.0395,-1.9914,-1.9438,-1.8821,-1.8394,-1.7512,-1.643,-1.509,-1.3528,-1.1157,-0.8174,-0.4365,-0.0572,0.3456,0.7534,1.0948,1.3691,1.5404,1.7113,1.8523,1.9721,2.0879,2.1451,2.1801,2.2177,2.2542,2.2509,2.2386,2.2584,2.272,2.2618,2.2428,2.2161,2.1957,2.2084,2.2175,2.2033,2.1983,2.1983,2.1983,2.1877,2.1687,2.1606,2.1352,2.1399,2.1774,2.2046,2.2279,2.2324,2.2324,2.2468,2.2504,2.2415,2.2398,2.2669,2.2813,2.2979,2.3003,2.2855,2.2979,2.3165,2.3369,2.3566,2.3777,2.3919,2.4056,2.417,2.419,2.4228,2.4303,2.4266,2.419,2.419,2.4209,2.419,2.419,2.419,2.419,-2.6962,-2.6708,-2.6708,-2.6708,-2.6708,-2.6708,-2.6708,-2.6708,-2.6708,-2.6708,-2.6607,-2.5635,-2.5259,-2.5105,-2.4074,-2.3724,-2.3595,-2.3595,-2.3595,-2.3595,-2.3595,-2.3595,-2.3595,-2.3595,-2.3595,-2.3595,-2.3595,-2.3595,-2.3595,-2.3595,-2.3595,-2.3595,-2.3595,-2.3436,-2.3143,-2.268,-2.1785,-2.0979,-2.0446,-1.9825,-1.9137,-1.8489,-1.7743,-1.6834,-1.5041,-1.3545,-1.1974,-0.873,-0.5071,-0.1804,0.1682,0.5564,1.0053,1.2421,1.4515,1.857,1.9917,2.0982,2.2394,2.2876,2.3103,2.332,2.3545,2.3148,2.2887,2.2719,2.2872,2.2654,2.2738,2.2643,2.2708,2.2845,2.2929,2.2946,2.2929,2.2941,2.2894,2.2723,2.2522,2.2107,2.1903,2.1948,2.2286,2.2495,2.2678,2.2797,2.2915,2.3045,2.3045,2.2923,2.3045,2.33,2.3369,2.3414,2.3282,2.31,2.3305,2.3482,2.3631,2.3774,2.3937,2.4036,2.417,2.4228,2.4266,2.4358,2.4483,2.4412,2.4339,2.4228,2.4228,2.4209,2.419,2.4209,2.4209,-2.708,-2.6708,-2.6708,-2.6708,-2.6708,-2.6708,-2.6708,-2.6708,-2.6708,-2.6708,-2.6607,-2.5872,-2.5411,-2.5089,-2.4348,-2.3837,-2.3595,-2.3595,-2.3595,-2.3595,-2.3595,-2.3595,-2.3595,-2.3595,-2.3595,-2.3595,-2.3595,-2.3595,-2.3595,-2.3638,-2.3638,-2.3921,-2.3767,-2.3595,-2.3319,-2.2665,-2.1913,-2.1099,-2.037,-1.9773,-1.9032,-1.8221,-1.7677,-1.6789,-1.4749,-1.3819,-1.2679,-0.9225,-0.6197,-0.2859,0.0524,0.4421,0.918,1.2445,1.5522,1.9175,2.0601,2.1746,2.3024,2.3549,2.378,2.3871,2.3874,2.3341,2.3054,2.2874,2.276,2.2651,2.3029,2.3374,2.3575,2.3742,2.384,2.3953,2.3971,2.3971,2.3815,2.3629,2.3252,2.278,2.2634,2.2625,2.2781,2.2947,2.3045,2.3093,2.3206,2.3369,2.3323,2.3165,2.3369,2.3692,2.3732,2.3732,2.3544,2.3397,2.3464,2.357,2.3649,2.3795,2.3998,2.4152,2.4228,2.4284,2.4339,2.4462,2.4596,2.4599,2.4513,2.441,2.4393,2.441,2.4357,2.4247,2.4228,-2.7097,-2.6708,-2.6708,-2.6708,-2.6708,-2.6708,-2.6708,-2.6708,-2.6708,-2.6708,-2.659,-2.6191,-2.5652,-2.5128,-2.4552,-2.3991,-2.3709,-2.3595,-2.3595,-2.3595,-2.3595,-2.3595,-2.3595,-2.3595,-2.3595,-2.3595,-2.3638,-2.3681,-2.3709,-2.3794,-2.3991,-2.4348,-2.3837,-2.3595,-2.345,-2.2423,-2.1758,-2.1424,-2.0281,-1.9282,-1.8715,-1.8015,-1.7246,-1.6528,-1.5458,-1.4387,-1.2777,-1.0207,-0.7163,-0.3441,0.013,0.3753,0.896,1.3152,1.6543,1.9007,2.0578,2.1953,2.3076,2.3763,2.3775,2.3719,2.3488,2.3148,2.2914,2.2969,2.2877,2.3094,2.3494,2.3876,2.4116,2.4253,2.4385,2.4482,2.4516,2.4444,2.4315,2.4006,2.3512,2.3141,2.2972,2.2989,2.3117,2.3287,2.3559,2.3468,2.3538,2.3744,2.3723,2.3538,2.3653,2.4016,2.3976,2.3917,2.3878,2.3738,2.3595,2.3656,2.3692,2.3732,2.3837,2.4056,2.4284,2.4375,2.4495,2.4588,2.4678,2.47,2.4704,2.4723,2.4692,2.4673,2.4578,2.441,2.4284,-2.7351,-2.6708,-2.6708,-2.6708,-2.6708,-2.6708,-2.6708,-2.6708,-2.6708,-2.6708,-2.6624,-2.6227,-2.5742,-2.5259,-2.4712,-2.4184,-2.3752,-2.3638,-2.3595,-2.3595,-2.3595,-2.3595,-2.3595,-2.3595,-2.361,-2.3595,-2.3638,-2.3894,-2.4032,-2.4158,-2.4225,-2.4348,-2.3921,-2.3595,-2.358,-2.2455,-2.1805,-2.171,-2.0256,-1.9206,-1.8756,-1.8015,-1.7246,-1.6348,-1.5361,-1.4296,-1.2594,-1.0559,-0.7354,-0.3913,-0.1118,0.3593,0.9725,1.2905,1.5874,1.8419,2.0128,2.1611,2.2745,2.3498,2.3613,2.352,2.3287,2.2936,2.2811,2.305,2.3283,2.3569,2.3897,2.4271,2.4565,2.47,2.4834,2.4892,2.4949,2.4836,2.4716,2.4247,2.3741,2.3504,2.3323,2.3369,2.3486,2.3681,2.3966,2.4063,2.41,2.4171,2.4226,2.4118,2.3926,2.4154,2.4133,2.4113,2.4075,2.3803,2.3559,2.3574,2.361,2.3649,2.3732,2.3978,2.4284,2.4512,2.467,2.4756,2.4828,2.4832,2.487,2.4926,2.4912,2.4861,2.4785,2.4651,2.4461,-2.7419,-2.6725,-2.6708,-2.6708,-2.6708,-2.6708,-2.6708,-2.6708,-2.6708,-2.6708,-2.6691,-2.6401,-2.6016,-2.554,-2.4989,-2.4471,-2.3991,-2.3681,-2.3638,-2.3595,-2.3681,-2.3595,-2.3595,-2.3638,-2.3816,-2.3874,-2.4185,-2.4462,-2.442,-2.443,-2.4389,-2.4552,-2.4116,-2.3666,-2.3694,-2.2817,-2.2146,-2.21,-2.0343,-1.9608,-1.9113,-1.8209,-1.7523,-1.6574,-1.5631,-1.4523,-1.3296,-1.1345,-0.826,-0.4347,-0.0718,0.3983,0.9121,1.2469,1.5003,1.74,1.9405,2.1179,2.2186,2.2786,2.3154,2.3027,2.2941,2.2513,2.2681,2.2902,2.317,2.3451,2.3856,2.4225,2.4554,2.4733,2.4804,2.4883,2.485,2.4771,2.4607,2.4284,2.3901,2.3631,2.361,2.3762,2.3885,2.4024,2.4299,2.4479,2.4534,2.4549,2.4586,2.4538,2.4402,2.4266,2.4266,2.4209,2.4133,2.3762,2.3289,2.3365,2.3566,2.3714,2.3855,2.4074,2.4303,2.4545,2.476,2.4907,2.4961,2.4987,2.5063,2.5141,2.5087,2.5031,2.4962,2.4877,2.4741,-2.7419,-2.6742,-2.6708,-2.6708,-2.6708,-2.6708,-2.6708,-2.6708,-2.6708,-2.6708,-2.6708,-2.6691,-2.6401,-2.5944,-2.554,-2.5028,-2.4552,-2.4282,-2.3948,-2.3906,-2.3948,-2.4074,-2.3991,-2.3852,-2.3973,-2.4268,-2.4683,-2.4565,-2.4405,-2.443,-2.4552,-2.4871,-2.4511,-2.3906,-2.3933,-2.3448,-2.2756,-2.236,-2.1376,-2.0617,-1.9634,-1.8537,-1.7915,-1.7136,-1.6409,-1.5591,-1.4449,-1.2518,-0.9569,-0.5307,-0.0584,0.4361,0.8239,1.1527,1.4159,1.6441,1.8706,2.0215,2.1254,2.1708,2.2059,2.2248,2.2215,2.2321,2.2476,2.2729,2.2975,2.3307,2.3712,2.4082,2.4391,2.4614,2.4685,2.4741,2.4712,2.4697,2.4512,2.4321,2.4057,2.3774,2.3919,2.4078,2.4229,2.4372,2.4569,2.4753,2.4878,2.4897,2.4851,2.4726,2.4599,2.4439,2.4339,2.4266,2.419,2.3783,2.3289,2.3383,2.3588,2.3774,2.3976,2.4132,2.4339,2.461,2.479,2.4902,2.5068,2.5149,2.5233,2.5252,2.5222,2.5149,2.5126,2.5061,2.5,-2.7419,-2.6708,-2.6708,-2.6691,-2.6708,-2.6708,-2.6708,-2.6708,-2.6708,-2.6708,-2.6708,-2.6657,-2.6436,-2.6013,-2.5941,-2.554,-2.5067,-2.4792,-2.4871,-2.491,-2.4712,-2.4776,-2.4751,-2.4441,-2.4082,-2.4277,-2.4675,-2.4802,-2.4564,-2.4471,-2.4672,-2.5128,-2.4657,-2.4307,-2.4266,-2.3749,-2.3187,-2.2741,-2.217,-2.1396,-2.0882,-1.9725,-1.8283,-1.7684,-1.7346,-1.6352,-1.5148,-1.3424,-1.0691,-0.6727,-0.1696,0.3463,0.7402,1.0398,1.3007,1.5695,1.7944,1.921,2.0122,2.0772,2.1182,2.1357,2.1432,2.184,2.2051,2.2281,2.2565,2.2912,2.3325,2.3719,2.4044,2.4221,2.4327,2.4416,2.4418,2.4472,2.4426,2.4321,2.4133,2.4054,2.4094,2.4248,2.4408,2.4564,2.4759,2.4964,2.5229,2.5221,2.5166,2.4979,2.4752,2.4595,2.4428,2.4284,2.419,2.3824,2.3458,2.353,2.361,2.3816,2.3996,2.4151,2.4339,2.4578,2.4731,2.4828,2.5012,2.5149,2.5212,2.5201,2.5264,2.5264,2.5224,2.5203,2.5149]}]]